AC1911 / C-GSCA 7700 Squawk Report (15th of June, 2019)

Aircraft B763 Reg No. C-GSCA Age 28 years old
Model 767 Jet engines 2 First flight 17-05-91
Registered 09-05-17 Rollout 05-91 Delivered 04-06-91
Construction No. 25121 Line No. 0372 Series 375(ER)
ADSHEX C07465 Airline name Air Canada Rouge Owner N/A
Airfield based Toronto-Lester B.Pearson Int'l~ON~C First tracked 2017-07-13 17:22:00

Flight history for C-GSCA

Route Flight No Date Playback
Toronto Pearson International (YYZ) - Edinburgh (EDI) AC1904 2019-07-24 04:52:00
Eleftherios Venizelos Intl (ATH) - Toronto Pearson International (YYZ) AC1901 2019-07-23 23:28:00
Pierre Elliott Trudeau (YUL) - Eleftherios Venizelos Intl (ATH) AC1902 2019-07-23 10:17:00
Eleftherios Venizelos Intl (ATH) - Pierre Elliott Trudeau (YUL) AC1903 2019-07-22 21:21:00
Toronto Pearson International (YYZ) - Eleftherios Venizelos Intl (ATH) AC1900 2019-07-22 08:34:00
Orlando Intl (MCO) - Toronto Pearson International (YYZ) AC1673 2019-07-21 21:13:00
???? N/A 2019-07-21 14:22:00
Eldorado Intl (BOG) - Toronto Pearson International (YYZ) AC1945 2019-07-21 12:07:00
Toronto Pearson International (YYZ) - Eldorado Intl (BOG) AC1944 2019-07-21 02:44:00
Orlando Intl (MCO) - Toronto Pearson International (YYZ) AC1673 2019-07-20 18:36:00
???? N/A 2019-07-20 16:19:00
Edmonton International (YEG) - Toronto Pearson International (YYZ) AC1574 2019-07-19 22:38:00
Toronto Pearson International (YYZ) - Edmonton International (YEG) AC1573 2019-07-19 19:35:00
Edmonton International (YEG) - Toronto Pearson International (YYZ) AC1574 2019-07-18 21:05:00
Toronto Pearson International (YYZ) - Edmonton International (YEG) AC1573 2019-07-18 17:43:00
Edmonton International (YEG) - Toronto Pearson International (YYZ) AC1578 2019-07-18 12:22:00
Toronto Pearson International (YYZ) - Edmonton International (YEG) AC1577 2019-07-18 07:09:00
Calgary International (YYC) - Toronto Pearson International (YYZ) AC1592 2019-07-18 01:07:00
???? N/A 2019-07-17 20:15:00
Norman Manley Intl (KIN) - Toronto Pearson International (YYZ) AC1803 2019-07-17 01:52:00
Time Lat Lon Altitude Heading Speed Vertical Rate
2019-06-16 01:56:31 GMT 43.673447 -79.665001 700 46 142 -768
2019-06-16 01:56:25 GMT 43.670654 -79.669144 775 46 143 -768
2019-06-16 01:56:20 GMT 43.668839 -79.671806 825 46 144 -768
2019-06-16 01:56:17 GMT 43.667404 -79.673874 925 46 144 -704
2019-06-16 01:56:10 GMT 43.663811 -79.679001 975 46 144 -704
2019-06-16 01:56:03 GMT 43.660767 -79.683456 1,075 46 143 -704
2019-06-16 01:55:59 GMT 43.657108 -79.688873 1,125 46 144 -832
2019-06-16 01:55:55 GMT 43.657108 -79.688873 1,125 46 144 -832
2019-06-16 01:55:52 GMT 43.655685 -79.690926 1,175 46 145 -832
2019-06-16 01:55:46 GMT 43.652920 -79.695023 1,300 45 147 -768
2019-06-16 01:55:40 GMT 43.650639 -79.698227 1,325 45 147 -768
2019-06-16 01:55:35 GMT 43.647705 -79.702408 1,400 46 147 -832
2019-06-16 01:55:31 GMT 43.645615 -79.705490 1,450 46 147 -768
2019-06-16 01:55:25 GMT 43.642960 -79.709259 1,525 46 147 -832
2019-06-16 01:55:21 GMT 43.641266 -79.711754 1,575 46 147 -768
2019-06-16 01:55:17 GMT 43.639233 -79.714706 1,625 46 148 -768
2019-06-16 01:55:14 GMT 43.637558 -79.717049 2,025 46 186 -1024
2019-06-16 01:55:09 GMT 43.635590 -79.719994 1,725 46 149 -832
2019-06-16 01:55:06 GMT 43.634125 -79.722038 1,775 46 152 -768
2019-06-16 01:55:03 GMT 43.632759 -79.724121 1,800 46 155 -832
2019-06-16 01:54:59 GMT 43.630341 -79.727585 1,875 46 159 -896
2019-06-16 01:54:56 GMT 43.629131 -79.729355 1,925 46 161 -960
2019-06-16 01:54:50 GMT 43.625885 -79.734108 2,000 46 168 -896
2019-06-16 01:54:45 GMT 43.623642 -79.737366 2,075 46 171 -896
2019-06-16 01:54:42 GMT 43.621399 -79.740623 2,125 46 173 -960
2019-06-16 01:54:39 GMT 43.620239 -79.742302 2,175 46 174 -960
2019-06-16 01:54:35 GMT 43.617680 -79.745964 2,250 46 174 -960
2019-06-16 01:54:30 GMT 43.615070 -79.749825 2,325 46 176 -896
2019-06-16 01:54:26 GMT 43.613068 -79.752701 2,400 46 177 -832
2019-06-16 01:54:23 GMT 43.611626 -79.754723 2,400 45 178 -896
2019-06-16 01:54:19 GMT 43.608601 -79.759171 2,500 46 181 -1088
2019-06-16 01:54:16 GMT 43.607296 -79.760941 2,550 46 184 -1024
2019-06-16 01:54:13 GMT 43.605560 -79.763428 2,550 46 184 -1024
2019-06-16 01:54:08 GMT 43.602455 -79.767937 2,700 46 189 -1024
2019-06-16 01:54:05 GMT 43.601292 -79.769699 2,700 46 188 -1024
2019-06-16 01:54:02 GMT 43.599197 -79.772713 2,750 46 189 -1024
2019-06-16 01:53:58 GMT 43.596264 -79.776894 2,850 46 190 -1088
2019-06-16 01:53:55 GMT 43.594711 -79.779205 2,950 46 190 -1024
2019-06-16 01:53:52 GMT 43.592865 -79.781799 2,950 46 191 -832
2019-06-16 01:53:48 GMT 43.588631 -79.788078 3,000 47 192 -640
2019-06-16 01:53:45 GMT 43.588631 -79.788078 3,025 46 193 -448
2019-06-16 01:53:42 GMT 43.586517 -79.791206 3,050 46 193 -128
2019-06-16 01:53:36 GMT 43.583267 -79.795937 3,075 47 193 0
2019-06-16 01:53:33 GMT 43.581253 -79.798943 3,050 47 193 -64
2019-06-16 01:53:27 GMT 43.576767 -79.805649 3,075 47 193 0
2019-06-16 01:53:24 GMT 43.575760 -79.807114 3,075 47 193 64
2019-06-16 01:53:20 GMT 43.573360 -79.810707 3,050 48 193 0
2019-06-16 01:53:16 GMT 43.569496 -79.817177 3,050 62 196 -256
2019-06-16 01:53:10 GMT 43.567657 -79.821167 3,050 64 197 -320
2019-06-16 01:53:06 GMT 43.566517 -79.824570 3,050 70 200 -384
2019-06-16 01:53:03 GMT 43.565369 -79.829277 3,050 79 201 -192
2019-06-16 01:52:59 GMT 43.564701 -79.833656 3,050 81 202 -128
2019-06-16 01:52:55 GMT 43.564095 -79.839149 3,050 81 202 -128
2019-06-16 01:52:51 GMT 43.563492 -79.844994 3,075 81 201 -64
2019-06-16 01:52:45 GMT 43.562698 -79.852295 3,075 81 201 64
2019-06-16 01:52:42 GMT 43.562302 -79.856110 3,075 83 200 64
2019-06-16 01:52:38 GMT 43.561844 -79.860771 3,050 84 200 0
2019-06-16 01:52:34 GMT 43.561535 -79.865242 3,050 92 203 -128
2019-06-16 01:52:31 GMT 43.561489 -79.868973 3,050 96 204 -128
2019-06-16 01:52:26 GMT 43.562000 -79.874596 3,050 105 206 -384
2019-06-16 01:52:23 GMT 43.562988 -79.879547 3,025 110 209 -576
2019-06-16 01:52:20 GMT 43.564362 -79.883377 3,075 199 225 -640
2019-06-16 01:52:16 GMT 43.566238 -79.887405 3,075 128 214 -704
2019-06-16 01:52:13 GMT 43.568752 -79.891594 3,125 135 217 -576
2019-06-16 01:52:10 GMT 43.570240 -79.893562 3,125 136 219 -448
2019-06-16 01:52:06 GMT 43.573917 -79.898331 3,150 137 225 -640
2019-06-16 01:52:02 GMT 43.576992 -79.902260 3,200 138 225 -640
2019-06-16 01:51:59 GMT 43.578899 -79.904610 3,225 140 227 -768
2019-06-16 01:51:55 GMT 43.582031 -79.908295 3,275 143 228 -832
2019-06-16 01:51:51 GMT 43.588806 -79.914169 3,350 154 227 -768
2019-06-16 01:51:47 GMT 43.588806 -79.914169 3,375 157 228 -768
2019-06-16 01:51:44 GMT 43.591736 -79.915955 3,425 167 228 -640
2019-06-16 01:51:41 GMT 43.594162 -79.916847 3,425 167 228 -640
2019-06-16 01:51:38 GMT 43.598869 -79.917824 3,500 182 227 -640
2019-06-16 01:51:34 GMT 43.602642 -79.917885 3,550 190 226 -640
2019-06-16 01:51:31 GMT 43.605286 -79.917427 3,575 193 225 -640
2019-06-16 01:51:27 GMT 43.608582 -79.916466 3,675 213 224 -704
2019-06-16 01:51:23 GMT 43.613346 -79.913895 3,725 215 223 -768
2019-06-16 01:51:20 GMT 43.615398 -79.912262 3,725 215 223 -768
2019-06-16 01:51:16 GMT 43.619339 -79.908096 3,825 227 221 -1024
2019-06-16 01:51:13 GMT 43.621727 -79.904610 3,900 231 221 -1216
2019-06-16 01:51:10 GMT 43.623730 -79.901276 3,975 233 219 -1344
2019-06-16 01:51:05 GMT 43.626198 -79.896828 4,075 233 218 -1344
2019-06-16 01:51:00 GMT 43.629684 -79.890533 4,175 234 217 -1344
2019-06-16 01:50:56 GMT 43.632156 -79.885971 4,275 234 215 -1216
2019-06-16 01:50:52 GMT 43.634674 -79.881332 4,375 234 215 -1216
2019-06-16 01:50:49 GMT 43.636021 -79.878777 4,400 234 215 -1280
2019-06-16 01:50:44 GMT 43.638859 -79.873611 4,500 234 215 -960
2019-06-16 01:50:39 GMT 43.642456 -79.867027 4,575 234 217 -512
2019-06-16 01:50:35 GMT 43.644836 -79.862686 4,600 233 221 -320
2019-06-16 01:50:28 GMT 43.649010 -79.855110 4,650 233 224 -768
2019-06-16 01:50:25 GMT 43.650871 -79.851707 4,825 234 226 -896
2019-06-16 01:50:18 GMT 43.655663 -79.842880 4,825 234 228 -1280
2019-06-16 01:50:13 GMT 43.658737 -79.837189 5,175 234 228 -1344
2019-06-16 01:50:07 GMT 43.662556 -79.830124 5,050 234 228 -1280
2019-06-16 01:50:02 GMT 43.665207 -79.825256 5,150 234 228 -1280
2019-06-16 01:49:59 GMT 43.667114 -79.821754 5,225 234 228 -1216
2019-06-16 01:49:56 GMT 43.669785 -79.816826 5,225 234 228 -1216
2019-06-16 01:49:52 GMT 43.671631 -79.813454 5,425 234 230 -1280
2019-06-16 01:49:48 GMT 43.674820 -79.807564 5,500 234 230 -1280
2019-06-16 01:49:41 GMT 43.678116 -79.801369 5,550 234 230 -1280
2019-06-16 01:49:36 GMT 43.684341 -79.790123 5,775 233 230 -1280
2019-06-16 01:49:32 GMT 43.684341 -79.790123 5,800 234 231 -1280
2019-06-16 01:49:29 GMT 43.687866 -79.783676 5,875 234 231 -1280
2019-06-16 01:49:25 GMT 43.691509 -79.776962 6,175 234 231 -1216
2019-06-16 01:49:19 GMT 43.692764 -79.774734 6,025 234 232 -1152
2019-06-16 01:49:16 GMT 43.697979 -79.765121 6,100 234 232 -1024
2019-06-16 01:49:13 GMT 43.697979 -79.765121 6,150 233 233 -1024
2019-06-16 01:49:10 GMT 43.699036 -79.763229 6,200 233 233 -1024
2019-06-16 01:49:04 GMT 43.705242 -79.751846 6,325 233 237 -704
2019-06-16 01:49:00 GMT 43.705242 -79.751846 6,325 233 237 -704
2019-06-16 01:48:57 GMT 43.707596 -79.747520 6,375 233 239 -768
2019-06-16 01:48:53 GMT 43.709480 -79.744133 6,425 234 240 -768
2019-06-16 01:48:49 GMT 43.712132 -79.739227 6,475 234 241 -768
2019-06-16 01:48:46 GMT 43.714321 -79.735176 6,525 234 243 -1024
2019-06-16 01:48:43 GMT 43.716461 -79.731186 6,525 234 243 -1024
2019-06-16 01:48:40 GMT 43.718697 -79.727066 6,625 234 243 -1280
2019-06-16 01:48:33 GMT 43.723583 -79.717911 7,050 234 244 -1408
2019-06-16 01:48:28 GMT 43.728470 -79.708939 6,900 234 245 -1344
2019-06-16 01:48:25 GMT 43.728470 -79.708939 6,925 234 245 -1344
2019-06-16 01:48:22 GMT 43.730804 -79.704659 7,000 234 245 -1280
2019-06-16 01:48:18 GMT 43.734009 -79.698784 7,100 234 245 -1280
2019-06-16 01:48:12 GMT 43.738155 -79.691093 7,175 234 246 -1280
2019-06-16 01:48:06 GMT 43.742672 -79.682854 7,375 234 247 -1216
2019-06-16 01:48:03 GMT 43.743988 -79.680450 7,400 234 247 -1216
2019-06-16 01:48:00 GMT 43.745277 -79.678017 7,450 234 247 -1216
2019-06-16 01:47:57 GMT 43.750992 -79.667549 7,625 234 247 -1280
2019-06-16 01:47:53 GMT 43.750992 -79.667549 7,600 233 248 -1280
2019-06-16 01:47:50 GMT 43.752632 -79.664482 7,650 233 248 -1344
2019-06-16 01:47:47 GMT 43.754494 -79.661079 7,750 234 247 -1344
2019-06-16 01:47:44 GMT 43.756916 -79.656631 7,800 234 248 -1216
2019-06-16 01:47:40 GMT 43.759384 -79.652122 7,900 234 248 -1216
2019-06-16 01:47:36 GMT 43.762547 -79.646233 7,950 234 249 -1216
2019-06-16 01:47:32 GMT 43.765366 -79.641045 8,050 234 250 -1216
2019-06-16 01:47:29 GMT 43.766830 -79.638321 8,075 234 249 -1216
2019-06-16 01:47:26 GMT 43.769344 -79.633743 8,150 234 250 -1216
2019-06-16 01:47:23 GMT 43.771729 -79.629227 8,225 234 250 -1216
2019-06-16 01:47:19 GMT 43.774513 -79.624130 8,300 234 250 -1152
2019-06-16 01:47:14 GMT 43.779831 -79.614212 8,475 234 251 -1216
2019-06-16 01:47:11 GMT 43.779831 -79.614212 8,500 234 251 -1216
2019-06-16 01:47:08 GMT 43.781635 -79.610855 8,500 234 251 -1216
2019-06-16 01:47:05 GMT 43.783775 -79.606865 8,575 234 251 -1216
2019-06-16 01:47:01 GMT 43.786926 -79.601120 8,650 234 251 -1088
2019-06-16 01:46:58 GMT 43.791504 -79.592545 8,775 234 252 -1024
2019-06-16 01:46:53 GMT 43.791504 -79.592545 8,775 234 252 -1024
2019-06-16 01:46:50 GMT 43.794155 -79.587639 8,850 234 252 -960
2019-06-16 01:46:47 GMT 43.796082 -79.584068 8,875 234 252 -960
2019-06-16 01:46:43 GMT 43.798553 -79.579529 8,925 234 253 -896
2019-06-16 01:46:40 GMT 43.801483 -79.574036 9,000 234 253 -896
2019-06-16 01:46:37 GMT 43.803562 -79.570183 9,050 234 253 -960
2019-06-16 01:46:32 GMT 43.807526 -79.562737 9,125 234 253 -960
2019-06-16 01:46:28 GMT 43.808868 -79.560242 9,225 234 253 -1024
2019-06-16 01:46:25 GMT 43.811371 -79.555580 9,225 234 253 -960
2019-06-16 01:46:21 GMT 43.814453 -79.549843 9,275 234 253 -960
2019-06-16 01:46:18 GMT 43.816456 -79.546051 9,325 234 253 -1024
2019-06-16 01:46:15 GMT 43.818504 -79.542320 9,375 234 253 -1024
2019-06-16 01:46:12 GMT 43.821030 -79.537628 9,425 233 254 -960
2019-06-16 01:46:08 GMT 43.823547 -79.532967 9,500 233 254 -832
2019-06-16 01:46:05 GMT 43.825813 -79.528786 9,525 234 255 -768
2019-06-16 01:46:01 GMT 43.830643 -79.519936 9,625 234 256 -768
2019-06-16 01:45:58 GMT 43.830643 -79.519936 9,625 234 256 -704
2019-06-16 01:45:54 GMT 43.833031 -79.515450 9,675 234 256 -576
2019-06-16 01:45:51 GMT 43.835632 -79.510551 9,700 234 258 -576
2019-06-16 01:45:46 GMT 43.839111 -79.504036 9,775 234 260 -512
2019-06-16 01:45:42 GMT 43.841736 -79.499100 9,775 233 260 -512
2019-06-16 01:45:39 GMT 43.843277 -79.496307 9,950 229 267 -1152
2019-06-16 01:45:36 GMT 43.845646 -79.492035 9,825 233 263 -512
2019-06-16 01:45:33 GMT 43.848770 -79.486275 9,850 234 263 -448
2019-06-16 01:45:30 GMT 43.851288 -79.481674 9,875 233 264 -512
2019-06-16 01:45:26 GMT 43.853466 -79.477646 9,900 234 265 -512
2019-06-16 01:45:22 GMT 43.856506 -79.472099 9,950 234 265 -512
2019-06-16 01:45:18 GMT 43.858749 -79.467880 9,975 234 266 -448
2019-06-16 01:45:15 GMT 43.860992 -79.463600 10,000 234 266 -448
2019-06-16 01:45:12 GMT 43.863659 -79.458488 10,025 233 266 -768
2019-06-16 01:45:09 GMT 43.866348 -79.453636 10,075 232 266 -896
2019-06-16 01:45:06 GMT 43.868729 -79.449486 10,100 231 266 -1024
2019-06-16 01:45:01 GMT 43.872738 -79.442924 10,175 228 266 -1344
2019-06-16 01:44:58 GMT 43.874863 -79.439651 10,250 227 267 -1536
2019-06-16 01:44:55 GMT 43.876923 -79.436646 10,325 222 263 -2496
2019-06-16 01:44:51 GMT 43.880585 -79.431602 10,425 223 266 -2240
2019-06-16 01:44:48 GMT 43.883606 -79.427635 10,500 223 265 -2368
2019-06-16 01:44:45 GMT 43.886562 -79.424026 10,650 220 261 -2368
2019-06-16 01:44:40 GMT 43.891590 -79.418266 10,875 218 261 -1728
2019-06-16 01:44:37 GMT 43.896332 -79.413330 11,050 217 264 -1344
2019-06-16 01:44:34 GMT 43.896332 -79.413330 11,000 217 264 -1344
2019-06-16 01:44:27 GMT 43.904392 -79.405128 11,175 217 264 -1472
2019-06-16 01:44:24 GMT 43.906860 -79.402603 11,225 217 265 -1344
2019-06-16 01:44:18 GMT 43.912445 -79.396980 11,350 217 266 -1472
2019-06-16 01:44:12 GMT 43.918499 -79.390800 11,500 217 267 -1472
2019-06-16 01:44:06 GMT 43.924923 -79.384331 11,650 216 269 -1472
2019-06-16 01:44:02 GMT 43.928368 -79.380867 11,700 216 270 -1472
2019-06-16 01:43:57 GMT 43.933952 -79.375305 11,850 216 271 -1472
2019-06-16 01:43:54 GMT 43.935535 -79.373672 11,900 216 271 -1472
2019-06-16 01:43:51 GMT 43.939224 -79.370026 11,975 216 271 -1472
2019-06-16 01:43:47 GMT 43.944149 -79.365105 12,100 216 272 -1472
2019-06-16 01:43:44 GMT 43.946777 -79.362488 12,150 216 272 -1472
2019-06-16 01:43:41 GMT 43.949020 -79.360191 12,200 217 273 -1472
2019-06-16 01:43:37 GMT 43.954159 -79.355034 12,350 217 274 -1472
2019-06-16 01:43:34 GMT 43.956711 -79.352463 12,375 217 274 -1472
2019-06-16 01:43:31 GMT 43.960007 -79.349136 12,575 217 276 -1472
2019-06-16 01:43:26 GMT 43.965378 -79.343651 12,575 217 277 -1472
2019-06-16 01:43:23 GMT 43.967331 -79.341728 12,675 217 278 -1472
2019-06-16 01:43:20 GMT 43.971058 -79.337898 12,675 217 278 -1472
2019-06-16 01:43:16 GMT 43.975945 -79.332993 12,850 217 279 -1472
2019-06-16 01:43:13 GMT 43.978683 -79.330231 12,900 217 280 -1472
2019-06-16 01:43:09 GMT 43.982040 -79.326851 13,650 217 285 -1536
2019-06-16 01:43:04 GMT 43.989071 -79.319717 13,150 217 281 -1536
2019-06-16 01:43:01 GMT 43.991585 -79.317101 13,200 217 283 -1472
2019-06-16 01:42:58 GMT 43.993790 -79.314903 13,250 217 282 -1472
2019-06-16 01:42:55 GMT 43.998230 -79.310364 13,375 216 285 -1536
2019-06-16 01:42:52 GMT 44.001114 -79.307495 13,450 216 285 -1536
2019-06-16 01:42:49 GMT 44.003876 -79.304680 13,475 216 285 -1536
2019-06-16 01:42:41 GMT 44.012627 -79.295914 13,675 217 285 -1600
2019-06-16 01:42:38 GMT 44.015305 -79.293182 13,725 217 286 -1536
2019-06-16 01:42:33 GMT 44.021988 -79.286415 13,900 217 285 -1600
2019-06-16 01:42:29 GMT 44.025848 -79.282509 14,000 217 285 -1536
2019-06-16 01:42:21 GMT 44.038231 -79.269951 14,225 217 285 -1536
2019-06-16 01:42:12 GMT 44.043633 -79.264397 14,425 217 285 -1600
2019-06-16 01:42:06 GMT 44.054489 -79.253075 14,675 217 283 -1600
2019-06-16 01:42:00 GMT 44.056366 -79.251152 14,775 217 283 -1600
2019-06-16 01:41:57 GMT 44.059132 -79.248306 14,800 217 283 -1600
2019-06-16 01:41:49 GMT 44.068222 -79.238892 15,025 217 281 -1600
2019-06-16 01:41:46 GMT 44.070831 -79.236206 15,075 217 281 -1600
2019-06-16 01:41:39 GMT 44.078590 -79.228294 15,200 217 281 -1088
2019-06-16 01:41:36 GMT 44.081131 -79.225670 15,250 217 282 -960
2019-06-16 01:41:32 GMT 44.085983 -79.220749 15,325 216 286 -448
2019-06-16 01:41:28 GMT 44.090286 -79.216408 15,375 217 289 -512
2019-06-16 01:41:25 GMT 44.093445 -79.213280 15,400 217 290 -448
2019-06-16 01:41:20 GMT 44.098984 -79.207596 15,425 217 295 -320
2019-06-16 01:41:17 GMT 44.102287 -79.204231 15,450 217 296 -384
2019-06-16 01:41:14 GMT 44.104385 -79.202103 15,450 217 299 -448
2019-06-16 01:41:07 GMT 44.113632 -79.192650 15,500 217 309 -512
2019-06-16 01:41:04 GMT 44.117088 -79.189125 15,525 217 312 -512
2019-06-16 01:40:58 GMT 44.125748 -79.180428 15,575 216 323 -448
2019-06-16 01:40:55 GMT 44.128307 -79.177879 15,600 216 326 -384
2019-06-16 01:40:51 GMT 44.132263 -79.173996 15,625 217 335 -448
2019-06-16 01:40:48 GMT 44.135468 -79.170799 15,650 217 335 -448
2019-06-16 01:40:45 GMT 44.140594 -79.165627 15,700 217 344 -512
2019-06-16 01:40:37 GMT 44.148838 -79.157150 15,725 217 346 -512
2019-06-16 01:40:34 GMT 44.153774 -79.152176 15,775 217 352 -448
2019-06-16 01:40:26 GMT 44.163757 -79.141930 15,825 217 358 -448
2019-06-16 01:40:23 GMT 44.169525 -79.136055 15,850 217 363 -448
2019-06-16 01:40:16 GMT 44.177902 -79.127434 15,925 217 371 -640
2019-06-16 01:40:13 GMT 44.181610 -79.123596 15,925 217 371 -640
2019-06-16 01:40:09 GMT 44.186462 -79.118614 15,950 217 374 -832
2019-06-16 01:40:05 GMT 44.192596 -79.112350 16,025 217 379 -1280
2019-06-16 01:40:02 GMT 44.196121 -79.108688 16,050 217 379 -1280
2019-06-16 01:39:59 GMT 44.200470 -79.104179 16,125 217 381 -1472
2019-06-16 01:39:56 GMT 44.205139 -79.099342 16,225 217 383 -1728
2019-06-16 01:39:53 GMT 44.210659 -79.093521 16,350 217 385 -2112
2019-06-16 01:39:49 GMT 44.216492 -79.087440 16,475 217 385 -2304
2019-06-16 01:39:44 GMT 44.221939 -79.081810 16,575 217 386 -2560
2019-06-16 01:39:41 GMT 44.226254 -79.077377 16,700 217 387 -2624
2019-06-16 01:39:35 GMT 44.235352 -79.068146 17,000 216 388 -2624
2019-06-16 01:39:32 GMT 44.240456 -79.063042 17,150 216 388 -2624
2019-06-16 01:39:29 GMT 44.244278 -79.059250 17,250 216 389 -2624
2019-06-16 01:39:24 GMT 44.252609 -79.050949 17,500 216 390 -2560
2019-06-16 01:39:20 GMT 44.259247 -79.044342 17,575 216 390 -2560
2019-06-16 01:39:15 GMT 44.265427 -79.038261 17,850 216 391 -2304
2019-06-16 01:39:12 GMT 44.268200 -79.035446 18,000 216 392 -2304
2019-06-16 01:39:09 GMT 44.273987 -79.029762 18,050 216 392 -2496
2019-06-16 01:39:03 GMT 44.288170 -79.015617 18,425 216 394 -2688
2019-06-16 01:38:59 GMT 44.288170 -79.015617 18,675 216 394 -2688
2019-06-16 01:38:53 GMT 44.298412 -79.005363 18,775 216 394 -2752
2019-06-16 01:38:49 GMT 44.302872 -79.000923 18,900 216 394 -2752
2019-06-16 01:38:43 GMT 44.311798 -78.992088 19,175 216 395 -2560
2019-06-16 01:38:40 GMT 44.317593 -78.986275 19,325 216 396 -2368
2019-06-16 01:38:31 GMT 44.335739 -78.968285 20,175 216 403 -1408
2019-06-16 01:38:27 GMT 44.335739 -78.968285 19,725 216 402 -1472
2019-06-16 01:38:21 GMT 44.346638 -78.957466 19,900 216 405 -1152
2019-06-16 01:38:17 GMT 44.352783 -78.951370 19,975 216 409 -832
2019-06-16 01:38:10 GMT 44.362141 -78.941925 20,050 216 411 -448
2019-06-16 01:38:06 GMT 44.368332 -78.935760 20,075 216 412 -384
2019-06-16 01:38:00 GMT 44.378529 -78.925446 20,125 216 413 -640
2019-06-16 01:37:56 GMT 44.385464 -78.918411 20,175 216 413 -640
2019-06-16 01:37:50 GMT 44.394493 -78.909370 20,225 216 413 -640
2019-06-16 01:37:47 GMT 44.398823 -78.905014 20,275 216 414 -704
2019-06-16 01:37:39 GMT 44.411911 -78.891907 20,375 216 414 -640
2019-06-16 01:37:36 GMT 44.414246 -78.889549 20,375 216 414 -512
2019-06-16 01:37:33 GMT 44.420612 -78.883179 20,425 216 418 -768
2019-06-16 01:37:29 GMT 44.426102 -78.877716 20,450 216 416 -576
2019-06-16 01:37:25 GMT 44.430759 -78.872993 20,450 216 416 -576
2019-06-16 01:37:18 GMT 44.443283 -78.860466 20,550 216 416 -576
2019-06-16 01:37:08 GMT 44.457481 -78.846130 20,650 216 417 -640
2019-06-16 01:37:05 GMT 44.463913 -78.839722 20,675 216 417 -704
2019-06-16 01:36:58 GMT 44.473774 -78.829788 20,750 216 417 -768
2019-06-16 01:36:53 GMT 44.480850 -78.822685 20,800 216 418 -832
2019-06-16 01:36:48 GMT 44.489639 -78.813828 20,875 216 418 -768
2019-06-16 01:36:44 GMT 44.497375 -78.806107 20,950 216 418 -704
2019-06-16 01:36:36 GMT 44.509003 -78.794472 21,050 216 419 -704
2019-06-16 01:36:33 GMT 44.513535 -78.789894 21,050 216 419 -704
2019-06-16 01:36:26 GMT 44.525494 -78.777870 21,150 216 419 -768
2019-06-16 01:36:23 GMT 44.530846 -78.772507 21,200 216 419 -768
2019-06-16 01:36:20 GMT 44.536060 -78.767220 21,250 216 419 -768
2019-06-16 01:36:16 GMT 44.539948 -78.763275 21,275 216 419 -768
2019-06-16 01:36:12 GMT 44.546265 -78.756935 21,325 216 419 -768
2019-06-16 01:36:09 GMT 44.551941 -78.751175 21,375 216 419 -768
2019-06-16 01:36:03 GMT 44.561371 -78.741631 21,425 216 419 -768
2019-06-16 01:36:00 GMT 44.566738 -78.736267 21,475 216 420 -704
2019-06-16 01:35:54 GMT 44.574932 -78.727959 21,575 216 420 -704
2019-06-16 01:35:51 GMT 44.579819 -78.723068 21,600 216 420 -768
2019-06-16 01:35:48 GMT 44.584076 -78.718742 21,625 216 420 -768
2019-06-16 01:35:45 GMT 44.588802 -78.713959 21,650 216 420 -768
2019-06-16 01:35:42 GMT 44.593830 -78.708870 21,725 216 420 -704
2019-06-16 01:35:39 GMT 44.601887 -78.700760 21,750 216 421 -704
2019-06-16 01:35:33 GMT 44.607880 -78.694679 21,825 216 421 -768
2019-06-16 01:35:30 GMT 44.612457 -78.690033 21,825 216 421 -832
2019-06-16 01:35:24 GMT 44.620972 -78.681404 21,925 216 421 -896
2019-06-16 01:35:20 GMT 44.629669 -78.672638 22,000 216 421 -896
2019-06-16 01:35:13 GMT 44.640884 -78.661263 22,100 216 421 -960
2019-06-16 01:35:09 GMT 44.645920 -78.656158 22,150 216 422 -960
2019-06-16 01:35:03 GMT 44.657001 -78.644890 22,250 216 422 -896
2019-06-16 01:35:00 GMT 44.659836 -78.642036 22,275 216 422 -960
2019-06-16 01:34:57 GMT 44.664093 -78.637650 22,325 216 422 -896
2019-06-16 01:34:52 GMT 44.673763 -78.627876 22,475 216 422 -896
2019-06-16 01:34:48 GMT 44.692886 -78.608421 23,925 217 423 -704
2019-06-16 01:34:40 GMT 44.692886 -78.608421 22,850 217 425 -832
2019-06-16 01:34:36 GMT 44.696869 -78.604362 22,625 217 423 -768
2019-06-16 01:34:33 GMT 44.703648 -78.597397 22,775 216 424 -832
2019-06-16 01:34:29 GMT 44.709229 -78.591682 22,750 216 425 -1280
2019-06-16 01:34:26 GMT 44.713238 -78.587685 23,925 216 423 -2112
2019-06-16 01:34:22 GMT 44.720123 -78.580757 22,875 216 423 -2112
2019-06-16 01:34:18 GMT 44.726318 -78.574554 23,000 216 422 -2112
2019-06-16 01:34:15 GMT 44.730274 -78.570534 23,100 216 422 -1920
2019-06-16 01:34:11 GMT 44.736935 -78.563766 23,225 217 422 -1728
2019-06-16 01:34:08 GMT 44.742737 -78.557808 23,275 217 422 -1728
2019-06-16 01:34:05 GMT 44.746990 -78.553452 23,400 217 422 -1664
2019-06-16 01:33:58 GMT 44.758999 -78.541191 23,600 216 423 -1600
2019-06-16 01:33:54 GMT 44.765984 -78.534157 23,725 216 423 -1664
2019-06-16 01:33:50 GMT 44.769611 -78.530411 23,825 216 423 -1664
2019-06-16 01:33:47 GMT 44.775650 -78.524323 23,900 216 423 -1664
2019-06-16 01:33:42 GMT 44.783890 -78.515953 24,025 216 423 -1600
2019-06-16 01:33:37 GMT 44.792633 -78.507057 24,125 217 424 -1600
2019-06-16 01:33:34 GMT 44.797531 -78.502022 24,275 217 424 -1664
2019-06-16 01:33:29 GMT 44.803085 -78.496307 24,350 217 425 -1664
2019-06-16 01:33:25 GMT 44.809250 -78.489990 24,475 217 424 -1536
2019-06-16 01:33:22 GMT 44.814194 -78.484955 24,525 217 424 -1536
2019-06-16 01:33:19 GMT 44.820728 -78.478287 24,650 217 425 -1472
2019-06-16 01:33:16 GMT 44.825455 -78.473381 24,725 217 425 -1536
2019-06-16 01:33:12 GMT 44.831039 -78.467690 24,775 217 425 -1536
2019-06-16 01:33:05 GMT 44.847122 -78.451225 25,075 217 427 -1664
2019-06-16 01:33:01 GMT 44.850010 -78.448280 25,125 217 427 -1600
2019-06-16 01:32:56 GMT 44.856384 -78.441711 25,275 217 428 -1536
2019-06-16 01:32:52 GMT 44.866150 -78.431725 25,375 216 428 -1472
2019-06-16 01:32:48 GMT 44.871098 -78.426643 25,475 216 431 -1472
2019-06-16 01:32:44 GMT 44.875763 -78.421913 25,625 216 429 -1408
2019-06-16 01:32:40 GMT 44.884781 -78.412697 25,675 216 431 -1472
2019-06-16 01:32:36 GMT 44.890137 -78.407265 25,750 216 431 -1472
2019-06-16 01:32:33 GMT 44.892380 -78.404976 25,775 216 431 -1536
2019-06-16 01:32:30 GMT 44.900299 -78.396935 25,900 216 433 -1600
2019-06-16 01:32:27 GMT 44.903404 -78.393745 25,950 216 433 -1664
2019-06-16 01:32:24 GMT 44.909084 -78.387985 26,075 216 433 -1664
2019-06-16 01:32:21 GMT 44.914581 -78.382347 26,150 217 433 -1664
2019-06-16 01:32:16 GMT 44.920715 -78.376076 26,300 217 433 -1536
2019-06-16 01:32:13 GMT 44.925751 -78.370903 26,325 217 433 -1472
2019-06-16 01:32:10 GMT 44.930637 -78.365944 26,400 217 434 -1408
2019-06-16 01:32:06 GMT 44.941315 -78.354950 26,550 217 436 -1344
2019-06-16 01:32:03 GMT 44.943146 -78.353119 26,575 217 436 -1472
2019-06-16 01:31:59 GMT 44.954727 -78.341217 26,700 216 437 -2240
2019-06-16 01:31:55 GMT 44.954727 -78.341217 26,800 216 437 -2432
2019-06-16 01:31:52 GMT 44.959965 -78.335869 26,825 217 436 -2560
2019-06-16 01:31:47 GMT 44.968437 -78.327164 27,200 217 436 -2368
2019-06-16 01:31:43 GMT 44.974319 -78.321144 27,325 217 436 -1920
2019-06-16 01:31:40 GMT 44.980682 -78.314568 27,400 217 438 -1664
2019-06-16 01:31:35 GMT 44.989388 -78.305725 27,550 217 441 -1216
2019-06-16 01:31:31 GMT 44.994133 -78.300766 27,600 217 441 -1152
2019-06-16 01:31:26 GMT 45.004051 -78.290649 27,725 217 443 -704
2019-06-16 01:31:22 GMT 45.009216 -78.285362 27,775 217 443 -1024
2019-06-16 01:31:19 GMT 45.015656 -78.278702 27,775 217 443 -1024
2019-06-16 01:31:15 GMT 45.019970 -78.274307 27,850 217 443 -1472
2019-06-16 01:31:12 GMT 45.026302 -78.267807 27,950 217 443 -1536
2019-06-16 01:31:08 GMT 45.032272 -78.261696 28,200 217 443 -1600
2019-06-16 01:31:02 GMT 45.043201 -78.250458 28,225 217 442 -1600
2019-06-16 01:30:58 GMT 45.050629 -78.242798 28,325 217 442 -1600
2019-06-16 01:30:52 GMT 45.058365 -78.234756 28,450 217 442 -1664
2019-06-16 01:30:49 GMT 45.065407 -78.227409 28,700 217 440 -1792
2019-06-16 01:30:46 GMT 45.068710 -78.223999 28,625 217 440 -1792
2019-06-16 01:30:41 GMT 45.078533 -78.213814 28,750 217 439 -1728
2019-06-16 01:30:37 GMT 45.085098 -78.206978 28,925 217 439 -1728
2019-06-16 01:30:33 GMT 45.089676 -78.202255 29,000 217 438 -1984
2019-06-16 01:30:29 GMT 45.107906 -78.183464 29,375 217 433 -2304
2019-06-16 01:30:20 GMT 45.112286 -78.178909 29,525 217 432 -2304
2019-06-16 01:30:17 GMT 45.115356 -78.175766 29,525 217 432 -2304
2019-06-16 01:30:12 GMT 45.123039 -78.167725 29,750 217 427 -2432
2019-06-16 01:30:08 GMT 45.132256 -78.158081 29,975 217 424 -2304
2019-06-16 01:30:01 GMT 45.142822 -78.147057 30,225 217 422 -1984
2019-06-16 01:29:57 GMT 45.149414 -78.140190 30,375 217 421 -1792
2019-06-16 01:29:50 GMT 45.159027 -78.130257 30,550 216 420 -1408
2019-06-16 01:29:46 GMT 45.164330 -78.124786 30,800 216 419 -1280
2019-06-16 01:29:42 GMT 45.171730 -78.117210 30,725 216 419 -1280
2019-06-16 01:29:38 GMT 45.178619 -78.110115 30,850 216 419 -1280
2019-06-16 01:29:35 GMT 45.182739 -78.105927 30,875 216 419 -1280
2019-06-16 01:29:29 GMT 45.191666 -78.096771 30,950 216 419 -1216
2019-06-16 01:29:26 GMT 45.197193 -78.091156 31,050 216 419 -1216
2019-06-16 01:29:20 GMT 45.204876 -78.083321 31,175 217 418 -1280
2019-06-16 01:29:17 GMT 45.217804 -78.069832 31,275 217 417 -1280
2019-06-16 01:29:10 GMT 45.221031 -78.066437 31,400 217 416 -1408
2019-06-16 01:29:04 GMT 45.231037 -78.055786 31,500 217 416 -1600
2019-06-16 01:28:57 GMT 45.240582 -78.045738 32,025 217 415 -1664
2019-06-16 01:28:54 GMT 45.253143 -78.032753 32,550 217 412 -1600
2019-06-16 01:28:49 GMT 45.253143 -78.032753 31,925 216 413 -1664
2019-06-16 01:28:44 GMT 45.261658 -78.023987 32,075 217 413 -1600
2019-06-16 01:28:39 GMT 45.268745 -78.016663 32,200 217 411 -1600
2019-06-16 01:28:34 GMT 45.277313 -78.007751 32,350 217 410 -1472
2019-06-16 01:28:26 GMT 45.288113 -77.996429 32,575 217 409 -1408
2019-06-16 01:28:23 GMT 45.294537 -77.989731 32,600 217 409 -1344
2019-06-16 01:28:16 GMT 45.304729 -77.979149 32,825 217 408 -1280
2019-06-16 01:28:12 GMT 45.310226 -77.973434 32,825 217 408 -1280
2019-06-16 01:28:08 GMT 45.316040 -77.967484 32,925 217 408 -1344
2019-06-16 01:28:02 GMT 45.326656 -77.956436 33,025 217 407 -1280
2019-06-16 01:27:57 GMT 45.332478 -77.950409 33,175 217 407 -1216
2019-06-16 01:27:51 GMT 45.342159 -77.940292 33,275 217 406 -1152
2019-06-16 01:27:45 GMT 45.352432 -77.929489 33,425 217 407 -1344
2019-06-16 01:27:42 GMT 45.355133 -77.926613 33,475 217 406 -1280
2019-06-16 01:27:39 GMT 45.359661 -77.921875 33,525 217 407 -1344
2019-06-16 01:27:33 GMT 45.371155 -77.909805 33,725 217 406 -1600
2019-06-16 01:27:30 GMT 45.376648 -77.904182 33,725 217 406 -1600
2019-06-16 01:27:26 GMT 45.379822 -77.900841 33,850 217 402 -1920
2019-06-16 01:27:21 GMT 45.387779 -77.892532 34,150 217 402 -1920
2019-06-16 01:27:18 GMT 45.392624 -77.887505 34,100 217 402 -1920
2019-06-16 01:27:11 GMT 45.405029 -77.874557 34,350 217 400 -1856
2019-06-16 01:27:07 GMT 45.408169 -77.871292 34,475 217 396 -1792
2019-06-16 01:26:59 GMT 45.420601 -77.858299 34,650 217 396 -1792
2019-06-16 01:26:53 GMT 45.429932 -77.848335 34,875 218 394 -1536
2019-06-16 01:26:49 GMT 45.434891 -77.843025 34,950 218 393 -1408
2019-06-16 01:26:46 GMT 45.439957 -77.837547 35,000 218 393 -1408
2019-06-16 01:26:39 GMT 45.450066 -77.826683 35,150 217 393 -1344
2019-06-16 01:26:35 GMT 45.454906 -77.821587 35,275 217 393 -1280
2019-06-16 01:26:28 GMT 45.466873 -77.808990 35,450 217 392 -1088
2019-06-16 01:26:25 GMT 45.470947 -77.804718 35,500 217 392 -960
2019-06-16 01:26:19 GMT 45.480743 -77.794449 35,600 217 393 -960
2019-06-16 01:26:15 GMT 45.484840 -77.790100 35,650 217 393 -960
2019-06-16 01:26:08 GMT 45.494019 -77.780457 35,775 217 394 -640
2019-06-16 01:26:05 GMT 45.499458 -77.774696 35,800 217 395 -512
2019-06-16 01:25:58 GMT 45.510773 -77.762772 35,875 217 397 -384
2019-06-16 01:25:55 GMT 45.515167 -77.758095 35,875 217 398 -384
2019-06-16 01:25:47 GMT 45.526428 -77.746254 35,925 217 399 -320
2019-06-16 01:25:42 GMT 45.532928 -77.739326 35,950 217 401 -128
2019-06-16 01:25:36 GMT 45.541405 -77.730415 35,975 217 401 -64
2019-06-16 01:25:32 GMT 45.546936 -77.724586 35,975 217 401 0
2019-06-16 01:25:26 GMT 45.557323 -77.713577 35,975 217 401 0
2019-06-16 01:25:23 GMT 45.561653 -77.709045 35,975 218 402 -64
2019-06-16 01:25:16 GMT 45.573212 -77.696587 36,000 218 401 -64
2019-06-16 01:25:12 GMT 45.577515 -77.691963 36,025 218 402 -128
2019-06-16 01:25:07 GMT 45.586121 -77.682716 36,000 217 403 -64
2019-06-16 01:25:04 GMT 45.589096 -77.679573 36,000 217 403 -64
2019-06-16 01:25:01 GMT 45.593590 -77.674850 36,000 217 403 64
2019-06-16 01:24:57 GMT 45.601456 -77.666641 36,000 217 404 64
2019-06-16 01:24:54 GMT 45.604294 -77.663658 36,000 217 405 64
2019-06-16 01:24:51 GMT 45.608826 -77.659004 36,000 217 404 64
2019-06-16 01:24:45 GMT 45.623798 -77.643471 35,975 216 405 0
2019-06-16 01:24:42 GMT 45.623798 -77.643471 35,975 216 405 0
2019-06-16 01:24:33 GMT 45.641861 -77.625206 36,000 215 406 -64
2019-06-16 01:24:24 GMT 45.651077 -77.616333 36,000 213 408 -128
2019-06-16 01:24:21 GMT 45.654877 -77.612778 36,000 213 410 -64
2019-06-16 01:24:18 GMT 45.659691 -77.608452 36,000 212 410 0
2019-06-16 01:24:13 GMT 45.667606 -77.601585 36,000 211 413 0
2019-06-16 01:24:09 GMT 45.673737 -77.596504 36,000 209 414 -64
2019-06-16 01:24:01 GMT 45.689579 -77.584282 36,000 206 419 0
2019-06-16 01:23:50 GMT 45.708572 -77.571098 36,000 206 420 64
2019-06-16 01:23:41 GMT 45.722630 -77.561554 35,975 206 420 64
2019-06-16 01:23:38 GMT 45.728031 -77.557777 36,000 206 420 192
2019-06-16 01:23:29 GMT 45.744690 -77.546394 35,975 206 421 64
2019-06-16 01:23:21 GMT 45.758240 -77.537216 35,975 206 422 0
2019-06-16 01:23:18 GMT 45.763733 -77.533531 35,975 206 422 0
2019-06-16 01:23:08 GMT 45.782547 -77.520538 36,000 206 423 0
2019-06-16 01:23:00 GMT 45.795364 -77.511696 36,000 206 423 0
2019-06-16 01:22:57 GMT 45.800995 -77.507805 36,000 206 423 64
2019-06-16 01:22:54 GMT 45.806286 -77.504150 36,000 206 424 64
2019-06-16 01:22:49 GMT 45.814590 -77.498497 36,000 206 424 64
2019-06-16 01:22:46 GMT 45.821136 -77.493988 36,000 206 423 64
2019-06-16 01:22:38 GMT 45.834030 -77.485130 36,000 206 424 64
2019-06-16 01:22:34 GMT 45.840179 -77.480881 36,000 206 424 64
2019-06-16 01:22:28 GMT 45.851486 -77.473106 36,000 206 425 64
2019-06-16 01:22:24 GMT 45.858261 -77.468483 35,975 206 426 64
2019-06-16 01:22:19 GMT 45.868927 -77.461182 35,975 206 426 0
2019-06-16 01:22:14 GMT 45.875881 -77.456497 36,000 206 427 64
2019-06-16 01:22:08 GMT 45.887421 -77.448524 35,975 206 430 -64
2019-06-16 01:22:03 GMT 45.894875 -77.443382 35,975 206 427 0
2019-06-16 01:21:58 GMT 45.912704 -77.431091 35,975 206 428 64
2019-06-16 01:21:55 GMT 45.912704 -77.431091 35,975 206 428 64
2019-06-16 01:21:47 GMT 45.924854 -77.422714 35,975 206 429 0
2019-06-16 01:21:43 GMT 45.932022 -77.417839 35,975 206 429 0
2019-06-16 01:21:38 GMT 45.942215 -77.410805 35,975 206 430 -64
2019-06-16 01:21:34 GMT 45.949402 -77.405914 36,000 206 430 -128
2019-06-16 01:21:27 GMT 45.962978 -77.396484 36,025 206 430 0
2019-06-16 01:21:23 GMT 45.968006 -77.393051 36,025 206 431 0
2019-06-16 01:21:16 GMT 45.981308 -77.384010 36,025 206 430 64
2019-06-16 01:21:13 GMT 45.986526 -77.380463 36,000 206 430 64
2019-06-16 01:21:05 GMT 46.000408 -77.370941 36,000 206 431 64
2019-06-16 01:21:02 GMT 46.006134 -77.367027 36,000 206 431 64
2019-06-16 01:20:56 GMT 46.018749 -77.358376 35,975 206 431 64
2019-06-16 01:20:51 GMT 46.024288 -77.354530 35,975 206 432 64
2019-06-16 01:20:44 GMT 46.037567 -77.345291 36,000 206 431 -64
2019-06-16 01:20:41 GMT 46.042923 -77.341537 36,000 206 431 0
2019-06-16 01:20:34 GMT 46.055851 -77.332489 36,000 206 432 0
2019-06-16 01:20:31 GMT 46.061764 -77.328369 36,000 206 432 0
2019-06-16 01:20:23 GMT 46.074890 -77.319305 36,025 206 432 64
2019-06-16 01:20:19 GMT 46.081696 -77.314545 36,000 206 432 64
2019-06-16 01:20:13 GMT 46.092865 -77.306839 36,000 206 432 128
2019-06-16 01:20:09 GMT 46.100418 -77.301613 36,000 206 432 192
2019-06-16 01:20:02 GMT 46.112598 -77.293076 35,975 206 432 64
2019-06-16 01:19:59 GMT 46.119644 -77.288216 35,975 206 432 64
2019-06-16 01:19:53 GMT 46.129356 -77.281471 35,975 206 432 64
2019-06-16 01:19:50 GMT 46.133873 -77.278313 35,975 206 433 0
2019-06-16 01:19:47 GMT 46.140530 -77.273712 35,975 206 433 0
2019-06-16 01:19:42 GMT 46.149376 -77.267601 35,975 206 434 0
2019-06-16 01:19:39 GMT 46.156586 -77.262558 35,975 206 434 0
2019-06-16 01:19:31 GMT 46.169392 -77.253593 36,000 206 434 -64
2019-06-16 01:19:27 GMT 46.175724 -77.249199 36,000 206 433 0
2019-06-16 01:19:22 GMT 46.187073 -77.241188 36,000 207 435 64
2019-06-16 01:19:18 GMT 46.193413 -77.236771 36,000 206 434 64
2019-06-16 01:19:11 GMT 46.205330 -77.228394 36,000 206 435 64
2019-06-16 01:19:06 GMT 46.216412 -77.220703 36,000 206 437 64
2019-06-16 01:19:00 GMT 46.225861 -77.214180 36,000 206 437 -64
2019-06-16 01:18:56 GMT 46.233494 -77.208893 36,000 206 437 0
2019-06-16 01:18:48 GMT 46.246628 -77.199791 36,000 206 437 64
2019-06-16 01:18:44 GMT 46.253906 -77.194695 36,000 206 437 64
2019-06-16 01:18:40 GMT 46.262100 -77.189072 36,000 206 438 64
2019-06-16 01:18:37 GMT 46.266312 -77.186127 36,000 206 438 128
2019-06-16 01:18:33 GMT 46.273853 -77.181015 36,000 206 439 64
2019-06-16 01:18:30 GMT 46.284622 -77.173462 36,000 206 439 0
2019-06-16 01:18:24 GMT 46.291172 -77.168861 36,000 206 439 64
2019-06-16 01:18:19 GMT 46.301601 -77.161583 36,000 206 440 64
2019-06-16 01:18:14 GMT 46.310760 -77.155174 36,000 206 440 128
2019-06-16 01:18:07 GMT 46.322296 -77.147064 35,975 206 441 128
2019-06-16 01:18:02 GMT 46.330353 -77.141373 35,975 206 441 0
2019-06-16 01:17:59 GMT 46.340973 -77.133942 35,975 206 442 64
2019-06-16 01:17:52 GMT 46.349991 -77.127640 35,975 206 442 128
2019-06-16 01:17:46 GMT 46.360119 -77.120522 35,975 206 443 64
2019-06-16 01:17:41 GMT 46.368805 -77.114510 35,975 206 443 -64
2019-06-16 01:17:37 GMT 46.377995 -77.108025 35,975 207 443 -64
2019-06-16 01:17:34 GMT 46.382950 -77.104530 36,000 207 444 -64
2019-06-16 01:17:31 GMT 46.387585 -77.101295 36,000 207 444 -64
2019-06-16 01:17:28 GMT 46.396053 -77.095322 36,000 207 444 0
2019-06-16 01:17:25 GMT 46.399548 -77.092850 36,000 207 444 64
2019-06-16 01:17:21 GMT 46.407852 -77.086975 36,000 206 445 0
2019-06-16 01:17:14 GMT 46.418354 -77.079529 36,000 206 445 0
2019-06-16 01:17:10 GMT 46.427616 -77.073006 36,000 206 445 -64
2019-06-16 01:17:07 GMT 46.434448 -77.068222 36,000 206 445 -64
2019-06-16 01:17:00 GMT 46.446842 -77.059547 36,000 206 445 64
2019-06-16 01:16:54 GMT 46.456650 -77.052612 36,000 207 445 64
2019-06-16 01:16:49 GMT 46.466629 -77.045509 36,000 207 445 64
2019-06-16 01:16:43 GMT 46.476776 -77.038330 36,000 206 445 64
2019-06-16 01:16:38 GMT 46.486042 -77.031807 35,975 206 445 64
2019-06-16 01:16:33 GMT 46.494606 -77.025764 35,975 206 446 0
2019-06-16 01:16:28 GMT 46.504616 -77.018761 35,975 206 447 0
2019-06-16 01:16:25 GMT 46.512451 -77.013290 35,975 206 446 0
2019-06-16 01:16:15 GMT 46.531082 -77.000359 36,000 206 446 0
2019-06-16 01:16:07 GMT 46.543488 -76.991585 36,000 207 446 -64
2019-06-16 01:16:03 GMT 46.551086 -76.986221 36,000 207 446 64
2019-06-16 01:15:54 GMT 46.568893 -76.973633 36,000 207 446 64
2019-06-16 01:15:47 GMT 46.582638 -76.963898 36,000 207 446 128
2019-06-16 01:15:42 GMT 46.589676 -76.958961 35,975 206 447 128
2019-06-16 01:15:35 GMT 46.602859 -76.949585 35,975 206 447 -64
2019-06-16 01:15:32 GMT 46.608810 -76.945427 35,975 206 447 0
2019-06-16 01:15:26 GMT 46.621601 -76.936363 36,000 206 447 -64
2019-06-16 01:15:23 GMT 46.627167 -76.932434 36,000 206 446 0
2019-06-16 01:15:15 GMT 46.640175 -76.923248 36,000 206 447 0
2019-06-16 01:15:12 GMT 46.646896 -76.918503 36,000 207 446 64
2019-06-16 01:15:02 GMT 46.666710 -76.904434 36,000 207 446 64
2019-06-16 01:14:54 GMT 46.679123 -76.895592 36,000 207 446 64
2019-06-16 01:14:51 GMT 46.685425 -76.891113 36,000 206 447 0
2019-06-16 01:14:43 GMT 46.698624 -76.881790 36,000 206 447 0
2019-06-16 01:14:40 GMT 46.705486 -76.876900 36,000 206 447 64
2019-06-16 01:14:34 GMT 46.718124 -76.867851 35,975 207 446 64
2019-06-16 01:14:30 GMT 46.724625 -76.863365 36,000 207 446 64
2019-06-16 01:14:20 GMT 46.743851 -76.849503 35,975 207 446 64
2019-06-16 01:14:13 GMT 46.757172 -76.839851 36,000 207 447 128
2019-06-16 01:14:10 GMT 46.762699 -76.835838 36,000 207 448 64
2019-06-16 01:14:02 GMT 46.776260 -76.826187 35,975 206 448 64
2019-06-16 01:13:59 GMT 46.781879 -76.822243 36,000 206 448 64
2019-06-16 01:13:52 GMT 46.795258 -76.812721 35,975 207 448 -64
2019-06-16 01:13:48 GMT 46.801617 -76.808235 36,000 207 448 0
2019-06-16 01:13:38 GMT 46.820240 -76.794983 35,975 207 449 0
2019-06-16 01:13:31 GMT 46.834717 -76.784615 36,000 207 448 0
2019-06-16 01:13:26 GMT 46.841995 -76.779427 36,000 207 448 0
2019-06-16 01:13:20 GMT 46.853756 -76.771088 36,000 206 449 64
2019-06-16 01:13:16 GMT 46.861576 -76.765526 36,000 206 449 64
2019-06-16 01:13:10 GMT 46.873123 -76.757286 35,975 207 449 64
2019-06-16 01:13:06 GMT 46.880386 -76.752106 35,975 207 449 64
2019-06-16 01:12:59 GMT 46.893047 -76.743027 35,975 207 449 0
2019-06-16 01:12:54 GMT 46.902008 -76.736618 35,975 207 449 0
2019-06-16 01:12:48 GMT 46.913017 -76.728729 36,000 207 449 0
2019-06-16 01:12:44 GMT 46.921005 -76.722954 36,000 207 449 0
2019-06-16 01:12:39 GMT 46.931488 -76.715469 36,000 207 450 64
2019-06-16 01:12:34 GMT 46.939877 -76.709503 35,975 207 450 64
2019-06-16 01:12:27 GMT 46.952591 -76.700363 35,975 207 450 0
2019-06-16 01:12:23 GMT 46.958908 -76.695763 36,000 207 450 -64
2019-06-16 01:12:17 GMT 46.971394 -76.686752 36,000 207 449 -64
2019-06-16 01:12:13 GMT 46.978100 -76.681892 36,000 207 449 -64
2019-06-16 01:12:07 GMT 46.990574 -76.672882 36,000 207 449 64
2019-06-16 01:12:00 GMT 47.005470 -76.662033 36,000 207 449 0
2019-06-16 01:11:55 GMT 47.011242 -76.657951 36,000 207 450 64
2019-06-16 01:11:46 GMT 47.029724 -76.644745 35,975 207 450 0
2019-06-16 01:11:36 GMT 47.048950 -76.630836 36,000 207 450 0
2019-06-16 01:11:29 GMT 47.060867 -76.622177 36,000 207 450 0
2019-06-16 01:11:25 GMT 47.068829 -76.616325 36,000 207 449 64
2019-06-16 01:11:22 GMT 47.073486 -76.612953 36,000 207 449 64
2019-06-16 01:11:15 GMT 47.088242 -76.602318 36,000 207 450 0
2019-06-16 01:11:10 GMT 47.095139 -76.597298 36,000 207 450 0
2019-06-16 01:11:03 GMT 47.108368 -76.587753 36,000 207 450 0
2019-06-16 01:11:00 GMT 47.113937 -76.583717 36,000 207 450 0
2019-06-16 01:10:54 GMT 47.126999 -76.574295 36,000 207 450 64
2019-06-16 01:10:49 GMT 47.134651 -76.568794 36,000 207 450 64
2019-06-16 01:10:42 GMT 47.147324 -76.559601 36,000 207 449 64
2019-06-16 01:10:39 GMT 47.153091 -76.555412 35,975 207 450 64
2019-06-16 01:10:33 GMT 47.166733 -76.545525 35,975 207 450 64
2019-06-16 01:10:30 GMT 47.170990 -76.542435 35,975 207 450 64
2019-06-16 01:10:22 GMT 47.185905 -76.531609 35,975 207 451 0
2019-06-16 01:10:18 GMT 47.192284 -76.527031 35,975 207 451 0
2019-06-16 01:10:12 GMT 47.205551 -76.517448 35,975 207 451 0
2019-06-16 01:10:05 GMT 47.216770 -76.509354 36,000 207 451 0
2019-06-16 01:10:00 GMT 47.225571 -76.503014 36,000 207 451 -64
2019-06-16 01:09:51 GMT 47.245560 -76.488533 36,000 207 450 0
2019-06-16 01:09:37 GMT 47.268677 -76.471672 36,000 207 450 0
2019-06-16 01:09:28 GMT 47.286758 -76.458458 36,000 207 450 64
2019-06-16 01:09:17 GMT 47.306168 -76.444450 36,000 207 450 0
2019-06-16 01:09:06 GMT 47.326729 -76.429634 36,000 207 450 64
2019-06-16 01:08:57 GMT 47.345215 -76.416229 36,000 207 451 0
2019-06-16 01:08:47 GMT 47.362198 -76.403870 36,000 207 451 0
2019-06-16 01:08:38 GMT 47.381561 -76.389656 36,000 207 450 0
2019-06-16 01:08:27 GMT 47.400787 -76.375511 36,000 207 451 0
2019-06-16 01:08:16 GMT 47.420715 -76.360825 36,000 207 451 0
2019-06-16 01:08:05 GMT 47.440887 -76.346054 36,000 207 452 64
2019-06-16 01:07:54 GMT 47.461079 -76.331177 35,975 207 452 0
2019-06-16 01:07:44 GMT 47.479980 -76.317284 36,000 207 453 0
2019-06-16 01:07:33 GMT 47.500397 -76.302315 35,975 207 453 0
2019-06-16 01:07:24 GMT 47.518944 -76.288643 36,000 207 452 -64
2019-06-16 01:07:14 GMT 47.538399 -76.274345 36,000 207 453 0
2019-06-16 01:07:03 GMT 47.558258 -76.259674 36,000 207 452 0
2019-06-16 01:06:53 GMT 47.577347 -76.245598 36,000 207 452 0
2019-06-16 01:06:42 GMT 47.597031 -76.231110 36,000 207 452 64
2019-06-16 01:06:32 GMT 47.615910 -76.217155 35,975 207 453 64
2019-06-16 01:06:21 GMT 47.636444 -76.201859 35,975 207 453 0
2019-06-16 01:06:11 GMT 47.655388 -76.187859 35,975 207 453 64
2019-06-16 01:06:00 GMT 47.675777 -76.172722 35,975 207 453 0
2019-06-16 01:05:49 GMT 47.695606 -76.157928 36,000 207 453 -64
2019-06-16 01:05:38 GMT 47.718094 -76.141243 36,000 207 453 0
2019-06-16 01:05:29 GMT 47.733810 -76.129623 36,000 207 453 0
2019-06-16 01:05:19 GMT 47.753052 -76.115250 36,000 207 452 0
2019-06-16 01:05:08 GMT 47.773178 -76.100166 36,000 207 453 0
2019-06-16 01:04:58 GMT 47.792809 -76.085602 36,000 207 452 64
2019-06-16 01:04:47 GMT 47.811722 -76.071602 36,000 207 453 0
2019-06-16 01:04:36 GMT 47.831539 -76.056870 36,000 207 453 64
2019-06-16 01:04:26 GMT 47.850998 -76.042435 36,000 207 453 64
2019-06-16 01:04:15 GMT 47.870865 -76.027725 36,000 207 453 64
2019-06-16 01:04:05 GMT 47.890198 -76.013420 35,975 207 454 0
2019-06-16 01:03:55 GMT 47.909637 -75.998817 36,000 207 454 0
2019-06-16 01:03:44 GMT 47.930466 -75.983231 36,000 207 455 0
2019-06-16 01:03:34 GMT 47.949234 -75.969086 36,000 208 455 0
2019-06-16 01:03:24 GMT 47.968735 -75.954323 36,000 207 455 64
2019-06-16 01:03:13 GMT 47.987961 -75.939972 36,000 207 456 64
2019-06-16 01:03:03 GMT 48.008717 -75.924469 35,975 207 457 0
2019-06-16 01:02:51 GMT 48.028549 -75.909683 36,000 207 457 0
2019-06-16 01:02:41 GMT 48.048241 -75.894890 36,000 207 459 0
2019-06-16 01:02:31 GMT 48.067699 -75.880241 35,975 207 459 0
2019-06-16 01:02:20 GMT 48.087936 -75.864853 36,000 208 459 -64
2019-06-16 01:02:10 GMT 48.108948 -75.848854 36,000 207 459 0
2019-06-16 01:01:59 GMT 48.127705 -75.834679 36,000 207 460 0
2019-06-16 01:01:50 GMT 48.147072 -75.820099 36,000 207 461 0
2019-06-16 01:01:39 GMT 48.166489 -75.805595 35,975 207 461 0
2019-06-16 01:01:28 GMT 48.185852 -75.790947 36,000 207 460 0
2019-06-16 01:01:18 GMT 48.205215 -75.776222 36,000 207 461 0
2019-06-16 01:01:07 GMT 48.226639 -75.759956 36,000 207 460 0
2019-06-16 01:00:57 GMT 48.245018 -75.746033 36,000 208 460 0
2019-06-16 01:00:46 GMT 48.265503 -75.730453 36,000 208 460 -64
2019-06-16 01:00:29 GMT 48.298412 -75.705269 36,000 208 460 0
2019-06-16 01:00:20 GMT 48.316010 -75.691826 36,000 208 459 0
2019-06-16 01:00:14 GMT 48.327370 -75.683228 36,000 207 459 0
2019-06-16 01:00:04 GMT 48.345524 -75.669350 36,000 207 459 64
2019-06-16 00:59:52 GMT 48.368408 -75.651924 35,975 207 459 64
2019-06-16 00:59:43 GMT 48.384888 -75.639458 36,000 207 459 0
2019-06-16 00:59:34 GMT 48.403992 -75.624825 36,000 207 458 0
2019-06-16 00:59:22 GMT 48.424393 -75.609245 36,000 207 458 0
2019-06-16 00:59:12 GMT 48.445724 -75.592911 36,000 207 458 0
2019-06-16 00:59:01 GMT 48.465958 -75.577415 36,000 207 458 64
2019-06-16 00:58:51 GMT 48.484451 -75.563187 36,000 207 458 0
2019-06-16 00:58:41 GMT 48.504684 -75.547699 36,000 208 459 0
2019-06-16 00:58:30 GMT 48.523727 -75.533051 36,000 208 459 0
2019-06-16 00:58:20 GMT 48.544113 -75.517342 36,000 208 459 0
2019-06-16 00:58:09 GMT 48.563553 -75.502342 36,000 208 459 0
2019-06-16 00:57:57 GMT 48.585068 -75.485794 36,000 208 458 0
2019-06-16 00:57:48 GMT 48.603191 -75.471809 35,975 208 459 0
2019-06-16 00:57:37 GMT 48.623718 -75.455910 36,000 208 458 0
2019-06-16 00:57:27 GMT 48.644855 -75.439575 36,000 208 458 0
2019-06-16 00:57:14 GMT 48.667099 -75.422409 36,000 208 458 0
2019-06-16 00:57:04 GMT 48.686508 -75.407410 36,000 208 458 0
2019-06-16 00:56:54 GMT 48.704582 -75.393387 36,000 208 458 0
2019-06-16 00:56:43 GMT 48.725716 -75.377052 36,000 208 458 0
2019-06-16 00:56:30 GMT 48.749634 -75.358536 36,000 208 458 0
2019-06-16 00:56:23 GMT 48.764328 -75.347122 36,000 208 458 0
2019-06-16 00:56:12 GMT 48.783142 -75.332405 36,000 208 457 0
2019-06-16 00:56:03 GMT 48.802155 -75.317566 36,000 208 458 64
2019-06-16 00:55:52 GMT 48.821938 -75.302246 35,975 208 458 0
2019-06-16 00:55:42 GMT 48.842468 -75.286270 36,000 208 458 0
2019-06-16 00:55:31 GMT 48.860870 -75.271843 36,000 208 457 0
2019-06-16 00:55:19 GMT 48.883293 -75.254395 36,000 208 457 0
2019-06-16 00:55:09 GMT 48.901154 -75.240433 36,000 208 457 0
We lost coverage of the aircraft here for a total of 279 minutes
2019-06-15 20:16:12 GMT 58.992096 -14.166412 31,975 292 501 0
2019-06-15 20:15:57 GMT 58.978798 -14.101994 32,000 292 501 0
2019-06-15 20:15:52 GMT 58.974518 -14.081177 32,000 292 501 0
2019-06-15 20:15:41 GMT 58.965813 -14.039201 32,000 292 502 0
2019-06-15 20:15:22 GMT 58.948425 -13.956482 32,000 293 502 0
2019-06-15 20:15:17 GMT 58.944630 -13.938620 32,000 293 502 0
2019-06-15 20:14:09 GMT 58.884346 -13.653070 32,000 293 503 0
2019-06-15 20:13:59 GMT 58.876198 -13.614428 32,000 293 504 64
2019-06-15 20:13:49 GMT 58.867355 -13.572418 32,000 293 504 0
2019-06-15 20:13:39 GMT 58.858788 -13.532126 32,000 293 504 0
2019-06-15 20:13:29 GMT 58.849384 -13.488180 32,000 293 504 0
2019-06-15 20:13:18 GMT 58.840073 -13.445051 32,000 293 504 0
2019-06-15 20:13:08 GMT 58.831100 -13.403675 31,975 293 505 0
2019-06-15 20:12:58 GMT 58.821873 -13.361023 32,000 293 504 0
2019-06-15 20:12:48 GMT 58.812836 -13.319151 32,000 293 505 0
2019-06-15 20:12:38 GMT 58.803864 -13.277686 32,000 293 505 0
2019-06-15 20:12:27 GMT 58.794125 -13.232941 32,000 293 505 0
2019-06-15 20:12:18 GMT 58.785645 -13.193960 32,000 293 506 0
2019-06-15 20:12:07 GMT 58.776299 -13.150909 32,000 293 506 0
2019-06-15 20:11:49 GMT 58.759689 -13.075148 32,000 293 506 0
2019-06-15 20:11:46 GMT 58.757080 -13.063099 31,975 293 506 0
2019-06-15 20:11:37 GMT 58.748413 -13.023376 32,000 293 506 0
2019-06-15 20:11:27 GMT 58.739567 -12.982727 31,975 293 505 0
2019-06-15 20:11:17 GMT 58.730209 -12.940155 32,000 294 506 -64
2019-06-15 20:11:06 GMT 58.720642 -12.896797 32,000 294 506 0
2019-06-15 20:10:56 GMT 58.711304 -12.854713 32,000 293 505 64
2019-06-15 20:10:46 GMT 58.702011 -12.812185 32,000 293 505 64
2019-06-15 20:10:36 GMT 58.692947 -12.770898 31,975 293 505 0
2019-06-15 20:10:25 GMT 58.683334 -12.727130 31,975 294 506 0
2019-06-15 20:10:15 GMT 58.674179 -12.685842 32,000 294 506 0
2019-06-15 20:10:05 GMT 58.665207 -12.645529 32,000 294 506 -64
2019-06-15 20:09:55 GMT 58.655495 -12.602325 32,000 294 506 0
2019-06-15 20:09:45 GMT 58.646210 -12.561183 32,000 294 506 0
2019-06-15 20:09:33 GMT 58.635895 -12.515167 32,000 294 506 0
2019-06-15 20:09:24 GMT 58.626957 -12.475250 31,975 294 506 0
2019-06-15 20:09:14 GMT 58.617882 -12.435059 32,000 294 505 0
2019-06-15 20:09:04 GMT 58.608383 -12.393219 32,000 294 505 0
2019-06-15 20:08:54 GMT 58.599197 -12.352531 32,000 294 505 0
2019-06-15 20:08:43 GMT 58.589344 -12.309082 32,000 294 506 -64
2019-06-15 20:08:33 GMT 58.580032 -12.268158 32,000 294 506 0
2019-06-15 20:08:23 GMT 58.570488 -12.226410 32,000 294 506 0
2019-06-15 20:08:13 GMT 58.560993 -12.184570 32,000 294 506 -64
2019-06-15 20:08:03 GMT 58.551636 -12.143646 32,000 294 505 64
2019-06-15 20:07:53 GMT 58.542068 -12.101972 32,000 294 505 0
2019-06-15 20:07:43 GMT 58.532551 -12.060699 32,000 294 506 0
2019-06-15 20:07:33 GMT 58.523193 -12.019775 32,000 294 506 0
2019-06-15 20:07:22 GMT 58.513367 -11.976870 32,000 294 506 0
2019-06-15 20:07:12 GMT 58.504105 -11.936371 32,000 294 507 0
2019-06-15 20:06:59 GMT 58.492050 -11.884552 32,000 294 506 0
2019-06-15 20:06:52 GMT 58.484573 -11.852387 32,000 294 506 0
2019-06-15 20:06:41 GMT 58.475010 -11.811127 32,000 294 506 0
2019-06-15 20:06:31 GMT 58.465485 -11.769990 32,000 294 506 0
2019-06-15 20:06:21 GMT 58.456009 -11.729146 32,000 294 506 0
2019-06-15 20:06:11 GMT 58.446148 -11.686340 32,000 294 507 -64
2019-06-15 20:06:01 GMT 58.436554 -11.645153 32,000 295 507 0
2019-06-15 20:05:51 GMT 58.426987 -11.604486 32,000 295 507 64
2019-06-15 20:05:40 GMT 58.416595 -11.560098 32,000 295 507 0
2019-06-15 20:05:30 GMT 58.407558 -11.521454 31,975 294 506 0
2019-06-15 20:05:20 GMT 58.398014 -11.480804 31,975 295 507 0
2019-06-15 20:05:10 GMT 58.387894 -11.438185 31,975 295 507 0
2019-06-15 20:04:59 GMT 58.377823 -11.395569 31,975 295 507 0
2019-06-15 20:04:50 GMT 58.368591 -11.356476 31,975 295 507 0
2019-06-15 20:04:39 GMT 58.357979 -11.311340 32,000 295 507 -64
2019-06-15 20:04:29 GMT 58.348801 -11.272859 32,000 295 508 64
2019-06-15 20:04:18 GMT 58.338566 -11.229858 31,975 295 508 0
2019-06-15 20:04:09 GMT 58.329071 -11.190107 31,975 295 507 0
2019-06-15 20:03:58 GMT 58.319046 -11.148376 32,000 295 508 0
2019-06-15 20:03:48 GMT 58.309052 -11.106628 32,000 295 508 0
2019-06-15 20:03:38 GMT 58.299683 -11.067308 32,000 295 507 0
2019-06-15 20:03:27 GMT 58.289036 -11.022766 32,000 295 507 0
2019-06-15 20:03:18 GMT 58.279633 -10.983032 32,000 295 507 0
2019-06-15 20:03:07 GMT 58.269882 -10.942206 32,000 295 507 0
2019-06-15 20:02:57 GMT 58.259892 -10.900635 32,000 295 506 0
2019-06-15 20:02:47 GMT 58.249878 -10.859099 32,000 295 506 0
2019-06-15 20:02:37 GMT 58.240356 -10.819673 32,000 295 506 64
2019-06-15 20:02:26 GMT 58.230099 -10.776947 31,975 295 506 0
2019-06-15 20:02:17 GMT 58.220463 -10.737122 31,975 295 506 0
2019-06-15 20:02:07 GMT 58.210739 -10.697317 31,975 295 507 0
2019-06-15 20:01:56 GMT 58.200394 -10.655143 31,975 295 506 0
2019-06-15 20:01:46 GMT 58.190018 -10.613068 32,000 296 506 -64
2019-06-15 20:01:36 GMT 58.180473 -10.574524 32,000 296 506 -64
2019-06-15 20:01:26 GMT 58.170273 -10.533231 32,000 296 507 0
2019-06-15 20:01:16 GMT 58.159973 -10.492032 32,000 296 507 0
2019-06-15 20:01:05 GMT 58.149750 -10.451752 32,000 296 507 0
2019-06-15 20:00:55 GMT 58.139099 -10.409989 32,000 296 507 0
2019-06-15 20:00:45 GMT 58.128662 -10.369904 32,000 297 507 0
2019-06-15 20:00:35 GMT 58.118546 -10.331578 32,000 297 507 0
2019-06-15 20:00:25 GMT 58.107529 -10.291077 32,000 298 507 -64
2019-06-15 20:00:14 GMT 58.095749 -10.249420 32,000 300 506 -128
2019-06-15 20:00:03 GMT 58.082993 -10.206757 32,000 301 506 -64
2019-06-15 19:59:54 GMT 58.072174 -10.172808 32,000 303 506 -128
2019-06-15 19:59:44 GMT 58.059540 -10.135774 32,000 305 506 -128
2019-06-15 19:59:34 GMT 58.045898 -10.098916 31,975 307 506 -192
2019-06-15 19:59:24 GMT 58.031277 -10.063477 32,000 310 507 -320
2019-06-15 19:59:14 GMT 58.015732 -10.030075 32,000 313 507 0
2019-06-15 19:59:03 GMT 57.999432 -9.996643 31,975 311 506 384
2019-06-15 19:58:53 GMT 57.984676 -9.961395 32,000 305 507 256
2019-06-15 19:58:43 GMT 57.971546 -9.925049 32,000 305 507 -128
2019-06-15 19:58:33 GMT 57.957916 -9.888759 31,975 306 507 0
2019-06-15 19:58:23 GMT 57.943897 -9.851807 31,975 306 508 0
2019-06-15 19:58:13 GMT 57.930580 -9.816650 32,000 306 508 0
2019-06-15 19:58:02 GMT 57.916168 -9.778629 32,000 306 508 -64
2019-06-15 19:57:52 GMT 57.902092 -9.741669 32,000 306 508 0
2019-06-15 19:57:41 GMT 57.887329 -9.703143 32,000 306 508 0
2019-06-15 19:57:32 GMT 57.874878 -9.670538 32,000 306 508 0
2019-06-15 19:57:22 GMT 57.860802 -9.633820 32,000 306 507 0
2019-06-15 19:57:11 GMT 57.845856 -9.594910 32,000 306 507 0
2019-06-15 19:57:01 GMT 57.833084 -9.561827 32,000 306 507 0
2019-06-15 19:56:51 GMT 57.818439 -9.523682 32,000 306 507 0
2019-06-15 19:56:41 GMT 57.804611 -9.487758 32,000 306 507 0
2019-06-15 19:56:31 GMT 57.790787 -9.451721 32,000 306 507 0
2019-06-15 19:56:20 GMT 57.776680 -9.415100 32,000 306 508 0
2019-06-15 19:56:10 GMT 57.762817 -9.379312 32,000 306 507 0
2019-06-15 19:56:00 GMT 57.748489 -9.342454 32,000 307 508 0
2019-06-15 19:55:49 GMT 57.734177 -9.305603 32,000 307 508 0
2019-06-15 19:55:39 GMT 57.720398 -9.270246 31,975 307 508 0
2019-06-15 19:55:29 GMT 57.706573 -9.234806 32,000 307 507 0
2019-06-15 19:55:19 GMT 57.692642 -9.199162 32,000 307 508 0
2019-06-15 19:55:09 GMT 57.678455 -9.162686 32,000 307 508 0
2019-06-15 19:54:59 GMT 57.664810 -9.127750 32,000 307 508 0
2019-06-15 19:54:49 GMT 57.650253 -9.090672 32,000 307 508 0
2019-06-15 19:54:38 GMT 57.635021 -9.051937 32,000 307 508 0
2019-06-15 19:54:28 GMT 57.622284 -9.019518 32,000 307 508 0
2019-06-15 19:54:18 GMT 57.607864 -8.982868 32,000 307 507 0
2019-06-15 19:54:08 GMT 57.594269 -8.948450 32,000 307 507 0
2019-06-15 19:53:58 GMT 57.579849 -8.911886 32,000 307 508 0
2019-06-15 19:53:48 GMT 57.565979 -8.876781 32,000 307 507 0
2019-06-15 19:53:38 GMT 57.552254 -8.841956 32,000 307 508 0
2019-06-15 19:53:27 GMT 57.537781 -8.805456 32,000 307 507 0
2019-06-15 19:53:17 GMT 57.523865 -8.770437 32,000 307 508 0
2019-06-15 19:53:07 GMT 57.509033 -8.733358 32,000 307 508 0
2019-06-15 19:52:57 GMT 57.495346 -8.699112 32,000 307 508 0
2019-06-15 19:52:47 GMT 57.481258 -8.663694 32,000 307 508 0
2019-06-15 19:52:36 GMT 57.466507 -8.626671 32,000 307 508 0
2019-06-15 19:52:26 GMT 57.452591 -8.591652 32,000 307 508 0
2019-06-15 19:52:16 GMT 57.438480 -8.556400 31,975 307 508 0
2019-06-15 19:52:06 GMT 57.424515 -8.521492 32,000 307 508 -64
2019-06-15 19:51:56 GMT 57.409664 -8.484635 32,000 307 508 -64
2019-06-15 19:51:45 GMT 57.395184 -8.448841 32,000 307 507 0
2019-06-15 19:51:35 GMT 57.380722 -8.413210 32,000 307 507 0
2019-06-15 19:51:25 GMT 57.366211 -8.377590 32,000 307 506 0
2019-06-15 19:51:15 GMT 57.352776 -8.344382 32,000 307 506 0
2019-06-15 19:51:05 GMT 57.338242 -8.308411 32,000 307 506 0
2019-06-15 19:50:55 GMT 57.323914 -8.273220 32,000 308 506 0
2019-06-15 19:50:44 GMT 57.309761 -8.238417 32,000 307 505 0
2019-06-15 19:50:34 GMT 57.294586 -8.200851 32,000 307 504 0
2019-06-15 19:50:24 GMT 57.281250 -8.167734 32,000 307 504 0
2019-06-15 19:50:14 GMT 57.266693 -8.132029 32,000 308 504 0
2019-06-15 19:50:04 GMT 57.252548 -8.097353 32,000 308 504 0
2019-06-15 19:49:54 GMT 57.238953 -8.064137 32,000 308 504 0
2019-06-15 19:49:43 GMT 57.209793 -7.993155 32,000 308 503 0
2019-06-15 19:49:33 GMT 57.209793 -7.993155 32,000 308 503 0
2019-06-15 19:49:23 GMT 57.196079 -7.959772 32,000 308 503 0
2019-06-15 19:49:17 GMT 57.187408 -7.938566 32,000 308 503 0
2019-06-15 19:49:13 GMT 57.181641 -7.924662 32,000 308 503 0
2019-06-15 19:49:10 GMT 57.176620 -7.912371 32,000 308 503 0
2019-06-15 19:49:03 GMT 57.167500 -7.890310 32,000 308 502 0
2019-06-15 19:48:56 GMT 57.157562 -7.866125 32,000 308 502 0
2019-06-15 19:48:53 GMT 57.153351 -7.855997 32,000 308 502 0
2019-06-15 19:48:46 GMT 57.143105 -7.831214 32,000 308 501 0
2019-06-15 19:48:42 GMT 57.138931 -7.821064 32,000 308 501 0
2019-06-15 19:48:35 GMT 57.128815 -7.796660 32,000 308 501 0
2019-06-15 19:48:32 GMT 57.124054 -7.785187 32,000 308 501 0
2019-06-15 19:48:26 GMT 57.114056 -7.761132 32,000 308 501 0
2019-06-15 19:48:22 GMT 57.110424 -7.752361 32,000 308 502 0
2019-06-15 19:48:15 GMT 57.100571 -7.728710 32,000 308 502 0
2019-06-15 19:48:12 GMT 57.095669 -7.716921 32,000 308 501 0
2019-06-15 19:48:05 GMT 57.086105 -7.693949 32,000 308 501 0
2019-06-15 19:48:02 GMT 57.081886 -7.683873 32,000 308 501 0
2019-06-15 19:47:55 GMT 57.072098 -7.660217 32,000 308 501 0
2019-06-15 19:47:51 GMT 57.067337 -7.648716 32,000 308 501 0
2019-06-15 19:47:44 GMT 57.057262 -7.624423 32,000 308 501 0
2019-06-15 19:47:41 GMT 57.053192 -7.614555 32,000 308 501 0
2019-06-15 19:47:38 GMT 57.048138 -7.602450 32,000 308 501 0
2019-06-15 19:47:34 GMT 57.043396 -7.591038 32,000 308 501 0
2019-06-15 19:47:31 GMT 57.039154 -7.580921 32,000 308 501 0
2019-06-15 19:47:28 GMT 57.033382 -7.567454 32,000 308 501 0
2019-06-15 19:47:24 GMT 57.029160 -7.557049 32,000 308 501 0
2019-06-15 19:47:21 GMT 57.024353 -7.545633 32,000 308 501 0
2019-06-15 19:47:15 GMT 57.014740 -7.522802 32,000 308 501 0
2019-06-15 19:47:09 GMT 57.007141 -7.504692 32,000 308 501 0
2019-06-15 19:47:04 GMT 57.000141 -7.487803 32,000 308 501 0
2019-06-15 19:46:59 GMT 56.992973 -7.470615 32,000 308 501 0
2019-06-15 19:46:51 GMT 56.982193 -7.444696 32,000 308 501 0
2019-06-15 19:46:48 GMT 56.977798 -7.434289 32,000 308 501 -64
2019-06-15 19:46:44 GMT 56.972164 -7.420910 32,000 308 501 -64
2019-06-15 19:46:41 GMT 56.967045 -7.408861 32,000 308 502 0
2019-06-15 19:46:37 GMT 56.961784 -7.396457 32,000 308 502 0
2019-06-15 19:46:34 GMT 56.957977 -7.387447 32,000 308 502 0
2019-06-15 19:46:30 GMT 56.950287 -7.369337 32,000 308 502 0
2019-06-15 19:46:27 GMT 56.947632 -7.362966 32,000 308 501 0
2019-06-15 19:46:24 GMT 56.943348 -7.352954 32,000 308 502 0
2019-06-15 19:46:18 GMT 56.933758 -7.330096 32,000 308 502 0
2019-06-15 19:46:13 GMT 56.928825 -7.318312 32,000 308 502 0
2019-06-15 19:46:10 GMT 56.924011 -7.306938 32,000 308 502 0
2019-06-15 19:46:07 GMT 56.919746 -7.296871 32,000 308 502 0
2019-06-15 19:46:04 GMT 56.913940 -7.283077 32,000 308 502 0
2019-06-15 19:45:59 GMT 56.908947 -7.271354 32,000 308 503 0
2019-06-15 19:45:56 GMT 56.903183 -7.257586 32,000 308 502 64
2019-06-15 19:45:53 GMT 56.899796 -7.249517 32,000 308 503 0
2019-06-15 19:45:47 GMT 56.890839 -7.228650 32,000 308 504 0
2019-06-15 19:45:43 GMT 56.885902 -7.216511 32,000 308 504 0
2019-06-15 19:45:40 GMT 56.881203 -7.205436 32,000 308 503 0
2019-06-15 19:45:35 GMT 56.874359 -7.189311 32,000 308 503 0
2019-06-15 19:45:32 GMT 56.871094 -7.181625 32,000 308 503 0
2019-06-15 19:45:29 GMT 56.866837 -7.171583 32,000 308 504 0
2019-06-15 19:45:25 GMT 56.860672 -7.157150 32,000 308 504 0
2019-06-15 19:45:22 GMT 56.855988 -7.146091 32,000 308 504 0
2019-06-15 19:45:17 GMT 56.848431 -7.128266 32,000 308 504 0
2019-06-15 19:45:12 GMT 56.842331 -7.113825 32,000 308 504 0
2019-06-15 19:45:07 GMT 56.834461 -7.095396 31,975 308 504 0
2019-06-15 19:45:04 GMT 56.825729 -7.075024 31,975 309 505 0
2019-06-15 19:45:01 GMT 56.825729 -7.075024 31,975 309 505 0
2019-06-15 19:44:58 GMT 56.821850 -7.066247 31,975 309 505 0
2019-06-15 19:44:55 GMT 56.817101 -7.054906 31,975 309 505 0
2019-06-15 19:44:52 GMT 56.813095 -7.045515 31,975 309 505 0
2019-06-15 19:44:49 GMT 56.809372 -7.036832 32,000 309 505 0
2019-06-15 19:44:46 GMT 56.805176 -7.027130 31,975 309 505 -64
2019-06-15 19:44:43 GMT 56.799408 -7.013741 32,000 309 506 -64
2019-06-15 19:44:39 GMT 56.793777 -7.001038 32,000 309 506 -128
2019-06-15 19:44:34 GMT 56.785862 -6.982255 32,000 309 506 0
2019-06-15 19:44:30 GMT 56.781254 -6.971534 32,000 308 506 64
2019-06-15 19:44:27 GMT 56.776039 -6.959396 32,000 308 506 64
2019-06-15 19:44:24 GMT 56.772457 -6.951333 32,000 308 506 0
2019-06-15 19:44:21 GMT 56.768600 -6.941986 32,000 308 506 0
2019-06-15 19:44:18 GMT 56.764450 -6.932196 32,000 309 506 0
2019-06-15 19:44:14 GMT 56.754208 -6.908451 31,975 309 506 -64
2019-06-15 19:44:08 GMT 56.749599 -6.897731 32,000 309 506 64
2019-06-15 19:44:05 GMT 56.744797 -6.886711 31,975 309 506 0
2019-06-15 19:44:01 GMT 56.739487 -6.874352 32,000 309 506 -64
2019-06-15 19:43:58 GMT 56.735027 -6.863974 32,000 309 506 -64
2019-06-15 19:43:54 GMT 56.729095 -6.850233 32,000 309 507 -64
2019-06-15 19:43:51 GMT 56.725525 -6.841908 32,000 309 507 -64
2019-06-15 19:43:47 GMT 56.720318 -6.829864 32,000 309 507 128
2019-06-15 19:43:43 GMT 56.713394 -6.813755 32,000 309 507 192
2019-06-15 19:43:40 GMT 56.709797 -6.805410 31,975 309 506 448
2019-06-15 19:43:37 GMT 56.705608 -6.795664 31,950 308 507 704
2019-06-15 19:43:34 GMT 56.700439 -6.783615 31,900 308 507 960
2019-06-15 19:43:31 GMT 56.696274 -6.773844 31,875 309 506 1024
2019-06-15 19:43:25 GMT 56.687485 -6.753502 31,775 309 507 1664
2019-06-15 19:43:21 GMT 56.681259 -6.739082 31,650 309 507 1664
2019-06-15 19:43:17 GMT 56.675766 -6.726379 31,525 309 507 1536
2019-06-15 19:43:14 GMT 56.672276 -6.718317 31,425 309 507 1536
2019-06-15 19:43:11 GMT 56.666924 -6.705913 31,375 309 507 1536
2019-06-15 19:43:05 GMT 56.658218 -6.685889 31,225 309 508 1536
2019-06-15 19:43:01 GMT 56.652145 -6.671534 31,125 309 507 1600
2019-06-15 19:42:57 GMT 56.647247 -6.660461 30,075 309 507 1472
2019-06-15 19:42:54 GMT 56.643036 -6.650763 30,900 309 508 1664
2019-06-15 19:42:51 GMT 56.637409 -6.637691 30,825 309 507 1536
2019-06-15 19:42:46 GMT 56.629898 -6.620293 30,700 309 507 1408
2019-06-15 19:42:43 GMT 56.626423 -6.611998 30,650 309 507 1408
2019-06-15 19:42:40 GMT 56.623070 -6.604644 30,575 309 506 1344
2019-06-15 19:42:36 GMT 56.617264 -6.591368 30,500 309 506 1408
2019-06-15 19:42:33 GMT 56.612457 -6.580381 30,425 309 506 1408
2019-06-15 19:42:30 GMT 56.608082 -6.570444 30,375 309 506 1536
2019-06-15 19:42:26 GMT 56.603165 -6.559181 30,250 309 506 1472
2019-06-15 19:42:22 GMT 56.595749 -6.542273 30,125 309 505 1344
2019-06-15 19:42:16 GMT 56.587372 -6.523049 29,975 309 504 1664
2019-06-15 19:42:12 GMT 56.581173 -6.508799 29,925 309 504 1728
2019-06-15 19:42:09 GMT 56.578445 -6.502158 29,850 309 504 1920
2019-06-15 19:42:05 GMT 56.572655 -6.489315 29,350 309 506 1920
2019-06-15 19:42:01 GMT 56.566132 -6.474443 29,475 309 505 2048
2019-06-15 19:41:58 GMT 56.561188 -6.463207 29,425 309 505 1984
2019-06-15 19:41:55 GMT 56.552216 -6.442649 29,300 309 505 1984
2019-06-15 19:41:52 GMT 56.549011 -6.435408 29,150 309 506 1856
2019-06-15 19:41:45 GMT 56.543243 -6.422091 28,825 309 506 2112
2019-06-15 19:41:41 GMT 56.533363 -6.399622 28,775 309 506 2240
2019-06-15 19:41:33 GMT 56.519669 -6.368408 28,425 309 508 2176
2019-06-15 19:41:29 GMT 56.519669 -6.368408 28,425 309 508 2176
2019-06-15 19:41:25 GMT 56.513718 -6.354818 28,350 309 508 2112
2019-06-15 19:41:21 GMT 56.507900 -6.341515 28,125 309 508 1984
2019-06-15 19:41:18 GMT 56.499100 -6.321516 27,975 309 508 2048
2019-06-15 19:41:15 GMT 56.499100 -6.321516 27,925 309 508 2112
2019-06-15 19:41:11 GMT 56.492706 -6.306901 27,825 309 508 2112
2019-06-15 19:41:08 GMT 56.489777 -6.300243 27,725 309 509 2048
2019-06-15 19:41:05 GMT 56.484375 -6.287925 27,425 309 508 1984
2019-06-15 19:41:01 GMT 56.476940 -6.271048 27,300 309 508 2048
2019-06-15 19:40:58 GMT 56.474854 -6.266369 27,300 309 508 2048
2019-06-15 19:40:55 GMT 56.470642 -6.256714 27,250 309 508 2112
2019-06-15 19:40:52 GMT 56.466110 -6.246477 27,175 309 508 2112
2019-06-15 19:40:48 GMT 56.460091 -6.232853 27,000 309 508 1984
2019-06-15 19:40:45 GMT 56.456039 -6.223588 26,900 309 508 1856
2019-06-15 19:40:42 GMT 56.450912 -6.211936 26,775 309 508 1728
2019-06-15 19:40:39 GMT 56.446655 -6.202365 26,700 309 508 1664
2019-06-15 19:40:36 GMT 56.441391 -6.190463 26,600 309 507 1856
2019-06-15 19:40:32 GMT 56.435974 -6.178265 26,475 309 507 2048
2019-06-15 19:40:28 GMT 56.429832 -6.164446 26,325 309 507 2240
2019-06-15 19:40:24 GMT 56.424591 -6.152510 26,200 309 506 2304
2019-06-15 19:40:21 GMT 56.420929 -6.144354 26,100 309 507 2368
2019-06-15 19:40:18 GMT 56.415344 -6.131786 25,950 309 507 2496
2019-06-15 19:40:15 GMT 56.411350 -6.122904 25,775 309 507 2688
2019-06-15 19:40:12 GMT 56.406509 -6.112061 25,675 309 507 2688
2019-06-15 19:40:08 GMT 56.400501 -6.098614 25,500 309 508 2688
2019-06-15 19:40:04 GMT 56.393753 -6.083422 25,300 309 509 2624
2019-06-15 19:40:01 GMT 56.390945 -6.077104 25,200 309 509 2560
2019-06-15 19:39:57 GMT 56.385235 -6.064196 25,100 309 509 2432
2019-06-15 19:39:53 GMT 56.379368 -6.050892 24,875 309 510 2176
2019-06-15 19:39:50 GMT 56.374512 -6.039984 24,825 309 510 2112
2019-06-15 19:39:47 GMT 56.370392 -6.030745 24,675 309 509 1920
2019-06-15 19:39:44 GMT 56.363914 -6.016216 24,525 309 509 1728
2019-06-15 19:39:41 GMT 56.361099 -6.009938 24,475 309 508 1664
2019-06-15 19:39:37 GMT 56.355534 -5.997419 24,325 309 507 1728
2019-06-15 19:39:34 GMT 56.351120 -5.987549 24,250 309 507 1792
2019-06-15 19:39:31 GMT 56.345989 -5.976133 24,175 309 506 1792
2019-06-15 19:39:27 GMT 56.340126 -5.963001 24,050 309 505 1728
2019-06-15 19:39:22 GMT 56.334137 -5.949513 23,900 309 504 1728
2019-06-15 19:39:19 GMT 56.328442 -5.936737 23,800 309 503 1920
2019-06-15 19:39:16 GMT 56.325554 -5.930214 23,650 309 503 2048
2019-06-15 19:39:13 GMT 56.320480 -5.918798 23,600 309 503 2048
2019-06-15 19:39:10 GMT 56.316242 -5.909357 23,525 309 502 1920
2019-06-15 19:39:06 GMT 56.304382 -5.882679 23,350 309 501 1728
2019-06-15 19:38:58 GMT 56.298294 -5.869113 23,100 309 499 1856
2019-06-15 19:38:55 GMT 56.294861 -5.861289 23,075 309 499 1856
2019-06-15 19:38:50 GMT 56.286915 -5.843611 22,900 309 497 1856
2019-06-15 19:38:47 GMT 56.282593 -5.833907 22,775 309 495 1792
2019-06-15 19:38:44 GMT 56.279560 -5.827131 22,750 309 495 1792
2019-06-15 19:38:40 GMT 56.272430 -5.811102 22,600 309 495 1792
2019-06-15 19:38:37 GMT 56.268436 -5.802155 22,500 309 493 1856
2019-06-15 19:38:34 GMT 56.265316 -5.795116 22,450 309 493 1920
2019-06-15 19:38:31 GMT 56.260334 -5.783873 22,125 309 491 1984
2019-06-15 19:38:27 GMT 56.250885 -5.762501 22,125 309 491 1984
2019-06-15 19:38:24 GMT 56.243820 -5.746599 20,350 309 490 1984
2019-06-15 19:38:20 GMT 56.243820 -5.746599 21,925 309 489 1920
2019-06-15 19:38:15 GMT 56.236954 -5.731035 21,775 309 488 1920
2019-06-15 19:38:12 GMT 56.233425 -5.723104 21,275 310 486 2048
2019-06-15 19:38:07 GMT 56.225792 -5.706196 21,450 310 485 2240
2019-06-15 19:38:04 GMT 56.221939 -5.697826 20,350 304 477 2368
2019-06-15 19:37:59 GMT 56.215210 -5.683261 21,200 310 485 2240
2019-06-15 19:37:56 GMT 56.210770 -5.673689 21,075 309 484 2240
2019-06-15 19:37:53 GMT 56.204498 -5.659624 21,025 309 484 2112
2019-06-15 19:37:49 GMT 56.200287 -5.649802 20,825 307 482 1920
2019-06-15 19:37:46 GMT 56.196396 -5.640481 20,575 305 478 2240
2019-06-15 19:37:43 GMT 56.193787 -5.634072 20,575 305 478 2240
2019-06-15 19:37:39 GMT 56.187515 -5.618175 20,525 305 477 2240
2019-06-15 19:37:35 GMT 56.183010 -5.606461 20,350 304 477 2432
2019-06-15 19:37:32 GMT 56.177795 -5.592299 20,200 303 476 2496
2019-06-15 19:37:29 GMT 56.175190 -5.585003 20,125 302 475 2560
2019-06-15 19:37:24 GMT 56.166576 -5.559769 19,550 300 474 2560
2019-06-15 19:37:21 GMT 56.166576 -5.559769 19,700 300 474 2560
2019-06-15 19:37:18 GMT 56.163300 -5.549594 19,700 300 473 2496
2019-06-15 19:37:14 GMT 56.158539 -5.534196 19,475 297 472 2432
2019-06-15 19:37:11 GMT 56.156010 -5.525522 18,750 295 468 2240
2019-06-15 19:37:08 GMT 56.153458 -5.516385 19,325 296 471 2432
2019-06-15 19:37:04 GMT 56.148750 -5.498829 19,075 295 470 2368
2019-06-15 19:37:01 GMT 56.146179 -5.488919 18,750 295 468 2240
2019-06-15 19:36:58 GMT 56.143982 -5.480513 18,925 295 469 2240
2019-06-15 19:36:55 GMT 56.141068 -5.469217 18,775 296 467 2240
2019-06-15 19:36:52 GMT 56.138229 -5.458317 18,700 296 467 2304
2019-06-15 19:36:48 GMT 56.134319 -5.443296 18,600 295 466 2304
2019-06-15 19:36:43 GMT 56.127228 -5.416093 18,150 296 463 2688
2019-06-15 19:36:37 GMT 56.125053 -5.407763 18,200 296 463 2688
2019-06-15 19:36:33 GMT 56.120819 -5.391457 17,850 295 462 2944
2019-06-15 19:36:30 GMT 56.112625 -5.359955 17,550 295 462 2816
2019-06-15 19:36:24 GMT 56.110435 -5.351629 17,400 296 461 2688
2019-06-15 19:36:21 GMT 56.107132 -5.338856 17,300 296 461 2560
2019-06-15 19:36:18 GMT 56.107132 -5.338856 17,175 296 460 2368
2019-06-15 19:36:14 GMT 56.103642 -5.325451 17,025 296 459 2048
2019-06-15 19:36:11 GMT 56.100845 -5.314808 16,925 295 457 1920
2019-06-15 19:36:08 GMT 56.098801 -5.306896 16,900 295 456 1920
2019-06-15 19:36:04 GMT 56.094749 -5.291204 16,725 295 452 2304
2019-06-15 19:36:01 GMT 56.092003 -5.280647 16,575 295 452 2368
2019-06-15 19:35:57 GMT 56.088509 -5.267086 16,400 295 450 2496
2019-06-15 19:35:54 GMT 56.085846 -5.256958 16,325 295 450 2560
2019-06-15 19:35:50 GMT 56.079803 -5.233737 16,075 295 448 2816
2019-06-15 19:35:47 GMT 56.079803 -5.233737 15,975 295 448 2880
2019-06-15 19:35:43 GMT 56.076920 -5.222667 15,825 295 447 2816
2019-06-15 19:35:40 GMT 56.071152 -5.200528 15,575 296 442 2048
2019-06-15 19:35:37 GMT 56.071152 -5.200528 15,525 296 446 2304
2019-06-15 19:35:33 GMT 56.067749 -5.187521 15,400 296 445 2048
2019-06-15 19:35:30 GMT 56.065235 -5.177908 15,300 296 443 1984
2019-06-15 19:35:26 GMT 56.061508 -5.163660 15,125 296 440 2496
2019-06-15 19:35:23 GMT 56.059021 -5.154169 14,525 296 438 3072
2019-06-15 19:35:19 GMT 56.055130 -5.139354 14,800 296 438 3008
2019-06-15 19:35:16 GMT 56.053436 -5.132779 14,675 296 438 3072
2019-06-15 19:35:12 GMT 56.049919 -5.119371 14,475 296 437 2880
2019-06-15 19:35:09 GMT 56.046288 -5.105639 14,275 296 437 2816
2019-06-15 19:35:06 GMT 56.044331 -5.098085 14,275 296 437 2752
2019-06-15 19:35:03 GMT 56.041492 -5.087357 14,025 296 434 2944
2019-06-15 19:35:00 GMT 56.039307 -5.078945 13,900 296 434 2880
2019-06-15 19:34:54 GMT 56.033581 -5.057144 13,550 295 433 3072
2019-06-15 19:34:51 GMT 56.031483 -5.049076 13,500 295 433 3008
2019-06-15 19:34:48 GMT 56.028992 -5.039312 13,250 295 417 1344
2019-06-15 19:34:45 GMT 56.026978 -5.031572 13,250 295 417 1344
2019-06-15 19:34:41 GMT 56.023315 -5.017423 13,025 295 429 2560
2019-06-15 19:34:38 GMT 56.021393 -5.010015 12,875 295 427 2176
2019-06-15 19:34:34 GMT 56.017982 -4.996891 12,725 295 425 1920
2019-06-15 19:34:31 GMT 56.015533 -4.987377 12,650 295 424 1664
2019-06-15 19:34:28 GMT 56.012489 -4.975605 12,525 296 398 1280
2019-06-15 19:34:24 GMT 56.010040 -4.966236 12,450 295 417 1344
2019-06-15 19:34:21 GMT 56.006252 -4.951572 12,325 295 412 1280
2019-06-15 19:34:17 GMT 56.003925 -4.942646 12,275 296 411 1216
2019-06-15 19:34:13 GMT 56.000427 -4.929199 12,175 296 403 1280
2019-06-15 19:34:10 GMT 55.997955 -4.919877 12,125 296 403 1280
2019-06-15 19:34:07 GMT 55.995621 -4.911222 12,025 296 395 1216
2019-06-15 19:34:03 GMT 55.992874 -4.900901 11,950 296 393 1280
2019-06-15 19:34:00 GMT 55.985825 -4.875183 11,800 296 385 1536
2019-06-15 19:33:55 GMT 55.985825 -4.875183 11,750 296 382 1728
2019-06-15 19:33:50 GMT 55.980881 -4.856815 11,625 296 379 1792
2019-06-15 19:33:47 GMT 55.979645 -4.851962 11,500 296 375 1600
2019-06-15 19:33:44 GMT 55.978508 -4.847803 11,450 296 373 1408
2019-06-15 19:33:41 GMT 55.975616 -4.836981 11,325 300 368 960
2019-06-15 19:33:37 GMT 55.972733 -4.827576 11,275 302 366 896
2019-06-15 19:33:34 GMT 55.970081 -4.819908 11,200 306 364 896
2019-06-15 19:33:30 GMT 55.965660 -4.808922 11,100 311 359 832
2019-06-15 19:33:27 GMT 55.961887 -4.801025 11,050 314 356 768
2019-06-15 19:33:22 GMT 55.956490 -4.791327 10,925 322 347 448
2019-06-15 19:33:19 GMT 55.953510 -4.786863 10,850 325 344 384
2019-06-15 19:33:15 GMT 55.948517 -4.780218 10,875 328 339 448
2019-06-15 19:33:12 GMT 55.942932 -4.774059 10,800 332 333 704
2019-06-15 19:33:09 GMT 55.940102 -4.771328 10,725 334 326 960
2019-06-15 19:33:06 GMT 55.935654 -4.767151 10,700 334 323 1024
2019-06-15 19:33:00 GMT 55.927952 -4.760256 10,600 334 314 1088
2019-06-15 19:32:57 GMT 55.924072 -4.756747 10,500 334 307 1344
2019-06-15 19:32:54 GMT 55.919724 -4.752835 10,500 334 307 1344
2019-06-15 19:32:50 GMT 55.915283 -4.748924 10,325 334 301 2432
2019-06-15 19:32:47 GMT 55.911072 -4.745178 10,225 334 299 2752
2019-06-15 19:32:44 GMT 55.906818 -4.741459 10,050 334 298 3008
2019-06-15 19:32:41 GMT 55.904350 -4.739313 9,950 334 297 3008
2019-06-15 19:32:38 GMT 55.900997 -4.736395 9,875 334 297 3072
2019-06-15 19:32:35 GMT 55.896713 -4.732618 9,675 334 296 3008
2019-06-15 19:32:32 GMT 55.891174 -4.727726 9,425 334 296 3008
2019-06-15 19:32:29 GMT 55.888474 -4.725323 9,325 334 295 3008
2019-06-15 19:32:26 GMT 55.882141 -4.719627 9,175 334 294 3072
2019-06-15 19:32:23 GMT 55.882141 -4.719627 9,025 334 293 3008
2019-06-15 19:32:20 GMT 55.878513 -4.716396 8,925 333 292 3072
2019-06-15 19:32:17 GMT 55.874790 -4.713049 8,825 333 293 3072
2019-06-15 19:32:14 GMT 55.869507 -4.708141 8,525 333 291 3072
2019-06-15 19:32:11 GMT 55.867016 -4.705839 8,425 332 290 3136
2019-06-15 19:32:08 GMT 55.864059 -4.703064 8,350 332 289 3136
2019-06-15 19:32:05 GMT 55.860542 -4.699574 8,050 331 287 3200
2019-06-15 19:32:02 GMT 55.857147 -4.696312 8,025 331 287 3200
2019-06-15 19:31:59 GMT 55.848812 -4.687901 7,750 331 287 3264
2019-06-15 19:31:55 GMT 55.848812 -4.687901 7,500 330 286 3200
2019-06-15 19:31:52 GMT 55.844250 -4.683180 7,400 329 285 3200
2019-06-15 19:31:49 GMT 55.841782 -4.680433 7,325 328 285 3264
2019-06-15 19:31:45 GMT 55.837315 -4.675455 7,000 325 282 3072
2019-06-15 19:31:42 GMT 55.834396 -4.671853 6,925 325 283 3136
2019-06-15 19:31:39 GMT 55.831100 -4.667691 6,800 323 282 3008
2019-06-15 19:31:36 GMT 55.827866 -4.663353 6,700 322 281 3008
2019-06-15 19:31:32 GMT 55.824188 -4.657946 6,450 318 278 3008
2019-06-15 19:31:28 GMT 55.820343 -4.651545 6,300 316 276 3008
2019-06-15 19:31:25 GMT 55.816818 -4.645053 6,050 311 273 3008
2019-06-15 19:31:21 GMT 55.813339 -4.637947 5,975 310 271 3008
2019-06-15 19:31:18 GMT 55.811897 -4.634600 5,800 308 270 2944
2019-06-15 19:31:14 GMT 55.805939 -4.620266 5,475 303 266 2944
2019-06-15 19:31:10 GMT 55.805939 -4.620266 5,300 299 263 2880
2019-06-15 19:31:07 GMT 55.803982 -4.614429 5,250 295 262 2688
2019-06-15 19:31:04 GMT 55.801701 -4.604988 5,050 286 256 2176
2019-06-15 19:30:57 GMT 55.800247 -4.594199 4,900 274 247 1664
2019-06-15 19:30:50 GMT 55.800613 -4.577054 4,625 225 185 960
2019-06-15 19:30:47 GMT 55.800934 -4.573975 4,625 252 231 2112
2019-06-15 19:30:42 GMT 55.803005 -4.564219 4,425 235 222 1984
2019-06-15 19:30:39 GMT 55.804092 -4.561074 4,350 233 222 1984
2019-06-15 19:30:36 GMT 55.805878 -4.556829 4,250 228 220 1920
2019-06-15 19:30:31 GMT 55.809769 -4.549422 4,075 225 214 1216
2019-06-15 19:30:28 GMT 55.811569 -4.546280 4,000 225 213 1088
2019-06-15 19:30:25 GMT 55.813248 -4.543346 3,975 225 210 832
2019-06-15 19:30:19 GMT 55.818508 -4.534264 3,850 225 195 896
2019-06-15 19:30:16 GMT 55.819576 -4.532290 3,825 225 193 896
2019-06-15 19:30:13 GMT 55.822174 -4.527699 3,775 226 169 1920
2019-06-15 19:30:10 GMT 55.823410 -4.525535 3,675 225 182 960
2019-06-15 19:30:06 GMT 55.826248 -4.520624 3,650 225 177 1024
2019-06-15 19:29:56 GMT 55.831356 -4.511604 3,450 226 167 2048
2019-06-15 19:29:53 GMT 55.833252 -4.508140 3,300 227 166 2240
2019-06-15 19:29:46 GMT 55.837463 -4.500233 3,000 227 164 2112
2019-06-15 19:29:43 GMT 55.838852 -4.497614 2,900 226 162 2112
2019-06-15 19:29:38 GMT 55.841263 -4.493159 2,725 227 161 2048
2019-06-15 19:29:33 GMT 55.844158 -4.487829 2,550 228 159 2048
2019-06-15 19:29:28 GMT 55.846161 -4.484003 2,400 228 158 2304
2019-06-15 19:29:24 GMT 55.847927 -4.480534 2,275 229 158 2688
2019-06-15 19:29:18 GMT 55.850967 -4.474432 1,925 230 160 3392
2019-06-15 19:29:15 GMT 55.852707 -4.470853 1,775 230 161 3456
2019-06-15 19:29:06 GMT 55.856644 -4.462780 1,275 229 165 3712
2019-06-15 19:28:57 GMT 55.861523 -4.453239 725 228 169 3584
2019-06-15 19:28:47 GMT 55.866852 -4.442846 0 227 199
2019-06-15 19:28:36 GMT 55.872578 -4.432104 0 227 135
2019-06-15 19:28:26 GMT 55.876328 -4.425077 0 227 86
2019-06-15 19:28:16 GMT 55.878490 -4.421040 0 227 40
2019-06-15 19:28:07 GMT 55.879189 -4.419708 0 230 5
2019-06-15 19:27:56 GMT 55.879292 -4.419572 0 255 2
2019-06-15 19:27:45 GMT 55.879364 -4.419422 0 292 5
2019-06-15 19:27:35 GMT 55.879292 -4.419126 0 315 9
2019-06-15 19:27:25 GMT 55.878944 -4.418607 0 334 12
2019-06-15 19:27:15 GMT 55.878399 -4.418457 0 5 13
2019-06-15 19:27:03 GMT 55.877781 -4.418772 0 30 11
2019-06-15 19:26:54 GMT 55.877483 -4.419167 0 45 8
2019-06-15 19:26:45 GMT 55.877270 -4.419551 0 45 5
2019-06-15 19:26:33 GMT 55.877186 -4.419708 0 47 0
2019-06-15 19:26:13 GMT 55.877174 -4.419708 0 47 0
2019-06-15 19:24:53 GMT 55.877174 -4.419723 0 47 0
2019-06-15 19:23:38 GMT 55.877174 -4.419708 0 47 0
2019-06-15 19:23:23 GMT 55.877174 -4.419723 0 47 0
2019-06-15 19:23:08 GMT 55.877174 -4.419708 0 47 0
2019-06-15 19:22:43 GMT 55.877174 -4.419723 0 47 0
2019-06-15 19:22:33 GMT 55.877174 -4.419708 0 47 0
2019-06-15 19:21:58 GMT 55.877174 -4.419723 0 47 0
2019-06-15 19:21:44 GMT 55.877174 -4.419708 0 47 0
2019-06-15 19:21:28 GMT 55.877174 -4.419723 0 47 0
2019-06-15 19:20:55 GMT 55.877174 -4.419708 0 47 0
2019-06-15 19:20:47 GMT 55.877174 -4.419723 0 47 0
2019-06-15 19:20:38 GMT 55.877174 -4.419708 0 47 0
2019-06-15 19:20:27 GMT 55.877151 -4.419750 0 47 4
2019-06-15 19:20:18 GMT 55.877071 -4.419916 0 47 5
2019-06-15 19:20:08 GMT 55.876923 -4.420208 0 45 6
2019-06-15 19:19:57 GMT 55.876732 -4.420538 0 47 8
2019-06-15 19:19:47 GMT 55.876465 -4.421031 0 47 12
2019-06-15 19:19:37 GMT 55.876080 -4.421761 0 47 14
2019-06-15 19:19:27 GMT 55.875500 -4.422834 0 45 13
2019-06-15 19:19:17 GMT 55.875263 -4.423287 0 45 12
2019-06-15 19:19:07 GMT 55.874928 -4.423907 0 47 11
2019-06-15 19:18:56 GMT 55.874588 -4.424556 0 47 11
2019-06-15 19:18:46 GMT 55.874245 -4.425181 0 45 11
2019-06-15 19:18:36 GMT 55.873928 -4.425709 0 36 9
2019-06-15 19:18:26 GMT 55.873592 -4.426075 0 22 10
2019-06-15 19:18:15 GMT 55.873161 -4.426353 0 19 12
2019-06-15 19:18:05 GMT 55.872665 -4.426658 0 19 11
2019-06-15 19:17:53 GMT 55.872135 -4.427018 0 22 10
2019-06-15 19:17:34 GMT 55.871426 -4.427555 0 19 10
2019-06-15 19:17:25 GMT 55.870995 -4.427823 0 19 10
2019-06-15 19:15:00 GMT 55.867264 -4.437519 0 59 14
2019-06-15 19:14:51 GMT 55.866943 -4.438262 0 45 13
2019-06-15 19:14:41 GMT 55.866528 -4.438992 0 45 12
2019-06-15 19:14:31 GMT 55.866199 -4.439621 0 45 11
2019-06-15 19:14:21 GMT 55.865856 -4.440183 0 22 11
2019-06-15 19:14:11 GMT 55.865376 -4.440162 0 331 11
2019-06-15 19:14:00 GMT 55.864998 -4.439787 0 331 9
2019-06-15 19:13:48 GMT 55.864616 -4.439421 0 329 7
2019-06-15 19:12:16 GMT 55.864395 -4.439185 0 329 0
2019-06-15 19:11:37 GMT 55.864391 -4.439184 0 329 0
2019-06-15 19:11:25 GMT 55.864418 -4.439206 0 329 2
2019-06-15 19:11:18 GMT 55.864452 -4.439270 0 326 2
2019-06-15 19:11:06 GMT 55.864517 -4.439309 0 329 2
2019-06-15 19:10:57 GMT 55.864586 -4.439309 0 340 3
2019-06-15 19:10:47 GMT 55.864689 -4.439267 0 2 4
2019-06-15 19:10:37 GMT 55.864792 -4.439142 0 19 4
We lost coverage of the aircraft here for a total of 71 minutes
2019-06-15 17:59:10 GMT 55.875858 -4.422190 0 225 10 0
2019-06-15 17:59:06 GMT 55.875999 -4.421954 0 222 10 0
2019-06-15 17:58:56 GMT 55.876335 -4.421546 0 194 10 0
2019-06-15 17:58:46 GMT 55.876743 -4.421461 0 168 9 0
2019-06-15 17:58:35 GMT 55.877129 -4.421664 0 149 9 0
2019-06-15 17:58:19 GMT 55.877495 -4.422392 0 92 6 0
2019-06-15 17:58:12 GMT 55.877525 -4.422684 0 67 4 0
2019-06-15 17:57:29 GMT 55.877369 -4.423162 0 45 0 0
2019-06-15 17:56:49 GMT 55.877373 -4.423177 0 45 0 0
2019-06-15 17:55:48 GMT 55.877369 -4.423162 0 45 0 0
2019-06-15 17:55:12 GMT 55.877373 -4.423177 0 45 0 0
2019-06-15 17:53:33 GMT 55.877373 -4.423177 0 45 0 0
2019-06-15 17:52:57 GMT 55.877369 -4.423162 0 45 0 0
2019-06-15 17:52:49 GMT 55.877373 -4.423177 0 45 0 0
2019-06-15 17:52:35 GMT 55.877369 -4.423162 0 45 0 0
2019-06-15 17:52:16 GMT 55.877373 -4.423177 0 45 0 0
2019-06-15 17:52:05 GMT 55.877254 -4.423370 0 47 19 0
2019-06-15 17:51:58 GMT 55.876762 -4.424307 0 47 33 0
2019-06-15 17:51:48 GMT 55.875629 -4.426429 0 45 49 0
2019-06-15 17:51:37 GMT 55.873871 -4.429657 0 47 82 0
2019-06-15 17:51:27 GMT 55.870537 -4.435896 0 47 140 0
2019-06-15 17:51:16 GMT 55.865845 -4.444636 175 46 157 -320
2019-06-15 17:51:07 GMT 55.860535 -4.454623 300 46 162 -768
2019-06-15 17:50:56 GMT 55.855469 -4.464140 425 46 161 -960
2019-06-15 17:50:46 GMT 55.850021 -4.474354 600 46 164 -1088
2019-06-15 17:50:35 GMT 55.844669 -4.484482 750 45 164 -960
2019-06-15 17:50:24 GMT 55.838974 -4.495073 925 46 165 -960
2019-06-15 17:50:20 GMT 55.836151 -4.500360 1,000 45 164 -960
2019-06-15 17:50:15 GMT 55.833218 -4.505596 1,075 45 166 -896
2019-06-15 17:50:11 GMT 55.831650 -4.508473 1,125 45 166 -896
2019-06-15 17:50:05 GMT 55.825607 -4.519376 1,225 45 167 -896
2019-06-15 17:50:01 GMT 55.825607 -4.519376 1,275 45 168 -896
2019-06-15 17:49:56 GMT 55.823547 -4.523204 1,350 45 166 -960
2019-06-15 17:49:53 GMT 55.822266 -4.525535 1,375 45 166 -960
2019-06-15 17:49:50 GMT 55.820343 -4.529031 1,425 46 166 -896
2019-06-15 17:49:44 GMT 55.817596 -4.534108 1,525 46 166 -832
2019-06-15 17:49:39 GMT 55.814968 -4.539156 1,575 47 169 -896
2019-06-15 17:49:34 GMT 55.809219 -4.550587 1,700 49 173 -1024
2019-06-15 17:49:30 GMT 55.809219 -4.550587 1,775 49 172 -896
2019-06-15 17:49:24 GMT 55.804047 -4.561240 1,900 47 165 -960
2019-06-15 17:49:19 GMT 55.804047 -4.561240 1,925 47 166 -1024
2019-06-15 17:49:15 GMT 55.801666 -4.565818 2,000 47 169 -832
2019-06-15 17:49:12 GMT 55.800491 -4.567995 2,025 47 169 -768
2019-06-15 17:49:08 GMT 55.798676 -4.571686 2,075 51 173 -768
2019-06-15 17:49:04 GMT 55.796722 -4.576149 2,150 55 173 -512
2019-06-15 17:48:58 GMT 55.793926 -4.583788 2,225 63 170 -704
2019-06-15 17:48:54 GMT 55.792625 -4.588423 2,275 65 168 -704
2019-06-15 17:48:48 GMT 55.790680 -4.596696 2,350 68 169 -832
2019-06-15 17:48:44 GMT 55.789597 -4.601727 2,425 69 170 -768
2019-06-15 17:48:37 GMT 55.787411 -4.611597 2,500 69 171 -640
2019-06-15 17:48:34 GMT 55.786697 -4.615007 2,525 69 171 -704
2019-06-15 17:48:26 GMT 55.784225 -4.626409 2,650 69 174 -896
2019-06-15 17:48:23 GMT 55.783905 -4.627991 2,650 69 174 -960
2019-06-15 17:48:13 GMT 55.780930 -4.642389 2,850 70 174 -1472
2019-06-15 17:48:06 GMT 55.779171 -4.651337 3,050 71 177 -1600
2019-06-15 17:48:03 GMT 55.778286 -4.655972 3,125 71 178 -1536
2019-06-15 17:48:00 GMT 55.777405 -4.660700 3,225 71 179 -1536
2019-06-15 17:47:56 GMT 55.776031 -4.668107 3,350 71 183 -1344
2019-06-15 17:47:52 GMT 55.775620 -4.670271 3,400 71 184 -1408
2019-06-15 17:47:43 GMT 55.772873 -4.684753 3,625 70 191 -1280
2019-06-15 17:47:39 GMT 55.771729 -4.690496 3,725 71 194 -1024
2019-06-15 17:47:33 GMT 55.769943 -4.700401 3,825 75 196 -960
2019-06-15 17:47:25 GMT 55.768570 -4.715132 4,025 92 195 -704
2019-06-15 17:47:22 GMT 55.768570 -4.715798 4,025 92 195 -704
2019-06-15 17:47:18 GMT 55.769073 -4.723122 4,125 105 192 -768
2019-06-15 17:47:15 GMT 55.769768 -4.726954 4,175 116 190 -1152
2019-06-15 17:47:12 GMT 55.771118 -4.732103 4,250 123 188 -1408
2019-06-15 17:47:08 GMT 55.772919 -4.736772 4,350 133 186 -1216
2019-06-15 17:47:02 GMT 55.776611 -4.743433 4,475 139 186 -1216
2019-06-15 17:46:58 GMT 55.780014 -4.748674 4,600 139 185 -1280
2019-06-15 17:46:52 GMT 55.783592 -4.754076 4,700 139 185 -1280
2019-06-15 17:46:47 GMT 55.786102 -4.757912 4,800 138 185 -1216
2019-06-15 17:46:44 GMT 55.788437 -4.761574 4,900 138 185 -1088
2019-06-15 17:46:41 GMT 55.789970 -4.763947 4,875 138 185 -1088
2019-06-15 17:46:35 GMT 55.794159 -4.770298 5,200 139 186 -1024
2019-06-15 17:46:31 GMT 55.796768 -4.774332 5,100 139 187 -704
2019-06-15 17:46:27 GMT 55.799561 -4.778624 5,150 139 188 -896
2019-06-15 17:46:21 GMT 55.803360 -4.784379 5,250 139 190 -832
2019-06-15 17:46:18 GMT 55.805428 -4.787550 5,275 138 193 -704
2019-06-15 17:46:15 GMT 55.807987 -4.791584 5,325 138 193 -704
2019-06-15 17:46:11 GMT 55.810036 -4.794674 5,375 139 194 -640
2019-06-15 17:46:08 GMT 55.812515 -4.798528 5,400 139 195 -640
2019-06-15 17:46:04 GMT 55.814503 -4.801540 5,425 139 196 -640
2019-06-15 17:46:00 GMT 55.817642 -4.806269 5,475 139 197 -768
2019-06-15 17:45:57 GMT 55.819672 -4.809351 5,525 139 200 -704
2019-06-15 17:45:52 GMT 55.823257 -4.814844 5,600 139 203 -576
2019-06-15 17:45:49 GMT 55.825768 -4.818707 5,625 139 206 -384
2019-06-15 17:45:44 GMT 55.828796 -4.823341 5,650 139 211 0
2019-06-15 17:45:41 GMT 55.831238 -4.826993 5,675 139 213 -64
2019-06-15 17:45:38 GMT 55.838524 -4.838104 5,675 139 219 -384
2019-06-15 17:45:32 GMT 55.838524 -4.838104 5,700 139 222 -384
2019-06-15 17:45:26 GMT 55.842682 -4.844388 5,725 139 227 -704
2019-06-15 17:45:22 GMT 55.846348 -4.849949 5,800 139 227 -704
2019-06-15 17:45:16 GMT 55.850208 -4.855700 5,850 140 229 -768
2019-06-15 17:45:13 GMT 55.853394 -4.860368 5,900 140 230 -832
2019-06-15 17:45:09 GMT 55.856262 -4.864626 5,925 139 231 -832
2019-06-15 17:45:06 GMT 55.859055 -4.868832 6,025 139 232 -960
2019-06-15 17:45:03 GMT 55.861679 -4.872769 6,075 140 233 -704
2019-06-15 17:45:00 GMT 55.863647 -4.875682 6,100 140 234 -512
2019-06-15 17:44:57 GMT 55.866257 -4.879511 6,150 140 233 -256
2019-06-15 17:44:53 GMT 55.869644 -4.884505 6,175 140 233 -128
2019-06-15 17:44:50 GMT 55.872116 -4.888250 6,175 139 231 64
2019-06-15 17:44:47 GMT 55.875000 -4.892495 6,175 140 231 64
2019-06-15 17:44:42 GMT 55.878250 -4.897405 6,150 140 232 0
2019-06-15 17:44:39 GMT 55.881725 -4.902563 6,150 140 236 64
2019-06-15 17:44:34 GMT 55.885681 -4.908314 6,150 140 240 128
2019-06-15 17:44:31 GMT 55.888569 -4.912605 6,150 140 242 0
2019-06-15 17:44:28 GMT 55.890289 -4.915094 6,150 139 243 -64
2019-06-15 17:44:25 GMT 55.893036 -4.919128 6,150 138 245 -256
2019-06-15 17:44:22 GMT 55.895691 -4.923248 6,175 136 249 -576
2019-06-15 17:44:18 GMT 55.899136 -4.928913 6,225 135 250 -1152
2019-06-15 17:44:10 GMT 55.905670 -4.939936 6,325 136 251 -1280
2019-06-15 17:44:07 GMT 55.908920 -4.945512 6,400 136 250 -1216
2019-06-15 17:44:02 GMT 55.912357 -4.951401 6,500 136 250 -1216
2019-06-15 17:43:59 GMT 55.914871 -4.955666 6,550 136 250 -1216
2019-06-15 17:43:56 GMT 55.917801 -4.960660 6,575 136 250 -1152
2019-06-15 17:43:50 GMT 55.922459 -4.968309 6,725 136 249 -1088
2019-06-15 17:43:47 GMT 55.925903 -4.974143 6,825 136 250 -1344
2019-06-15 17:43:42 GMT 55.929977 -4.981135 6,925 136 249 -1408
2019-06-15 17:43:39 GMT 55.931625 -4.983964 6,950 135 250 -1344
2019-06-15 17:43:35 GMT 55.935028 -4.989853 7,025 135 250 -1408
2019-06-15 17:43:32 GMT 55.937439 -4.994035 7,200 136 248 -1152
2019-06-15 17:43:29 GMT 55.940598 -4.999362 7,200 136 248 -1152
2019-06-15 17:43:26 GMT 55.942108 -5.001942 7,350 136 247 -1408
2019-06-15 17:43:21 GMT 55.946548 -5.009516 7,325 136 247 -1408
2019-06-15 17:43:17 GMT 55.949615 -5.014759 7,425 136 248 -896
2019-06-15 17:43:14 GMT 55.952858 -5.020237 7,450 136 248 -1216
2019-06-15 17:43:11 GMT 55.955246 -5.024331 7,575 135 248 -832
2019-06-15 17:43:08 GMT 55.957626 -5.028492 7,600 135 248 -640
2019-06-15 17:43:05 GMT 55.960026 -5.032597 7,625 135 248 -1152
2019-06-15 17:42:59 GMT 55.964634 -5.040579 7,725 135 249 -1152
2019-06-15 17:42:56 GMT 55.967606 -5.045721 7,800 135 251 -1024
2019-06-15 17:42:50 GMT 55.972549 -5.054294 7,950 136 254 -1280
2019-06-15 17:42:47 GMT 55.977814 -5.063199 8,075 136 256 -1216
2019-06-15 17:42:39 GMT 55.981396 -5.069332 8,150 136 256 -1344
2019-06-15 17:42:36 GMT 55.983902 -5.073520 8,200 136 256 -1344
2019-06-15 17:42:33 GMT 55.987106 -5.078846 8,250 136 256 -1216
2019-06-15 17:42:30 GMT 55.990192 -5.084095 8,475 136 256 -1216
2019-06-15 17:42:27 GMT 55.992599 -5.088168 8,425 136 256 -1216
2019-06-15 17:42:23 GMT 55.996105 -5.094051 8,500 136 256 -1280
2019-06-15 17:42:18 GMT 56.004158 -5.107784 8,650 135 256 -1280
2019-06-15 17:42:13 GMT 56.004158 -5.107784 8,700 135 256 -1344
2019-06-15 17:42:10 GMT 56.006626 -5.112076 8,775 136 256 -1408
2019-06-15 17:42:07 GMT 56.008720 -5.115681 8,825 136 256 -1280
2019-06-15 17:42:04 GMT 56.011654 -5.120659 9,725 136 266 -384
2019-06-15 17:41:59 GMT 56.015533 -5.127369 8,975 136 256 -832
2019-06-15 17:41:56 GMT 56.021027 -5.136774 9,075 135 297 -512
2019-06-15 17:41:50 GMT 56.023663 -5.141172 9,100 136 261 -576
2019-06-15 17:41:47 GMT 56.026337 -5.145763 9,100 136 263 -832
2019-06-15 17:41:43 GMT 56.029999 -5.152089 9,725 136 266 -384
2019-06-15 17:41:37 GMT 56.034882 -5.160570 9,300 135 262 -1280
2019-06-15 17:41:34 GMT 56.037769 -5.165548 9,575 136 261 -1344
2019-06-15 17:41:29 GMT 56.041855 -5.172563 9,475 136 261 -1344
2019-06-15 17:41:26 GMT 56.044193 -5.176620 9,500 136 261 -1344
2019-06-15 17:41:23 GMT 56.050415 -5.187128 9,675 136 261 -1344
2019-06-15 17:41:19 GMT 56.050415 -5.187128 9,775 136 261 -1344
2019-06-15 17:41:15 GMT 56.053619 -5.192455 9,775 136 261 -1344
2019-06-15 17:41:12 GMT 56.056763 -5.197821 9,900 136 262 -1152
2019-06-15 17:41:07 GMT 56.063419 -5.209150 9,975 136 264 -704
2019-06-15 17:41:01 GMT 56.066399 -5.214300 10,025 136 265 -448
2019-06-15 17:40:58 GMT 56.068817 -5.218423 10,050 135 267 -320
2019-06-15 17:40:55 GMT 56.074871 -5.228891 10,075 135 273 -320
2019-06-15 17:40:48 GMT 56.078247 -5.234736 10,100 135 275 -320
2019-06-15 17:40:45 GMT 56.080318 -5.238333 10,125 135 277 -320
2019-06-15 17:40:42 GMT 56.082870 -5.242809 10,225 135 289 -384
2019-06-15 17:40:36 GMT 56.089024 -5.253439 10,175 136 283 -256
2019-06-15 17:40:33 GMT 56.092606 -5.259619 10,200 135 286 -320
2019-06-15 17:40:30 GMT 56.095585 -5.264683 10,225 135 288 -320
2019-06-15 17:40:26 GMT 56.098160 -5.269193 10,250 135 292 -448
2019-06-15 17:40:23 GMT 56.101364 -5.274686 10,275 135 293 -512
2019-06-15 17:40:20 GMT 56.103882 -5.279097 10,300 135 296 -576
2019-06-15 17:40:17 GMT 56.107315 -5.285006 10,325 135 297 -448
2019-06-15 17:40:14 GMT 56.110291 -5.290167 10,350 135 299 -448
2019-06-15 17:40:11 GMT 56.113220 -5.295160 10,400 135 302 -320
2019-06-15 17:40:07 GMT 56.117512 -5.302620 10,425 135 308 -256
2019-06-15 17:40:04 GMT 56.120167 -5.307169 10,425 135 308 -256
2019-06-15 17:40:01 GMT 56.125259 -5.316051 10,525 135 316 -512
2019-06-15 17:39:55 GMT 56.129517 -5.323459 10,500 135 316 -512
2019-06-15 17:39:52 GMT 56.133480 -5.330343 10,525 135 318 -512
2019-06-15 17:39:49 GMT 56.136429 -5.335527 10,550 135 321 -384
2019-06-15 17:39:44 GMT 56.140881 -5.343218 10,600 135 323 -384
2019-06-15 17:39:41 GMT 56.144028 -5.348594 10,675 135 336 -320
2019-06-15 17:39:36 GMT 56.150517 -5.359869 10,675 135 330 -448
2019-06-15 17:39:33 GMT 56.152843 -5.363817 10,700 135 331 -384
2019-06-15 17:39:29 GMT 56.158447 -5.373646 10,725 135 333 -384
2019-06-15 17:39:24 GMT 56.162750 -5.381470 10,750 135 339 -256
2019-06-15 17:39:21 GMT 56.166870 -5.388544 10,775 135 342 -256
2019-06-15 17:39:17 GMT 56.170395 -5.394703 10,800 135 345 -256
2019-06-15 17:39:14 GMT 56.174423 -5.401611 10,825 136 348 -512
2019-06-15 17:39:10 GMT 56.178497 -5.408621 10,925 136 352 -768
2019-06-15 17:39:06 GMT 56.184677 -5.419339 10,950 136 355 -1024
2019-06-15 17:39:03 GMT 56.187653 -5.424416 11,000 135 356 -1216
2019-06-15 17:39:00 GMT 56.190720 -5.429743 11,575 135 361 -1856
2019-06-15 17:38:57 GMT 56.194427 -5.436152 11,125 135 359 -1728
2019-06-15 17:38:53 GMT 56.198559 -5.443382 11,200 135 359 -1856
2019-06-15 17:38:48 GMT 56.206196 -5.456686 11,450 135 361 -1856
2019-06-15 17:38:43 GMT 56.211224 -5.465527 11,575 135 362 -1856
2019-06-15 17:38:40 GMT 56.216621 -5.474968 11,725 135 363 -1920
2019-06-15 17:38:35 GMT 56.220951 -5.482521 11,900 135 364 -2048
2019-06-15 17:38:32 GMT 56.223724 -5.487338 11,900 135 364 -2048
2019-06-15 17:38:27 GMT 56.231827 -5.501487 12,150 136 366 -1984
2019-06-15 17:38:24 GMT 56.234756 -5.506481 12,225 136 367 -1984
2019-06-15 17:38:21 GMT 56.237339 -5.510931 12,300 136 367 -1984
2019-06-15 17:38:18 GMT 56.242226 -5.519342 12,350 136 367 -1984
2019-06-15 17:38:15 GMT 56.245651 -5.525208 12,575 136 367 -2048
2019-06-15 17:38:06 GMT 56.259125 -5.548611 12,925 135 370 -2048
2019-06-15 17:38:02 GMT 56.260242 -5.550499 12,925 135 370 -2048
2019-06-15 17:37:59 GMT 56.265060 -5.558832 13,200 135 371 -2048
2019-06-15 17:37:53 GMT 56.273163 -5.573065 13,325 135 373 -2112
2019-06-15 17:37:49 GMT 56.283100 -5.590668 13,675 135 374 -2112
2019-06-15 17:37:44 GMT 56.283100 -5.590668 13,675 135 374 -2112
2019-06-15 17:37:41 GMT 56.286915 -5.597448 13,725 135 374 -2176
2019-06-15 17:37:36 GMT 56.292618 -5.607522 13,800 135 375 -2176
2019-06-15 17:37:31 GMT 56.299950 -5.620365 14,100 135 376 -2112
2019-06-15 17:37:28 GMT 56.303925 -5.627330 14,225 135 377 -2112
2019-06-15 17:37:21 GMT 56.311821 -5.641136 14,450 135 378 -2240
2019-06-15 17:37:17 GMT 56.316292 -5.649033 14,575 135 379 -2240
2019-06-15 17:37:12 GMT 56.325348 -5.664867 14,850 136 380 -2240
2019-06-15 17:37:08 GMT 56.328907 -5.671005 14,875 136 380 -2240
2019-06-15 17:37:02 GMT 56.335609 -5.682678 15,150 135 381 -2240
2019-06-15 17:36:59 GMT 56.339661 -5.689716 15,250 135 381 -2304
2019-06-15 17:36:56 GMT 56.342560 -5.694830 16,775 135 393 -1408
2019-06-15 17:36:52 GMT 56.348145 -5.704568 15,500 135 383 -2368
2019-06-15 17:36:49 GMT 56.352951 -5.712974 16,775 135 393 -1408
2019-06-15 17:36:46 GMT 56.355469 -5.717468 16,775 135 393 -1408
2019-06-15 17:36:41 GMT 56.361649 -5.728455 15,900 135 383 -2304
2019-06-15 17:36:38 GMT 56.366333 -5.736752 16,100 135 383 -2304
2019-06-15 17:36:35 GMT 56.369247 -5.741938 16,175 135 384 -2368
2019-06-15 17:36:31 GMT 56.374832 -5.751759 16,350 135 384 -2368
2019-06-15 17:36:26 GMT 56.381973 -5.764327 16,575 135 386 -2368
2019-06-15 17:36:21 GMT 56.387558 -5.774148 17,000 135 386 -2496
2019-06-15 17:36:18 GMT 56.392494 -5.782928 16,900 135 386 -2496
2019-06-15 17:36:15 GMT 56.394928 -5.787215 17,000 135 386 -2496
2019-06-15 17:36:10 GMT 56.400829 -5.797606 17,200 135 387 -2432
2019-06-15 17:36:07 GMT 56.406555 -5.807689 17,375 135 386 -2432
2019-06-15 17:36:04 GMT 56.408615 -5.811268 17,425 136 387 -2432
2019-06-15 17:36:00 GMT 56.413631 -5.820007 17,575 135 387 -2496
2019-06-15 17:35:55 GMT 56.421478 -5.833823 17,850 135 388 -2560
2019-06-15 17:35:50 GMT 56.426834 -5.843312 18,000 135 388 -2560
2019-06-15 17:35:46 GMT 56.432949 -5.854254 18,225 135 388 -2496
2019-06-15 17:35:43 GMT 56.435394 -5.858543 18,300 135 388 -2432
2019-06-15 17:35:40 GMT 56.439701 -5.866356 18,400 135 388 -2432
2019-06-15 17:35:34 GMT 56.447987 -5.881119 18,750 135 394 -1088
2019-06-15 17:35:29 GMT 56.453106 -5.890217 18,825 135 388 -2368
2019-06-15 17:35:26 GMT 56.461815 -5.905752 19,050 135 389 -2368
2019-06-15 17:35:23 GMT 56.461815 -5.905752 19,150 135 389 -2304
2019-06-15 17:35:19 GMT 56.466843 -5.914556 19,300 135 390 -2112
2019-06-15 17:35:16 GMT 56.474716 -5.928456 19,450 135 391 -1856
2019-06-15 17:35:10 GMT 56.478699 -5.935530 19,600 135 392 -1536
2019-06-15 17:35:03 GMT 56.491791 -5.958796 19,825 135 394 -1088
2019-06-15 17:34:59 GMT 56.491791 -5.958796 19,825 135 394 -1024
2019-06-15 17:34:55 GMT 56.499195 -5.971928 19,925 135 393 -704
2019-06-15 17:34:52 GMT 56.505524 -5.983171 19,975 135 392 -256
2019-06-15 17:34:45 GMT 56.510834 -5.992543 20,000 135 391 64
2019-06-15 17:34:42 GMT 56.515347 -6.000595 20,000 135 390 0
2019-06-15 17:34:39 GMT 56.518421 -6.006088 20,000 135 390 -64
2019-06-15 17:34:32 GMT 56.528824 -6.024669 20,000 135 390 0
2019-06-15 17:34:29 GMT 56.531639 -6.029692 20,000 135 390 0
2019-06-15 17:34:23 GMT 56.539230 -6.043167 20,000 135 391 0
2019-06-15 17:34:19 GMT 56.544205 -6.052135 20,000 135 390 0
2019-06-15 17:34:13 GMT 56.551392 -6.065036 20,000 135 390 0
2019-06-15 17:34:08 GMT 56.557892 -6.076771 20,000 135 389 0
2019-06-15 17:34:04 GMT 56.564163 -6.087924 20,000 135 390 0
2019-06-15 17:34:01 GMT 56.567368 -6.093667 20,000 135 389 0
2019-06-15 17:33:58 GMT 56.570839 -6.099901 20,000 135 389 0
2019-06-15 17:33:54 GMT 56.576191 -6.109428 20,000 135 389 0
2019-06-15 17:33:51 GMT 56.581310 -6.118612 20,000 135 389 0
2019-06-15 17:33:48 GMT 56.583481 -6.122464 20,000 135 389 0
2019-06-15 17:33:44 GMT 56.589367 -6.133032 20,000 135 389 0
2019-06-15 17:33:41 GMT 56.593601 -6.140560 20,000 135 389 0
2019-06-15 17:33:38 GMT 56.596813 -6.146319 20,000 135 389 0
2019-06-15 17:33:34 GMT 56.604630 -6.160240 20,000 135 390 0
2019-06-15 17:33:28 GMT 56.609474 -6.169000 20,000 135 390 0
2019-06-15 17:33:23 GMT 56.615616 -6.179981 20,000 135 390 0
2019-06-15 17:33:18 GMT 56.622276 -6.191948 20,000 135 391 0
2019-06-15 17:33:15 GMT 56.626934 -6.200187 20,000 135 391 0
2019-06-15 17:33:12 GMT 56.629349 -6.204615 19,975 135 391 0
2019-06-15 17:33:07 GMT 56.636524 -6.217464 20,000 135 390 0
2019-06-15 17:33:02 GMT 56.642296 -6.227830 20,000 135 391 0
2019-06-15 17:32:56 GMT 56.649857 -6.241436 20,000 135 391 0
2019-06-15 17:32:52 GMT 56.655212 -6.251135 20,000 135 391 0
2019-06-15 17:32:46 GMT 56.662903 -6.265039 20,000 135 391 0
2019-06-15 17:32:41 GMT 56.669064 -6.276117 20,000 135 391 0
2019-06-15 17:32:38 GMT 56.674072 -6.285124 20,000 135 391 0
2019-06-15 17:32:35 GMT 56.677258 -6.290913 20,000 135 391 0
2019-06-15 17:32:30 GMT 56.683540 -6.302254 20,000 135 391 0
2019-06-15 17:32:27 GMT 56.687778 -6.309874 20,000 135 391 0
2019-06-15 17:32:20 GMT 56.702225 -6.335936 20,000 135 390 64
2019-06-15 17:32:15 GMT 56.702225 -6.335936 20,000 135 391 0
2019-06-15 17:32:09 GMT 56.710419 -6.350784 19,975 135 391 0
2019-06-15 17:32:06 GMT 56.715317 -6.359539 20,000 135 391 0
2019-06-15 17:32:02 GMT 56.720551 -6.368969 19,975 135 391 0
2019-06-15 17:31:59 GMT 56.724880 -6.376855 19,975 135 391 0
2019-06-15 17:31:55 GMT 56.728699 -6.383854 20,000 135 391 0
2019-06-15 17:31:50 GMT 56.734982 -6.395195 20,000 135 391 0
2019-06-15 17:31:46 GMT 56.740311 -6.404943 20,000 135 391 0
2019-06-15 17:31:40 GMT 56.747738 -6.418408 20,000 135 391 0
2019-06-15 17:31:36 GMT 56.752949 -6.427977 20,000 135 391 0
2019-06-15 17:31:30 GMT 56.760361 -6.441422 20,000 135 391 0
2019-06-15 17:31:25 GMT 56.766129 -6.451807 20,000 135 391 -64
2019-06-15 17:31:19 GMT 56.773773 -6.465712 20,000 135 390 0
2019-06-15 17:31:16 GMT 56.780045 -6.477127 20,000 135 390 0
2019-06-15 17:31:09 GMT 56.786888 -6.489642 20,000 135 390 0
2019-06-15 17:31:04 GMT 56.792999 -6.500816 20,000 135 390 0
2019-06-15 17:30:59 GMT 56.799774 -6.513090 20,000 135 390 0
2019-06-15 17:30:55 GMT 56.805084 -6.522875 20,000 135 390 0
2019-06-15 17:30:48 GMT 56.813515 -6.538194 20,000 135 390 0
2019-06-15 17:30:45 GMT 56.818077 -6.546523 20,000 135 390 0
2019-06-15 17:30:38 GMT 56.826370 -6.561670 20,000 135 390 0
2019-06-15 17:30:33 GMT 56.832973 -6.573723 20,000 135 390 0
2019-06-15 17:30:28 GMT 56.839584 -6.585861 20,000 135 390 0
2019-06-15 17:30:24 GMT 56.844051 -6.594012 20,000 135 390 0
2019-06-15 17:30:18 GMT 56.852463 -6.609306 20,000 135 391 0
2019-06-15 17:30:14 GMT 56.856949 -6.617460 20,000 135 390 0
2019-06-15 17:30:07 GMT 56.865738 -6.633425 20,000 135 390 0
2019-06-15 17:30:04 GMT 56.877090 -6.654110 20,000 135 390 0
2019-06-15 17:29:59 GMT 56.877090 -6.654110 20,000 135 390 0
2019-06-15 17:29:54 GMT 56.882973 -6.664803 20,000 135 390 0
2019-06-15 17:29:48 GMT 56.890606 -6.678713 20,000 135 390 0
2019-06-15 17:29:44 GMT 56.903503 -6.702175 20,000 135 389 0
2019-06-15 17:29:39 GMT 56.905426 -6.705694 20,000 135 389 0
2019-06-15 17:29:36 GMT 56.911274 -6.716368 20,000 135 390 0
2019-06-15 17:29:32 GMT 56.911274 -6.716368 20,000 135 390 0
2019-06-15 17:29:26 GMT 56.918427 -6.729383 20,000 135 389 0
2019-06-15 17:29:21 GMT 56.924423 -6.740284 20,000 135 389 0
2019-06-15 17:29:15 GMT 56.931946 -6.754022 20,000 135 389 0
2019-06-15 17:29:11 GMT 56.939068 -6.766958 20,000 135 389 0
2019-06-15 17:29:05 GMT 56.944290 -6.776505 20,000 135 390 0
2019-06-15 17:29:00 GMT 56.957794 -6.801138 20,000 135 389 0
2019-06-15 17:28:55 GMT 56.957794 -6.801138 20,000 135 389 0
2019-06-15 17:28:52 GMT 56.962006 -6.808777 20,000 135 389 0
2019-06-15 17:28:45 GMT 56.970909 -6.825079 20,000 134 389 0
2019-06-15 17:28:42 GMT 56.974457 -6.831608 20,000 134 389 0
2019-06-15 17:28:34 GMT 56.983841 -6.848860 20,000 134 389 0
2019-06-15 17:28:31 GMT 56.988281 -6.857014 20,000 134 389 0
2019-06-15 17:28:24 GMT 56.996796 -6.872635 20,000 134 389 0
2019-06-15 17:28:21 GMT 57.001446 -6.881251 20,000 134 389 0
2019-06-15 17:28:12 GMT 57.012772 -6.902418 20,000 134 389 0
2019-06-15 17:28:03 GMT 57.037849 -6.949739 20,000 133 387 0
2019-06-15 17:27:52 GMT 57.037849 -6.949739 20,000 133 386 0
2019-06-15 17:27:48 GMT 57.043903 -6.961256 20,000 133 384 -64
2019-06-15 17:27:42 GMT 57.049988 -6.973143 20,000 132 383 -128
2019-06-15 17:27:35 GMT 57.057449 -6.987906 20,000 132 380 -192
2019-06-15 17:27:30 GMT 57.064178 -7.001467 20,000 132 377 -192
2019-06-15 17:27:21 GMT 57.074627 -7.022922 20,000 130 363 -64
2019-06-15 17:27:12 GMT 57.084091 -7.043266 20,000 129 359 0
2019-06-15 17:27:02 GMT 57.094849 -7.067385 20,000 129 359 0
2019-06-15 17:26:51 GMT 57.105789 -7.092190 20,000 129 358 -64
2019-06-15 17:26:41 GMT 57.116226 -7.115707 20,000 129 355 -64
2019-06-15 17:26:31 GMT 57.126858 -7.139873 20,000 129 354 0
2019-06-15 17:26:21 GMT 57.137287 -7.163618 20,000 128 352 -64
2019-06-15 17:26:10 GMT 57.147903 -7.187891 20,025 128 353 -192
2019-06-15 17:26:00 GMT 57.157928 -7.210894 20,075 128 357 -1088
2019-06-15 17:25:54 GMT 57.165218 -7.227409 20,250 129 359 -1792
2019-06-15 17:25:50 GMT 57.168777 -7.235441 20,350 129 359 -1856
2019-06-15 17:25:40 GMT 57.179417 -7.259482 20,650 129 361 -1856
2019-06-15 17:25:29 GMT 57.190636 -7.285087 21,000 128 364 -1728
2019-06-15 17:25:22 GMT 57.198360 -7.302807 21,200 128 366 -1664
2019-06-15 17:25:19 GMT 57.201874 -7.310801 21,300 128 367 -1664
2019-06-15 17:25:13 GMT 57.208370 -7.325577 21,475 129 369 -1792
2019-06-15 17:25:08 GMT 57.212997 -7.336121 21,600 128 370 -1856
2019-06-15 17:25:02 GMT 57.219223 -7.350283 21,775 128 371 -1856
2019-06-15 17:24:58 GMT 57.224293 -7.361814 21,925 128 372 -1920
2019-06-15 17:24:53 GMT 57.230942 -7.377148 22,125 128 373 -1856
2019-06-15 17:24:47 GMT 57.235371 -7.387242 22,275 128 373 -1856
2019-06-15 17:24:42 GMT 57.241329 -7.400887 22,425 128 374 -1792
2019-06-15 17:24:37 GMT 57.246635 -7.413025 22,600 128 376 -1792
2019-06-15 17:24:32 GMT 57.252548 -7.426492 22,750 128 377 -1856
2019-06-15 17:24:27 GMT 57.257343 -7.437567 22,900 128 378 -1856
2019-06-15 17:24:21 GMT 57.263809 -7.452335 23,075 128 379 -1920
2019-06-15 17:24:17 GMT 57.269073 -7.464413 23,250 128 380 -1920
2019-06-15 17:24:11 GMT 57.275208 -7.478600 23,425 128 381 -1920
2019-06-15 17:24:06 GMT 57.280151 -7.490015 23,575 128 382 -1920
2019-06-15 17:24:01 GMT 57.286011 -7.503490 23,750 128 383 -1920
2019-06-15 17:23:56 GMT 57.291981 -7.517218 23,925 128 384 -1984
2019-06-15 17:23:51 GMT 57.297638 -7.530270 24,100 128 384 -2048
2019-06-15 17:23:45 GMT 57.303898 -7.544595 24,300 128 386 -2176
2019-06-15 17:23:41 GMT 57.308762 -7.555933 24,450 128 386 -2176
2019-06-15 17:23:34 GMT 57.315765 -7.572149 24,700 128 387 -2176
2019-06-15 17:23:30 GMT 57.320297 -7.582798 24,850 128 388 -2112
2019-06-15 17:23:24 GMT 57.326935 -7.598419 25,050 128 388 -2112
2019-06-15 17:23:20 GMT 57.331268 -7.608564 25,200 128 388 -2112
2019-06-15 17:23:14 GMT 57.338058 -7.624512 25,425 128 389 -2176
2019-06-15 17:23:10 GMT 57.342396 -7.634612 25,575 128 390 -2176
2019-06-15 17:23:04 GMT 57.349777 -7.651463 25,825 129 390 -2240
2019-06-15 17:22:54 GMT 57.361435 -7.677760 26,225 129 391 -2432
2019-06-15 17:22:43 GMT 57.372887 -7.704517 26,650 127 392 -2560
2019-06-15 17:22:33 GMT 57.384617 -7.732514 27,150 130 389 -3008
2019-06-15 17:22:23 GMT 57.397110 -7.756777 27,675 137 386 -2944
2019-06-15 17:22:12 GMT 57.411438 -7.779007 28,175 144 384 -2624
2019-06-15 17:22:02 GMT 57.426727 -7.798147 28,600 150 384 -2496
2019-06-15 17:21:51 GMT 57.443573 -7.814455 29,050 157 386 -2368
2019-06-15 17:21:48 GMT 57.449280 -7.818987 29,175 161 388 -2368
2019-06-15 17:21:41 GMT 57.460556 -7.826471 29,450 163 388 -2368
2019-06-15 17:21:37 GMT 57.467789 -7.830505 29,600 167 391 -2240
2019-06-15 17:21:31 GMT 57.485550 -7.837887 29,950 171 395 -2048
2019-06-15 17:21:18 GMT 57.501480 -7.841234 30,225 178 402 -1600
2019-06-15 17:21:09 GMT 57.518326 -7.842007 30,450 183 408 -1472
2019-06-15 17:20:59 GMT 57.536407 -7.839518 30,650 189 418 -1664
2019-06-15 17:20:48 GMT 57.556862 -7.832189 30,925 196 428 -2240
2019-06-15 17:20:38 GMT 57.576233 -7.820807 31,275 202 434 -2624
2019-06-15 17:20:31 GMT 57.589874 -7.810421 31,575 206 440 -3264
2019-06-15 17:20:25 GMT 57.599270 -7.801799 31,825 210 441 -3456
2019-06-15 17:20:17 GMT 57.613724 -7.785959 32,225 215 444 -3264
2019-06-15 17:20:05 GMT 57.633625 -7.757588 32,700 223 453 -2432
2019-06-15 17:19:56 GMT 57.645451 -7.734286 32,975 263 483 -512
2019-06-15 17:19:46 GMT 57.658081 -7.698154 32,975 244 472 -1152
2019-06-15 17:19:39 GMT 57.664398 -7.670406 32,975 257 478 -448
2019-06-15 17:19:36 GMT 57.666119 -7.660749 32,975 254 476 -576
2019-06-15 17:19:25 GMT 57.671448 -7.620735 32,975 263 483 -512
2019-06-15 17:19:18 GMT 57.673985 -7.588806 32,975 272 491 -448
2019-06-15 17:19:15 GMT 57.674545 -7.579326 33,000 266 486 -448
2019-06-15 17:19:05 GMT 57.675247 -7.536278 32,975 272 491 -448
2019-06-15 17:19:00 GMT 57.674686 -7.514383 32,975 275 492 -384
2019-06-15 17:18:55 GMT 57.673416 -7.492418 32,975 279 495 -512
2019-06-15 17:18:50 GMT 57.671402 -7.469673 32,975 285 498 0
2019-06-15 17:18:44 GMT 57.668976 -7.449245 33,000 285 498 -256
2019-06-15 17:18:41 GMT 57.666630 -7.432162 33,000 285 498 -64
2019-06-15 17:18:37 GMT 57.663883 -7.413114 33,000 285 498 0
2019-06-15 17:18:34 GMT 57.662979 -7.406845 33,000 285 498 0
2019-06-15 17:18:30 GMT 57.660301 -7.387774 33,000 285 498 0
2019-06-15 17:18:24 GMT 57.656811 -7.363321 33,000 285 498 0
2019-06-15 17:18:20 GMT 57.654480 -7.346753 33,000 285 498 0
2019-06-15 17:18:14 GMT 57.651031 -7.322216 33,000 285 498 -64
2019-06-15 17:18:10 GMT 57.648605 -7.304792 33,000 285 497 -64
2019-06-15 17:18:06 GMT 57.646088 -7.287025 33,000 285 497 0
2019-06-15 17:18:00 GMT 57.642197 -7.259731 33,000 285 496 0
2019-06-15 17:17:53 GMT 57.638901 -7.236557 33,000 285 496 0
2019-06-15 17:17:49 GMT 57.636520 -7.220078 33,000 285 496 0
2019-06-15 17:17:46 GMT 57.634048 -7.202740 32,975 285 495 64
2019-06-15 17:17:40 GMT 57.630844 -7.180510 33,000 285 495 64
2019-06-15 17:17:33 GMT 57.626450 -7.149611 32,975 285 495 0
2019-06-15 17:17:30 GMT 57.624985 -7.139311 32,975 285 494 64
2019-06-15 17:17:25 GMT 57.622147 -7.119570 32,975 285 494 0
2019-06-15 17:17:22 GMT 57.620358 -7.107268 32,975 286 495 -64
2019-06-15 17:17:19 GMT 57.618622 -7.094936 32,975 286 494 -64
2019-06-15 17:17:15 GMT 57.614456 -7.066698 32,975 286 493 0
2019-06-15 17:17:08 GMT 57.611893 -7.049103 32,975 286 493 0
2019-06-15 17:17:05 GMT 57.609924 -7.035627 32,975 286 493 0
2019-06-15 17:17:02 GMT 57.608536 -7.026200 32,975 286 493 0
2019-06-15 17:16:59 GMT 57.606533 -7.012733 32,975 286 492 0
2019-06-15 17:16:52 GMT 57.602249 -6.983318 33,000 286 492 -64
2019-06-15 17:16:49 GMT 57.600494 -6.971083 33,000 286 490 0
2019-06-15 17:16:44 GMT 57.597610 -6.951170 33,000 286 490 0
2019-06-15 17:16:39 GMT 57.594662 -6.930778 33,000 286 489 -64
2019-06-15 17:16:33 GMT 57.588703 -6.890288 33,000 286 488 0
2019-06-15 17:16:29 GMT 57.588703 -6.890288 33,000 286 487 -64
2019-06-15 17:16:24 GMT 57.585583 -6.868936 33,000 286 486 0
2019-06-15 17:16:19 GMT 57.582558 -6.848381 32,975 286 482 64
2019-06-15 17:16:10 GMT 57.577763 -6.815422 33,000 286 483 0
2019-06-15 17:16:06 GMT 57.575500 -6.799765 32,975 286 482 64
2019-06-15 17:16:03 GMT 57.571804 -6.774489 32,975 286 482 64
2019-06-15 17:16:00 GMT 57.571804 -6.774489 32,975 286 482 64
2019-06-15 17:15:56 GMT 57.569801 -6.760933 32,975 286 482 64
2019-06-15 17:15:53 GMT 57.567673 -6.746120 32,975 286 482 64
2019-06-15 17:15:50 GMT 57.566025 -6.734962 32,975 286 482 0
2019-06-15 17:15:46 GMT 57.563965 -6.720543 32,975 286 482 -64
2019-06-15 17:15:43 GMT 57.561722 -6.705351 32,975 286 482 -64
2019-06-15 17:15:37 GMT 57.558304 -6.681814 33,000 286 482 0
2019-06-15 17:15:33 GMT 57.555698 -6.664183 33,000 286 482 64
2019-06-15 17:15:29 GMT 57.553883 -6.651867 33,000 286 482 64
2019-06-15 17:15:26 GMT 57.552158 -6.640261 33,000 286 482 0
2019-06-15 17:15:22 GMT 57.549831 -6.624313 33,000 286 482 -128
2019-06-15 17:15:19 GMT 57.547806 -6.610765 33,000 286 483 -64
2019-06-15 17:15:16 GMT 57.546154 -6.599594 33,000 286 482 -128
2019-06-15 17:15:12 GMT 57.541218 -6.566900 32,950 286 492 1984
2019-06-15 17:15:09 GMT 57.541218 -6.566900 33,000 286 483 0
2019-06-15 17:15:06 GMT 57.539932 -6.558495 33,000 286 483 64
2019-06-15 17:15:02 GMT 57.537094 -6.539698 33,000 286 487 704
2019-06-15 17:14:59 GMT 57.535904 -6.531715 33,000 286 485 0
2019-06-15 17:14:56 GMT 57.533958 -6.518968 33,000 286 484 64
2019-06-15 17:14:49 GMT 57.529675 -6.490085 32,975 286 486 512
2019-06-15 17:14:46 GMT 57.527893 -6.477985 32,975 286 487 768
2019-06-15 17:14:41 GMT 57.525009 -6.458673 32,900 286 492 1984
2019-06-15 17:14:38 GMT 57.521015 -6.431964 32,775 286 492 1664
2019-06-15 17:14:31 GMT 57.518829 -6.417345 32,675 286 493 2240
2019-06-15 17:14:27 GMT 57.516781 -6.403966 32,600 286 493 2240
2019-06-15 17:14:24 GMT 57.514801 -6.390953 32,450 286 494 2176
2019-06-15 17:14:20 GMT 57.512218 -6.374197 32,300 286 495 1664
2019-06-15 17:14:17 GMT 57.510124 -6.360287 32,200 286 496 1408
2019-06-15 17:14:14 GMT 57.508575 -6.350012 32,125 286 496 1280
2019-06-15 17:14:07 GMT 57.503929 -6.319354 32,000 286 496 192
2019-06-15 17:14:04 GMT 57.502396 -6.309071 32,000 286 496 64
2019-06-15 17:13:58 GMT 57.498486 -6.282939 32,000 286 495 0
2019-06-15 17:13:54 GMT 57.496170 -6.267357 32,000 286 495 0
2019-06-15 17:13:50 GMT 57.493458 -6.249360 32,000 286 495 0
2019-06-15 17:13:47 GMT 57.491776 -6.238346 32,000 286 494 0
2019-06-15 17:13:43 GMT 57.489532 -6.223669 32,000 286 494 -64
2019-06-15 17:13:39 GMT 57.486923 -6.206589 32,000 287 494 0
2019-06-15 17:13:36 GMT 57.484707 -6.192302 32,000 287 494 -64
2019-06-15 17:13:33 GMT 57.483448 -6.184151 32,000 287 494 -64
2019-06-15 17:13:30 GMT 57.480743 -6.166677 32,000 287 494 0
2019-06-15 17:13:27 GMT 57.479233 -6.156893 32,000 287 494 0
2019-06-15 17:13:23 GMT 57.476944 -6.142302 32,000 286 494 64
2019-06-15 17:13:19 GMT 57.474419 -6.125587 32,000 286 493 64
2019-06-15 17:13:14 GMT 57.471066 -6.103703 32,000 286 493 0
2019-06-15 17:13:09 GMT 57.468018 -6.083765 32,000 287 493 0
2019-06-15 17:13:04 GMT 57.464951 -6.063852 31,975 287 493 64
2019-06-15 17:13:00 GMT 57.462780 -6.049657 31,975 287 493 64
2019-06-15 17:12:56 GMT 57.459892 -6.030963 31,975 287 493 0
2019-06-15 17:12:52 GMT 57.457752 -6.017230 31,975 287 493 0
2019-06-15 17:12:48 GMT 57.454960 -5.999333 31,975 287 493 -64
2019-06-15 17:12:45 GMT 57.453281 -5.988435 31,975 287 493 -64
2019-06-15 17:12:42 GMT 57.451263 -5.975447 32,000 287 492 -64
2019-06-15 17:12:39 GMT 57.446857 -5.947147 32,000 287 492 0
2019-06-15 17:12:36 GMT 57.446857 -5.947147 32,000 287 492 0
2019-06-15 17:12:32 GMT 57.444904 -5.934566 32,000 287 492 0
2019-06-15 17:12:25 GMT 57.440506 -5.906267 32,000 287 492 0
2019-06-15 17:12:22 GMT 57.438309 -5.892105 32,000 286 491 0
2019-06-15 17:12:18 GMT 57.436020 -5.877085 32,000 286 491 -64
2019-06-15 17:12:15 GMT 57.434196 -5.865016 32,000 286 491 -64
2019-06-15 17:12:12 GMT 57.431854 -5.850048 32,000 287 491 0
2019-06-15 17:12:08 GMT 57.429794 -5.836744 32,000 287 491 0
2019-06-15 17:12:05 GMT 57.427490 -5.821779 32,000 287 491 -64
2019-06-15 17:12:01 GMT 57.425583 -5.809708 32,000 287 491 -64
2019-06-15 17:11:57 GMT 57.422928 -5.792713 32,000 287 490 0
2019-06-15 17:11:54 GMT 57.421051 -5.780697 32,000 287 490 0
2019-06-15 17:11:51 GMT 57.416565 -5.752029 32,000 287 490 64
2019-06-15 17:11:47 GMT 57.416565 -5.752029 32,000 287 490 64
2019-06-15 17:11:43 GMT 57.413818 -5.734777 32,000 287 490 0
2019-06-15 17:11:37 GMT 57.410034 -5.710587 32,000 287 490 0
2019-06-15 17:11:34 GMT 57.408173 -5.698538 32,000 287 490 0
2019-06-15 17:11:30 GMT 57.403381 -5.668344 32,000 287 490 0
2019-06-15 17:11:26 GMT 57.403381 -5.668344 32,000 287 490 0
2019-06-15 17:11:22 GMT 57.400726 -5.651436 32,000 287 490 0
2019-06-15 17:11:19 GMT 57.396721 -5.626152 32,000 287 490 0
2019-06-15 17:11:16 GMT 57.393951 -5.608435 31,975 287 490 0
2019-06-15 17:11:12 GMT 57.393951 -5.608435 32,000 287 490 0
2019-06-15 17:11:08 GMT 57.392120 -5.596762 31,975 287 490 0
2019-06-15 17:11:05 GMT 57.390251 -5.585130 31,975 287 490 0
2019-06-15 17:11:02 GMT 57.387970 -5.570600 31,975 287 490 0
2019-06-15 17:10:59 GMT 57.385071 -5.552559 31,975 287 490 0
2019-06-15 17:10:55 GMT 57.383549 -5.542868 32,000 287 490 0
2019-06-15 17:10:51 GMT 57.380894 -5.526034 32,000 287 490 64
2019-06-15 17:10:48 GMT 57.378937 -5.513935 31,975 287 489 64
2019-06-15 17:10:44 GMT 57.374004 -5.482621 31,975 287 490 0
2019-06-15 17:10:41 GMT 57.372116 -5.470591 32,000 287 490 0
2019-06-15 17:10:33 GMT 57.369232 -5.452051 32,000 287 490 -64
2019-06-15 17:10:30 GMT 57.365753 -5.429993 32,000 287 489 -128
2019-06-15 17:10:24 GMT 57.364059 -5.419607 32,000 287 489 0
2019-06-15 17:10:21 GMT 57.361855 -5.405982 32,000 287 489 0
2019-06-15 17:10:18 GMT 57.359665 -5.392399 32,000 287 489 -64
2019-06-15 17:10:14 GMT 57.357338 -5.377985 32,000 287 488 0
2019-06-15 17:10:11 GMT 57.355335 -5.365581 32,000 287 488 0
2019-06-15 17:10:08 GMT 57.353615 -5.355215 32,000 287 489 0
2019-06-15 17:10:04 GMT 57.350876 -5.338411 32,000 287 489 0
2019-06-15 17:10:00 GMT 57.348221 -5.322018 32,000 287 488 64
2019-06-15 17:09:57 GMT 57.346573 -5.312061 32,000 287 488 192
2019-06-15 17:09:54 GMT 57.344421 -5.298414 32,000 287 488 192
2019-06-15 17:09:51 GMT 57.341949 -5.282879 31,975 287 488 64
2019-06-15 17:09:48 GMT 57.340347 -5.272463 31,975 287 488 0
2019-06-15 17:09:42 GMT 57.336342 -5.247212 31,975 287 488 64
2019-06-15 17:09:38 GMT 57.334248 -5.234099 31,975 287 488 0
2019-06-15 17:09:35 GMT 57.332062 -5.220101 31,975 287 488 0
2019-06-15 17:09:32 GMT 57.328720 -5.199280 31,975 287 488 -64
2019-06-15 17:09:29 GMT 57.328720 -5.199280 31,975 287 489 -64
2019-06-15 17:09:26 GMT 57.326202 -5.183659 31,975 287 489 -64
2019-06-15 17:09:23 GMT 57.322052 -5.158081 32,000 287 489 -64
2019-06-15 17:09:19 GMT 57.322052 -5.158081 31,975 287 489 -64
2019-06-15 17:09:15 GMT 57.319351 -5.141247 32,000 287 489 -64
2019-06-15 17:09:12 GMT 57.317551 -5.130529 32,000 287 489 -64
2019-06-15 17:09:08 GMT 57.315353 -5.116968 32,000 287 489 -64
2019-06-15 17:09:03 GMT 57.311234 -5.092249 32,000 288 489 -128
2019-06-15 17:09:00 GMT 57.309494 -5.081863 32,000 288 489 -128
2019-06-15 17:08:54 GMT 57.305695 -5.059118 32,000 288 488 -64
2019-06-15 17:08:51 GMT 57.303337 -5.045205 32,000 288 488 64
2019-06-15 17:08:48 GMT 57.301617 -5.034839 32,000 288 488 64
2019-06-15 17:08:45 GMT 57.297379 -5.009323 32,000 287 489 64
2019-06-15 17:08:41 GMT 57.294342 -4.990625 32,000 287 488 64
2019-06-15 17:08:38 GMT 57.294342 -4.990625 32,000 287 488 0
2019-06-15 17:08:34 GMT 57.292648 -4.980240 32,000 287 488 64
2019-06-15 17:08:30 GMT 57.290268 -4.965477 32,000 287 488 0
2019-06-15 17:08:27 GMT 57.288208 -4.952774 31,975 287 489 64
2019-06-15 17:08:22 GMT 57.284683 -4.931231 31,975 287 488 64
2019-06-15 17:08:19 GMT 57.282715 -4.918871 31,975 287 489 0
2019-06-15 17:08:16 GMT 57.278503 -4.892864 31,975 287 489 0
2019-06-15 17:08:13 GMT 57.278503 -4.892864 31,975 287 489 0
2019-06-15 17:08:10 GMT 57.276810 -4.882135 31,975 287 489 0
2019-06-15 17:08:07 GMT 57.275036 -4.871285 31,975 287 489 -64
2019-06-15 17:08:04 GMT 57.272938 -4.858526 31,975 287 490 -128
2019-06-15 17:08:00 GMT 57.270332 -4.842579 31,975 287 490 -64
2019-06-15 17:07:57 GMT 57.268661 -4.832611 31,975 288 490 0
2019-06-15 17:07:54 GMT 57.266281 -4.818192 32,000 288 490 0
2019-06-15 17:07:50 GMT 57.263302 -4.800228 32,000 288 490 0
2019-06-15 17:07:47 GMT 57.259720 -4.778698 32,000 288 490 64
2019-06-15 17:07:44 GMT 57.259720 -4.778698 32,000 287 490 0
2019-06-15 17:07:39 GMT 57.256413 -4.758763 31,975 287 491 0
2019-06-15 17:07:36 GMT 57.252640 -4.735966 32,000 287 491 0
2019-06-15 17:07:33 GMT 57.249523 -4.717122 32,000 287 491 -64
2019-06-15 17:07:29 GMT 57.249523 -4.717122 32,000 287 491 0
2019-06-15 17:07:26 GMT 57.248154 -4.708757 32,000 287 491 0
2019-06-15 17:07:23 GMT 57.243027 -4.677515 32,000 287 491 -64
2019-06-15 17:07:19 GMT 57.243027 -4.677515 32,000 287 491 -64
2019-06-15 17:07:16 GMT 57.241425 -4.667417 32,000 288 492 -64
2019-06-15 17:07:13 GMT 57.239227 -4.654255 32,000 288 492 -64
2019-06-15 17:07:10 GMT 57.235371 -4.631003 32,000 288 492 -64
2019-06-15 17:07:04 GMT 57.233742 -4.621434 32,000 288 493 0
2019-06-15 17:07:01 GMT 57.231319 -4.606993 32,000 288 492 0
2019-06-15 17:06:58 GMT 57.229248 -4.594603 32,000 288 492 -64
2019-06-15 17:06:55 GMT 57.227646 -4.584990 32,000 288 493 -64
2019-06-15 17:06:52 GMT 57.225224 -4.570578 32,000 288 492 64
2019-06-15 17:06:49 GMT 57.220196 -4.540986 32,000 288 492 0
2019-06-15 17:06:45 GMT 57.220196 -4.540986 32,000 288 492 0
2019-06-15 17:06:42 GMT 57.218426 -4.530620 32,000 288 492 0
2019-06-15 17:06:38 GMT 57.216019 -4.516582 32,000 288 493 64
2019-06-15 17:06:35 GMT 57.213821 -4.503794 32,000 288 494 0
2019-06-15 17:06:32 GMT 57.208511 -4.472587 32,000 288 493 64
2019-06-15 17:06:28 GMT 57.208511 -4.472587 32,000 288 493 128
2019-06-15 17:06:25 GMT 57.206882 -4.462930 32,000 288 493 128
2019-06-15 17:06:22 GMT 57.204437 -4.448519 32,000 288 494 64
2019-06-15 17:06:18 GMT 57.202103 -4.434528 31,975 288 493 64
2019-06-15 17:06:15 GMT 57.200272 -4.423680 31,975 288 493 64
2019-06-15 17:06:12 GMT 57.198578 -4.413671 31,975 288 493 64
2019-06-15 17:06:09 GMT 57.196548 -4.401708 31,975 288 494 64
2019-06-15 17:06:06 GMT 57.193661 -4.384431 31,975 288 494 64
2019-06-15 17:06:03 GMT 57.189514 -4.360371 31,975 288 494 64
2019-06-15 17:06:00 GMT 57.189514 -4.360371 31,975 288 494 0
2019-06-15 17:05:57 GMT 57.187561 -4.348814 31,975 288 494 0
2019-06-15 17:05:54 GMT 57.185760 -4.338312 31,975 288 494 0
2019-06-15 17:05:51 GMT 57.180862 -4.309473 31,975 288 494 0
2019-06-15 17:05:48 GMT 57.180862 -4.309473 31,975 288 495 0
2019-06-15 17:05:45 GMT 57.177429 -4.289389 31,975 288 495 -64
2019-06-15 17:05:39 GMT 57.175598 -4.278555 31,975 288 496 -64
2019-06-15 17:05:35 GMT 57.172897 -4.262430 32,000 288 496 -64
2019-06-15 17:05:32 GMT 57.170792 -4.249992 32,000 288 496 -64
2019-06-15 17:05:29 GMT 57.166569 -4.225041 32,000 288 495 -64
2019-06-15 17:05:25 GMT 57.163834 -4.208965 32,000 288 496 0
2019-06-15 17:05:22 GMT 57.163834 -4.208965 32,000 288 496 0
2019-06-15 17:05:19 GMT 57.161728 -4.196955 32,000 288 496 0
2019-06-15 17:05:16 GMT 57.159538 -4.184108 32,000 288 496 64
2019-06-15 17:05:13 GMT 57.157562 -4.172831 32,000 288 496 64
2019-06-15 17:05:10 GMT 57.153580 -4.149570 31,975 288 495 64
2019-06-15 17:05:04 GMT 57.151428 -4.137125 31,975 288 496 0
2019-06-15 17:05:00 GMT 57.145805 -4.103659 32,000 288 497 -64
2019-06-15 17:04:56 GMT 57.145805 -4.103659 32,000 288 497 -64
2019-06-15 17:04:50 GMT 57.142136 -4.081936 32,000 288 497 -64
2019-06-15 17:04:47 GMT 57.139893 -4.068663 32,000 288 496 -64
2019-06-15 17:04:44 GMT 57.137695 -4.055843 32,000 288 496 -64
2019-06-15 17:04:41 GMT 57.134121 -4.034906 32,000 288 496 0
2019-06-15 17:04:35 GMT 57.131512 -4.019579 32,000 288 497 0
2019-06-15 17:04:32 GMT 57.129513 -4.007972 32,000 288 497 -64
2019-06-15 17:04:29 GMT 57.127647 -3.997074 32,000 288 497 -128
2019-06-15 17:04:26 GMT 57.125107 -3.982630 32,000 288 498 -192
2019-06-15 17:04:23 GMT 57.123505 -3.973418 32,000 288 498 -192
2019-06-15 17:04:20 GMT 57.121456 -3.961723 32,000 289 498 -64
2019-06-15 17:04:17 GMT 57.119064 -3.948555 32,000 289 498 0
2019-06-15 17:04:14 GMT 57.117188 -3.938084 32,000 289 498 128
2019-06-15 17:04:11 GMT 57.114101 -3.920879 32,000 289 497 192
2019-06-15 17:04:08 GMT 57.112747 -3.913193 32,000 288 498 256
2019-06-15 17:04:05 GMT 57.110004 -3.897577 31,975 288 497 256
2019-06-15 17:04:02 GMT 57.107960 -3.885882 31,975 288 498 256
2019-06-15 17:03:59 GMT 57.106659 -3.878260 31,975 288 497 192
2019-06-15 17:03:56 GMT 57.104553 -3.865728 31,975 288 499 -64
2019-06-15 17:03:53 GMT 57.101860 -3.849999 31,975 288 499 -64
2019-06-15 17:03:50 GMT 57.099438 -3.835912 31,975 288 498 -64
2019-06-15 17:03:47 GMT 57.095993 -3.816243 31,975 288 499 -64
2019-06-15 17:03:44 GMT 57.095993 -3.816243 31,975 288 499 -64
2019-06-15 17:03:41 GMT 57.093796 -3.803759 31,975 288 499 0
2019-06-15 17:03:38 GMT 57.091232 -3.789253 31,975 288 499 -64
2019-06-15 17:03:35 GMT 57.089401 -3.778782 31,975 288 499 -64
2019-06-15 17:03:32 GMT 57.087387 -3.767538 31,975 288 499 0
2019-06-15 17:03:29 GMT 57.085510 -3.756638 32,000 288 499 0
2019-06-15 17:03:26 GMT 57.080120 -3.726137 31,975 288 499 -64
2019-06-15 17:03:22 GMT 57.080120 -3.726137 32,000 288 499 -128
2019-06-15 17:03:19 GMT 57.078415 -3.716469 32,000 288 498 -128
2019-06-15 17:03:16 GMT 57.075558 -3.700355 32,000 289 498 -128
2019-06-15 17:03:13 GMT 57.074162 -3.692381 32,000 289 498 -128
2019-06-15 17:03:10 GMT 57.072018 -3.679977 32,000 289 497 -64
2019-06-15 17:03:07 GMT 57.069786 -3.667927 32,000 289 497 0
2019-06-15 17:03:04 GMT 57.067505 -3.655080 32,000 288 497 0
2019-06-15 17:03:01 GMT 57.065598 -3.644285 32,000 288 496 0
2019-06-15 17:02:57 GMT 57.060333 -3.614244 32,000 288 495 -64
2019-06-15 17:02:54 GMT 57.060333 -3.614244 32,000 288 495 -64
2019-06-15 17:02:51 GMT 57.058777 -3.605490 32,000 288 496 -64
2019-06-15 17:02:48 GMT 57.056473 -3.592263 32,000 288 496 -64
2019-06-15 17:02:45 GMT 57.053879 -3.577509 32,000 289 495 -64
2019-06-15 17:02:41 GMT 57.051395 -3.563557 32,000 289 495 -64
2019-06-15 17:02:38 GMT 57.047066 -3.539724 32,000 289 495 0
2019-06-15 17:02:35 GMT 57.047066 -3.539724 32,000 289 494 64
2019-06-15 17:02:32 GMT 57.045254 -3.529358 32,000 289 494 64
2019-06-15 17:02:29 GMT 57.042297 -3.513050 32,000 289 495 0
2019-06-15 17:02:26 GMT 57.040878 -3.505068 32,000 289 495 -64
2019-06-15 17:02:23 GMT 57.038361 -3.490734 32,000 288 495 0
2019-06-15 17:02:20 GMT 57.036594 -3.480717 32,000 288 495 0
2019-06-15 17:02:17 GMT 57.034882 -3.471165 32,000 288 495 0
2019-06-15 17:02:14 GMT 57.032181 -3.456059 32,000 288 495 0
2019-06-15 17:02:11 GMT 57.030670 -3.447304 32,000 288 495 0
2019-06-15 17:02:08 GMT 57.027748 -3.431013 32,000 289 494 0
2019-06-15 17:02:04 GMT 57.025131 -3.416233 32,000 289 494 0
2019-06-15 17:02:01 GMT 57.022659 -3.402328 32,000 289 493 0
2019-06-15 17:01:58 GMT 57.020691 -3.391685 32,000 289 493 0
2019-06-15 17:01:55 GMT 57.018578 -3.379713 32,000 289 493 64
2019-06-15 17:01:52 GMT 57.016663 -3.369026 32,000 289 493 64
2019-06-15 17:01:49 GMT 57.014557 -3.357525 32,000 289 493 64
2019-06-15 17:01:46 GMT 57.012360 -3.345251 32,000 289 493 0
2019-06-15 17:01:43 GMT 57.009659 -3.330231 32,000 289 493 0
2019-06-15 17:01:40 GMT 57.007919 -3.320274 32,000 289 493 0
2019-06-15 17:01:37 GMT 57.005169 -3.304847 32,000 289 493 0
2019-06-15 17:01:34 GMT 57.004101 -3.298911 32,000 289 493 0
2019-06-15 17:01:31 GMT 57.002052 -3.287393 32,000 289 493 0
2019-06-15 17:01:27 GMT 56.998993 -3.270321 32,000 289 493 0
2019-06-15 17:01:24 GMT 56.996651 -3.257269 32,000 289 493 0
2019-06-15 17:01:21 GMT 56.994465 -3.244954 32,000 289 493 0
2019-06-15 17:01:17 GMT 56.991856 -3.230335 32,000 289 493 0
2019-06-15 17:01:14 GMT 56.989807 -3.218817 32,000 289 493 0
2019-06-15 17:01:11 GMT 56.987389 -3.205350 32,000 289 494 0
2019-06-15 17:01:08 GMT 56.985664 -3.195870 31,975 289 494 0
2019-06-15 17:01:05 GMT 56.983200 -3.182430 31,975 289 494 0
2019-06-15 17:01:02 GMT 56.981056 -3.170530 31,975 289 494 -64
2019-06-15 17:00:59 GMT 56.978962 -3.159012 31,975 289 494 0
2019-06-15 17:00:56 GMT 56.976772 -3.146786 32,000 289 494 0
2019-06-15 17:00:53 GMT 56.974228 -3.132906 32,000 289 494 0
2019-06-15 17:00:50 GMT 56.972809 -3.125010 32,000 289 494 0
2019-06-15 17:00:47 GMT 56.969700 -3.107979 31,975 289 493 64
2019-06-15 17:00:44 GMT 56.967957 -3.098488 31,975 289 494 0
2019-06-15 17:00:41 GMT 56.965649 -3.085829 31,975 289 494 0
2019-06-15 17:00:36 GMT 56.961731 -3.064499 31,975 289 493 0
2019-06-15 17:00:33 GMT 56.960541 -3.058147 31,975 289 493 -64
2019-06-15 17:00:30 GMT 56.958199 -3.045516 31,975 289 494 0
2019-06-15 17:00:26 GMT 56.954865 -3.027334 31,975 289 494 0
2019-06-15 17:00:23 GMT 56.952759 -3.015833 32,000 289 494 0
2019-06-15 17:00:20 GMT 56.949875 -3.000040 32,000 289 493 -64
2019-06-15 17:00:17 GMT 56.948750 -2.993686 32,000 289 493 -64
2019-06-15 17:00:14 GMT 56.946121 -2.979012 32,000 289 493 -128
2019-06-15 17:00:08 GMT 56.942276 -2.958069 32,000 289 492 -64
2019-06-15 17:00:05 GMT 56.939301 -2.941944 32,000 289 493 0
2019-06-15 17:00:02 GMT 56.937344 -2.931312 32,000 289 492 0
2019-06-15 16:59:59 GMT 56.935249 -2.919882 32,000 289 491 0
2019-06-15 16:59:55 GMT 56.933075 -2.908115 32,000 289 491 0
2019-06-15 16:59:52 GMT 56.930874 -2.896315 32,000 289 491 0
2019-06-15 16:59:49 GMT 56.928406 -2.882881 32,000 289 491 -64
2019-06-15 16:59:46 GMT 56.923599 -2.856617 32,000 289 491 -64
2019-06-15 16:59:43 GMT 56.923599 -2.856617 32,000 289 491 0
2019-06-15 16:59:40 GMT 56.921886 -2.847585 32,000 289 491 0
2019-06-15 16:59:37 GMT 56.919144 -2.832612 32,000 289 491 0
2019-06-15 16:59:34 GMT 56.917236 -2.822456 32,000 289 490 0
2019-06-15 16:59:31 GMT 56.915092 -2.810639 32,000 289 490 0
2019-06-15 16:59:28 GMT 56.913162 -2.800055 32,000 289 490 0
2019-06-15 16:59:25 GMT 56.911057 -2.788725 32,000 289 490 0
2019-06-15 16:59:21 GMT 56.907852 -2.771044 32,000 289 490 0
2019-06-15 16:59:18 GMT 56.905884 -2.760487 32,000 289 489 0
2019-06-15 16:59:15 GMT 56.903503 -2.747612 31,975 289 489 0
2019-06-15 16:59:10 GMT 56.900242 -2.730014 31,975 289 490 -64
2019-06-15 16:59:07 GMT 56.898056 -2.718258 31,975 289 490 -64
2019-06-15 16:59:04 GMT 56.896145 -2.708130 32,000 289 489 -64
2019-06-15 16:59:00 GMT 56.892654 -2.689333 32,000 289 489 -64
2019-06-15 16:58:57 GMT 56.890503 -2.678003 32,000 289 489 0
2019-06-15 16:58:53 GMT 56.887161 -2.660065 32,000 289 489 64
2019-06-15 16:58:50 GMT 56.885330 -2.650280 32,000 289 488 0
2019-06-15 16:58:44 GMT 56.881573 -2.629985 32,000 289 488 0
2019-06-15 16:58:41 GMT 56.878967 -2.615986 32,000 289 488 0
2019-06-15 16:58:38 GMT 56.876732 -2.603937 32,000 289 487 0
2019-06-15 16:58:34 GMT 56.871826 -2.577839 31,975 289 488 0
2019-06-15 16:58:31 GMT 56.871826 -2.577839 31,975 289 488 0
2019-06-15 16:58:28 GMT 56.869217 -2.563763 31,975 289 488 0
2019-06-15 16:58:24 GMT 56.866539 -2.549448 31,975 289 488 0
2019-06-15 16:58:21 GMT 56.862766 -2.529602 31,975 289 488 -64
2019-06-15 16:58:15 GMT 56.859276 -2.510908 31,975 290 487 -64
2019-06-15 16:58:12 GMT 56.857834 -2.503111 32,000 289 487 0
2019-06-15 16:58:09 GMT 56.855255 -2.489605 32,000 289 487 0
2019-06-15 16:58:06 GMT 56.853596 -2.480607 32,000 289 487 64
2019-06-15 16:58:03 GMT 56.851780 -2.470949 32,000 289 487 0
2019-06-15 16:57:59 GMT 56.848431 -2.453052 32,000 289 486 -64
2019-06-15 16:57:56 GMT 56.846420 -2.442226 32,000 289 487 -64
2019-06-15 16:57:53 GMT 56.843262 -2.425143 32,000 289 486 -64
2019-06-15 16:57:49 GMT 56.841354 -2.415043 32,000 289 486 -64
2019-06-15 16:57:46 GMT 56.838932 -2.402285 32,000 290 485 -64
2019-06-15 16:57:43 GMT 56.837036 -2.392273 32,000 290 485 0
2019-06-15 16:57:39 GMT 56.834106 -2.376823 32,000 290 486 0
2019-06-15 16:57:36 GMT 56.831902 -2.365250 32,000 290 485 0
2019-06-15 16:57:33 GMT 56.829391 -2.352104 32,000 290 485 0
2019-06-15 16:57:29 GMT 56.826038 -2.334329 32,000 290 485 0
2019-06-15 16:57:26 GMT 56.824177 -2.324760 32,000 290 484 0
2019-06-15 16:57:23 GMT 56.819275 -2.298889 32,000 290 484 64
2019-06-15 16:57:19 GMT 56.819275 -2.298889 32,000 290 484 0
2019-06-15 16:57:16 GMT 56.817101 -2.287371 32,000 290 484 0
2019-06-15 16:57:13 GMT 56.814587 -2.274259 32,000 290 484 64
2019-06-15 16:57:08 GMT 56.811172 -2.256145 32,000 290 484 64
2019-06-15 16:57:05 GMT 56.809341 -2.246532 32,000 290 484 64
2019-06-15 16:57:02 GMT 56.806999 -2.234212 31,975 290 484 0
2019-06-15 16:56:59 GMT 56.804443 -2.220697 32,000 290 483 0
2019-06-15 16:56:56 GMT 56.799736 -2.195671 32,000 290 484 -64
2019-06-15 16:56:53 GMT 56.799736 -2.195671 32,000 290 484 0
2019-06-15 16:56:48 GMT 56.794010 -2.165724 32,000 290 483 0
2019-06-15 16:56:45 GMT 56.794010 -2.165724 31,975 290 483 0
2019-06-15 16:56:42 GMT 56.792381 -2.157307 31,975 290 483 0
2019-06-15 16:56:38 GMT 56.789448 -2.141891 32,000 290 483 0
2019-06-15 16:56:35 GMT 56.784393 -2.115040 32,000 289 483 0
2019-06-15 16:56:31 GMT 56.781532 -2.100072 32,000 290 483 -128
2019-06-15 16:56:27 GMT 56.781532 -2.100072 32,000 289 483 -64
2019-06-15 16:56:24 GMT 56.778992 -2.086630 32,000 290 482 -128
2019-06-15 16:56:21 GMT 56.773575 -2.058253 32,000 290 482 -64
2019-06-15 16:56:16 GMT 56.771107 -2.045583 32,000 290 482 -64
2019-06-15 16:56:13 GMT 56.771107 -2.045583 32,000 290 482 0
2019-06-15 16:56:07 GMT 56.766453 -2.021573 32,000 290 482 0
2019-06-15 16:56:04 GMT 56.764252 -2.010412 32,000 290 482 0
2019-06-15 16:56:01 GMT 56.759171 -1.984062 32,000 290 481 64
2019-06-15 16:55:58 GMT 56.759171 -1.984062 32,000 290 481 64
2019-06-15 16:55:54 GMT 56.754776 -1.961145 31,975 290 481 0
2019-06-15 16:55:45 GMT 56.750336 -1.938229 31,975 290 482 0
2019-06-15 16:55:42 GMT 56.747643 -1.924114 31,975 290 481 -64
2019-06-15 16:55:36 GMT 56.743546 -1.903204 32,000 290 481 0
2019-06-15 16:55:33 GMT 56.741318 -1.891708 32,000 290 481 0
2019-06-15 16:55:30 GMT 56.739544 -1.882560 32,000 290 481 0
2019-06-15 16:55:27 GMT 56.737015 -1.869650 32,000 290 481 0
2019-06-15 16:55:24 GMT 56.734360 -1.855917 32,000 290 481 0
2019-06-15 16:55:20 GMT 56.731724 -1.842159 32,000 290 480 -64
2019-06-15 16:55:15 GMT 56.728317 -1.824675 32,000 290 480 64
2019-06-15 16:55:12 GMT 56.725250 -1.809112 32,000 290 480 64
2019-06-15 16:55:06 GMT 56.719200 -1.778013 31,975 290 480 0
2019-06-15 16:55:03 GMT 56.716545 -1.764280 31,975 290 479 0
2019-06-15 16:54:59 GMT 56.716545 -1.764280 31,975 290 479 0
2019-06-15 16:54:55 GMT 56.710876 -1.735067 31,975 290 479 0
2019-06-15 16:54:52 GMT 56.710876 -1.735067 31,975 290 479 -64
2019-06-15 16:54:49 GMT 56.708725 -1.724081 31,975 290 479 -64
2019-06-15 16:54:44 GMT 56.705048 -1.705184 32,000 290 479 -64
2019-06-15 16:54:41 GMT 56.702866 -1.694212 32,000 290 479 -64
2019-06-15 16:54:38 GMT 56.701035 -1.684771 32,000 290 479 0
2019-06-15 16:54:35 GMT 56.698563 -1.672239 32,000 290 479 0
2019-06-15 16:54:32 GMT 56.696548 -1.662025 32,000 290 479 0
2019-06-15 16:54:29 GMT 56.694294 -1.650696 32,000 290 478 0
2019-06-15 16:54:26 GMT 56.691036 -1.634128 32,000 290 478 0
2019-06-15 16:54:23 GMT 56.689590 -1.626921 32,000 290 478 0
2019-06-15 16:54:20 GMT 56.687073 -1.614046 31,975 290 478 0
2019-06-15 16:54:17 GMT 56.685608 -1.606493 31,975 290 478 0
2019-06-15 16:54:14 GMT 56.682861 -1.592588 32,000 290 477 -64
2019-06-15 16:54:11 GMT 56.681072 -1.583537 31,975 290 477 -64
2019-06-15 16:54:08 GMT 56.678467 -1.570336 32,000 290 478 0
2019-06-15 16:54:05 GMT 56.675858 -1.557140 32,000 290 478 -64
2019-06-15 16:54:02 GMT 56.673706 -1.546154 32,000 290 478 -64
2019-06-15 16:53:59 GMT 56.671623 -1.535605 32,000 290 477 0
2019-06-15 16:53:55 GMT 56.668533 -1.520233 32,000 290 477 0
2019-06-15 16:53:52 GMT 56.665993 -1.507431 32,000 290 477 0
2019-06-15 16:53:49 GMT 56.664047 -1.497660 32,000 290 477 0
2019-06-15 16:53:44 GMT 56.660358 -1.478813 32,000 290 477 0
2019-06-15 16:53:41 GMT 56.658463 -1.469421 32,000 290 477 0
2019-06-15 16:53:38 GMT 56.656448 -1.459293 32,000 291 477 0
2019-06-15 16:53:34 GMT 56.652954 -1.441601 32,000 290 476 0
2019-06-15 16:53:31 GMT 56.651047 -1.431828 32,000 290 476 64
2019-06-15 16:53:28 GMT 56.648712 -1.420155 31,975 290 476 64
2019-06-15 16:53:24 GMT 56.645920 -1.405821 31,975 290 476 64
2019-06-15 16:53:21 GMT 56.643311 -1.392689 32,000 290 476 -64
2019-06-15 16:53:18 GMT 56.641342 -1.382561 32,000 290 476 -64
2019-06-15 16:53:14 GMT 56.638290 -1.367089 32,000 290 477 -64
2019-06-15 16:53:11 GMT 56.635593 -1.353622 32,000 290 477 -64
2019-06-15 16:53:08 GMT 56.633636 -1.343787 32,000 290 476 -64
2019-06-15 16:53:04 GMT 56.629807 -1.324711 32,000 291 477 -64
2019-06-15 16:53:01 GMT 56.628376 -1.317562 32,000 291 477 -64
2019-06-15 16:52:58 GMT 56.625641 -1.304111 32,000 291 477 -64
2019-06-15 16:52:53 GMT 56.621532 -1.283451 32,000 290 476 0
2019-06-15 16:52:50 GMT 56.620045 -1.276009 32,000 290 476 0
2019-06-15 16:52:47 GMT 56.618134 -1.266603 32,000 290 476 64
2019-06-15 16:52:42 GMT 56.613899 -1.245265 32,000 290 476 64
2019-06-15 16:52:39 GMT 56.611816 -1.234760 32,000 290 476 64
2019-06-15 16:52:36 GMT 56.610031 -1.225748 31,975 290 476 0
2019-06-15 16:52:32 GMT 56.606125 -1.206281 31,975 290 476 0
2019-06-15 16:52:29 GMT 56.603714 -1.194248 31,975 290 476 0
2019-06-15 16:52:26 GMT 56.602158 -1.186438 32,000 291 477 0
2019-06-15 16:52:23 GMT 56.599979 -1.175537 32,000 290 476 -64
2019-06-15 16:52:20 GMT 56.597717 -1.164293 31,975 290 476 -64
2019-06-15 16:52:17 GMT 56.595154 -1.151590 32,000 290 476 -64
2019-06-15 16:52:14 GMT 56.592819 -1.139998 32,000 291 477 0
2019-06-15 16:52:11 GMT 56.590855 -1.130219 32,000 291 476 0
2019-06-15 16:52:08 GMT 56.588528 -1.118631 32,000 291 476 0
2019-06-15 16:52:05 GMT 56.586639 -1.109286 32,000 291 476 0
2019-06-15 16:52:01 GMT 56.583206 -1.092474 32,000 290 476 64
2019-06-15 16:51:58 GMT 56.581032 -1.081638 32,000 290 476 0
2019-06-15 16:51:55 GMT 56.578846 -1.070738 32,000 290 476 0
2019-06-15 16:51:51 GMT 56.575699 -1.055020 32,000 290 476 0
2019-06-15 16:51:48 GMT 56.573444 -1.043873 32,000 290 476 0
2019-06-15 16:51:45 GMT 56.571350 -1.033401 32,000 291 477 0
2019-06-15 16:51:42 GMT 56.568832 -1.021063 31,975 291 476 0
2019-06-15 16:51:39 GMT 56.566727 -1.010576 32,000 291 476 0
2019-06-15 16:51:36 GMT 56.564182 -0.998211 32,000 291 476 0
2019-06-15 16:51:30 GMT 56.560040 -0.977697 31,975 291 476 0
2019-06-15 16:51:27 GMT 56.557663 -0.966110 31,975 291 476 0
2019-06-15 16:51:24 GMT 56.555374 -0.954895 32,000 291 476 0
2019-06-15 16:51:21 GMT 56.553383 -0.945253 32,000 291 476 -64
2019-06-15 16:51:18 GMT 56.550171 -0.929546 32,000 291 476 -64
2019-06-15 16:51:15 GMT 56.548370 -0.920604 32,000 291 476 -64
2019-06-15 16:51:09 GMT 56.543697 -0.897789 32,000 291 476 0
2019-06-15 16:51:06 GMT 56.541779 -0.888478 32,000 291 476 0
2019-06-15 16:51:03 GMT 56.539276 -0.876160 32,000 291 476 0
2019-06-15 16:51:00 GMT 56.536900 -0.864573 32,000 291 476 0
2019-06-15 16:50:57 GMT 56.534527 -0.853071 32,000 291 476 0
2019-06-15 16:50:54 GMT 56.532387 -0.842600 32,000 291 476 0
2019-06-15 16:50:50 GMT 56.529125 -0.826550 32,000 291 476 0
2019-06-15 16:50:46 GMT 56.525986 -0.811240 32,000 291 476 0
2019-06-15 16:50:43 GMT 56.523102 -0.797091 32,000 291 476 0
2019-06-15 16:50:37 GMT 56.520035 -0.782193 32,000 291 476 0
2019-06-15 16:50:34 GMT 56.517303 -0.768700 32,000 291 476 0
2019-06-15 16:50:30 GMT 56.511703 -0.741494 32,000 291 477 0
2019-06-15 16:50:27 GMT 56.511703 -0.741494 32,000 291 477 0
2019-06-15 16:50:24 GMT 56.507309 -0.720270 32,000 291 477 0
2019-06-15 16:50:18 GMT 56.504700 -0.707619 32,000 291 477 0
2019-06-15 16:50:15 GMT 56.502502 -0.696800 32,000 291 476 0
2019-06-15 16:50:12 GMT 56.499802 -0.683816 32,000 291 476 0
2019-06-15 16:50:09 GMT 56.498356 -0.676689 32,000 291 476 0
2019-06-15 16:50:06 GMT 56.495636 -0.663674 32,000 291 477 0
2019-06-15 16:50:03 GMT 56.493423 -0.652828 32,000 291 477 0
2019-06-15 16:49:59 GMT 56.489868 -0.635709 32,000 291 477 -64
2019-06-15 16:49:56 GMT 56.488255 -0.627851 32,000 291 477 -64
2019-06-15 16:49:53 GMT 56.485832 -0.616350 32,000 291 477 0
2019-06-15 16:49:49 GMT 56.482716 -0.601416 32,000 291 477 0
2019-06-15 16:49:46 GMT 56.480339 -0.589828 32,000 291 477 64
2019-06-15 16:49:43 GMT 56.477921 -0.578327 32,000 291 477 64
2019-06-15 16:49:39 GMT 56.475128 -0.564852 31,975 291 479 -128
2019-06-15 16:49:36 GMT 56.472427 -0.551805 31,975 291 477 0
2019-06-15 16:49:33 GMT 56.470047 -0.540244 31,975 291 478 0
2019-06-15 16:49:30 GMT 56.467491 -0.527515 31,975 291 478 0
2019-06-15 16:49:26 GMT 56.464645 -0.513694 32,000 291 478 0
2019-06-15 16:49:23 GMT 56.462231 -0.501680 32,000 291 478 -128
2019-06-15 16:49:19 GMT 56.459717 -0.489321 32,000 291 478 -128
2019-06-15 16:49:16 GMT 56.454597 -0.464344 32,000 291 478 -128
2019-06-15 16:49:13 GMT 56.454597 -0.464344 32,000 292 478 -64
2019-06-15 16:49:09 GMT 56.451153 -0.447865 32,000 292 478 -64
2019-06-15 16:49:05 GMT 56.448944 -0.437456 32,000 292 478 0
2019-06-15 16:49:02 GMT 56.443844 -0.413618 32,000 291 479 0
2019-06-15 16:48:59 GMT 56.441895 -0.404330 32,000 291 479 0
2019-06-15 16:48:53 GMT 56.439102 -0.391263 32,000 291 479 64
2019-06-15 16:48:47 GMT 56.433701 -0.365545 32,000 291 480 64
2019-06-15 16:48:44 GMT 56.432602 -0.360302 32,000 291 480 64
2019-06-15 16:48:41 GMT 56.430176 -0.348733 31,975 291 481 0
2019-06-15 16:48:38 GMT 56.426434 -0.330791 31,975 291 480 0
2019-06-15 16:48:34 GMT 56.421616 -0.307950 31,975 291 481 0
2019-06-15 16:48:31 GMT 56.421616 -0.307950 31,975 292 486 64
2019-06-15 16:48:27 GMT 56.415817 -0.280237 32,000 291 481 0
2019-06-15 16:48:24 GMT 56.415817 -0.280237 31,975 291 481 64
2019-06-15 16:48:17 GMT 56.411362 -0.258928 31,975 291 482 0
2019-06-15 16:48:14 GMT 56.408649 -0.246162 31,975 291 481 0
2019-06-15 16:48:11 GMT 56.406464 -0.235707 31,975 291 481 0
2019-06-15 16:48:07 GMT 56.403389 -0.221014 31,975 291 482 -64
2019-06-15 16:48:04 GMT 56.400223 -0.205994 31,975 291 482 0
2019-06-15 16:48:01 GMT 56.398129 -0.195866 32,000 291 482 0
2019-06-15 16:47:54 GMT 56.393196 -0.172606 32,000 291 483 0
2019-06-15 16:47:51 GMT 56.389423 -0.155010 32,000 291 483 0
2019-06-15 16:47:45 GMT 56.383209 -0.125677 31,975 291 483 0
2019-06-15 16:47:39 GMT 56.379959 -0.110279 31,975 291 483 0
2019-06-15 16:47:36 GMT 56.378448 -0.103122 31,975 291 483 0
2019-06-15 16:47:33 GMT 56.376019 -0.091839 32,000 291 484 0
2019-06-15 16:47:30 GMT 56.373875 -0.081711 32,000 291 484 0
2019-06-15 16:47:23 GMT 56.367966 -0.053850 32,000 291 484 0
2019-06-15 16:47:20 GMT 56.365589 -0.042572 32,000 291 484 0
2019-06-15 16:47:13 GMT 56.360641 -0.019226 31,975 291 484 0
2019-06-15 16:47:10 GMT 56.357666 -0.005327 32,000 291 486 -64
2019-06-15 16:47:05 GMT 56.353500 0.014316 32,000 292 485 -64
2019-06-15 16:46:59 GMT 56.349297 0.033903 32,000 292 486 0
2019-06-15 16:46:55 GMT 56.345032 0.053434 32,000 292 486 64
2019-06-15 16:46:52 GMT 56.340824 0.073042 32,000 292 486 64
2019-06-15 16:46:42 GMT 56.334915 0.100542 31,975 292 487 0
2019-06-15 16:46:39 GMT 56.332809 0.110363 31,975 291 487 0
2019-06-15 16:46:33 GMT 56.326950 0.137995 31,975 291 488 0
2019-06-15 16:46:29 GMT 56.324478 0.149730 32,000 292 488 -128
2019-06-15 16:46:24 GMT 56.320496 0.168291 32,000 292 488 -64
2019-06-15 16:46:21 GMT 56.318161 0.179277 32,000 292 488 -128
2019-06-15 16:46:18 GMT 56.310982 0.212517 32,000 292 489 64
2019-06-15 16:46:12 GMT 56.310982 0.212517 32,000 292 488 0
2019-06-15 16:46:09 GMT 56.304047 0.244617 32,000 292 489 64
2019-06-15 16:46:04 GMT 56.304047 0.244617 32,000 292 488 0
2019-06-15 16:46:01 GMT 56.301533 0.256376 32,000 292 488 0
2019-06-15 16:45:58 GMT 56.297150 0.276822 32,000 292 489 -128
2019-06-15 16:45:51 GMT 56.293388 0.294228 32,000 292 489 -64
2019-06-15 16:45:48 GMT 56.290421 0.307867 32,000 292 489 0
2019-06-15 16:45:42 GMT 56.286263 0.326757 32,000 292 489 64
2019-06-15 16:45:39 GMT 56.283783 0.338163 32,000 292 489 64
2019-06-15 16:45:36 GMT 56.281723 0.347567 31,975 292 490 64
2019-06-15 16:45:32 GMT 56.278023 0.364609 31,975 292 490 64
2019-06-15 16:45:28 GMT 56.274860 0.379028 31,975 292 490 64
2019-06-15 16:45:25 GMT 56.272430 0.390348 31,975 292 491 -64
2019-06-15 16:45:22 GMT 56.266937 0.415816 31,975 292 491 -64
2019-06-15 16:45:19 GMT 56.266937 0.415816 31,975 292 491 -64
2019-06-15 16:45:16 GMT 56.264896 0.425291 31,975 292 491 -64
2019-06-15 16:45:12 GMT 56.261360 0.441599 32,000 292 491 -64
2019-06-15 16:45:08 GMT 56.258331 0.455589 32,000 292 491 -64
2019-06-15 16:45:05 GMT 56.256100 0.465889 32,000 292 491 0
2019-06-15 16:45:01 GMT 56.252605 0.481768 32,000 292 491 0
2019-06-15 16:44:58 GMT 56.250000 0.493526 32,000 292 491 0
2019-06-15 16:44:55 GMT 56.247665 0.504123 31,975 292 492 0
2019-06-15 16:44:51 GMT 56.244133 0.520477 31,975 292 491 64
2019-06-15 16:44:47 GMT 56.240891 0.535251 31,975 292 491 0
2019-06-15 16:44:41 GMT 56.235947 0.557972 31,975 292 492 -64
2019-06-15 16:44:37 GMT 56.232590 0.573606 32,000 292 491 -64
2019-06-15 16:44:34 GMT 56.230541 0.583048 32,000 292 492 -64
2019-06-15 16:44:30 GMT 56.223373 0.615664 32,000 292 492 0
2019-06-15 16:44:27 GMT 56.223373 0.615664 32,000 292 492 64
2019-06-15 16:44:22 GMT 56.220207 0.630083 32,000 292 492 64
2019-06-15 16:44:19 GMT 56.217552 0.642271 32,000 292 492 0
2019-06-15 16:44:16 GMT 56.215412 0.652142 31,975 292 493 -64
2019-06-15 16:44:12 GMT 56.209717 0.677906 32,000 292 492 -64
2019-06-15 16:44:06 GMT 56.206894 0.690851 32,000 292 492 -64
2019-06-15 16:44:02 GMT 56.202377 0.711279 32,000 292 492 64
2019-06-15 16:43:58 GMT 56.197403 0.733587 32,000 292 492 64
2019-06-15 16:43:55 GMT 56.197403 0.733587 32,000 292 492 64
2019-06-15 16:43:49 GMT 56.192741 0.754881 31,975 292 492 0
2019-06-15 16:43:46 GMT 56.189716 0.768442 31,975 292 492 0
2019-06-15 16:43:43 GMT 56.187572 0.778313 32,000 292 492 0
2019-06-15 16:43:40 GMT 56.184734 0.791187 31,975 292 492 0
2019-06-15 16:43:36 GMT 56.181801 0.804491 32,000 292 493 -64
2019-06-15 16:43:33 GMT 56.179138 0.816567 31,975 292 492 -128
2019-06-15 16:43:30 GMT 56.177097 0.825691 32,000 292 492 -128
2019-06-15 16:43:27 GMT 56.174377 0.837791 32,000 292 492 -64
2019-06-15 16:43:24 GMT 56.171585 0.850275 32,000 292 492 0
2019-06-15 16:43:21 GMT 56.168629 0.863457 32,000 292 492 64
2019-06-15 16:43:17 GMT 56.165417 0.877790 32,000 292 491 64
2019-06-15 16:43:14 GMT 56.162949 0.888777 32,000 292 492 0
2019-06-15 16:43:11 GMT 56.159595 0.903883 32,000 292 491 0
2019-06-15 16:43:08 GMT 56.157852 0.911865 32,000 292 491 0
2019-06-15 16:43:05 GMT 56.155312 0.923195 32,000 292 491 0
2019-06-15 16:43:02 GMT 56.152893 0.934181 31,975 292 491 0
2019-06-15 16:42:58 GMT 56.145256 0.968513 31,975 292 492 -64
2019-06-15 16:42:54 GMT 56.145256 0.968513 31,975 292 492 0
2019-06-15 16:42:50 GMT 56.142792 0.979500 32,000 292 492 0
2019-06-15 16:42:46 GMT 56.139812 0.992718 32,000 292 492 -64
2019-06-15 16:42:43 GMT 56.137016 1.005163 32,000 292 492 0
2019-06-15 16:42:39 GMT 56.133728 1.019897 32,000 292 492 -64
2019-06-15 16:42:36 GMT 56.131336 1.030397 32,000 292 492 -64
2019-06-15 16:42:33 GMT 56.128731 1.042156 32,000 292 492 -64
2019-06-15 16:42:30 GMT 56.123798 1.063957 32,000 293 492 0
2019-06-15 16:42:27 GMT 56.123798 1.063957 32,000 293 492 64
2019-06-15 16:42:24 GMT 56.121002 1.076403 32,000 293 492 0
2019-06-15 16:42:21 GMT 56.117931 1.089964 32,000 293 492 64
2019-06-15 16:42:15 GMT 56.113232 1.110649 32,000 292 490 64
2019-06-15 16:42:12 GMT 56.110703 1.121937 32,000 292 490 64
2019-06-15 16:42:08 GMT 56.107544 1.136253 31,975 292 491 0
2019-06-15 16:42:05 GMT 56.104935 1.147988 31,975 292 491 -64
2019-06-15 16:42:01 GMT 56.101639 1.162663 31,975 292 490 0
2019-06-15 16:41:58 GMT 56.099121 1.173956 31,975 292 491 -64
2019-06-15 16:41:55 GMT 56.096146 1.187124 31,975 292 491 0
2019-06-15 16:41:52 GMT 56.093079 1.200672 31,975 293 492 0
2019-06-15 16:41:49 GMT 56.091751 1.206665 31,975 292 491 0
2019-06-15 16:41:45 GMT 56.087486 1.225405 31,975 292 491 0
2019-06-15 16:41:42 GMT 56.085297 1.235213 32,000 292 491 0
2019-06-15 16:41:39 GMT 56.083015 1.245403 31,975 292 491 0
2019-06-15 16:41:36 GMT 56.080364 1.257076 31,975 292 491 0
2019-06-15 16:41:32 GMT 56.073257 1.288646 31,975 292 491 -64
2019-06-15 16:41:27 GMT 56.073257 1.288646 31,975 293 492 -64
2019-06-15 16:41:24 GMT 56.070030 1.302910 32,000 293 492 -64
2019-06-15 16:41:21 GMT 56.067562 1.313810 31,975 293 491 64
2019-06-15 16:41:18 GMT 56.060673 1.343851 32,000 293 491 -64
2019-06-15 16:41:13 GMT 56.057926 1.355867 32,000 293 492 0
2019-06-15 16:41:10 GMT 56.054436 1.370802 32,000 293 491 0
2019-06-15 16:41:02 GMT 56.050964 1.386275 32,000 293 492 0
2019-06-15 16:40:58 GMT 56.042587 1.423062 32,000 293 491 0
2019-06-15 16:40:52 GMT 56.042587 1.423062 32,000 293 492 -64
2019-06-15 16:40:47 GMT 56.039017 1.438876 32,000 293 491 0
2019-06-15 16:40:41 GMT 56.033764 1.461697 32,000 293 491 64
2019-06-15 16:40:37 GMT 56.029202 1.481609 32,000 293 491 0
2019-06-15 16:40:34 GMT 56.027061 1.490965 32,000 293 491 0
2019-06-15 16:40:31 GMT 56.024734 1.501132 32,000 293 491 0
2019-06-15 16:40:27 GMT 56.021439 1.515364 32,000 293 492 0
2019-06-15 16:40:21 GMT 56.015797 1.540146 32,000 293 491 0
2019-06-15 16:40:17 GMT 56.012695 1.553650 32,000 293 491 0
2019-06-15 16:40:14 GMT 56.010361 1.563721 32,000 293 491 0
2019-06-15 16:40:11 GMT 56.007339 1.576871 32,000 293 492 0
2019-06-15 16:40:07 GMT 56.004410 1.589605 32,000 293 492 0
2019-06-15 16:40:04 GMT 56.001179 1.603489 32,000 293 492 -64
2019-06-15 16:40:00 GMT 55.997734 1.618423 32,000 293 492 -64
2019-06-15 16:39:55 GMT 55.993313 1.637564 32,000 293 492 0
2019-06-15 16:39:49 GMT 55.988983 1.656272 32,000 293 492 0
2019-06-15 16:39:45 GMT 55.985443 1.671638 32,000 293 492 0
2019-06-15 16:39:39 GMT 55.980228 1.694040 32,000 293 492 0
2019-06-15 16:39:36 GMT 55.976028 1.712036 32,000 293 491 0
2019-06-15 16:39:29 GMT 55.970856 1.734425 32,000 293 491 -64
2019-06-15 16:39:25 GMT 55.967522 1.749058 32,000 293 491 -64
2019-06-15 16:39:18 GMT 55.961472 1.775291 32,000 293 492 64
2019-06-15 16:39:15 GMT 55.958862 1.786480 32,000 293 491 64
2019-06-15 16:39:09 GMT 55.953693 1.808882 32,000 293 492 0
2019-06-15 16:39:05 GMT 55.949799 1.825728 32,000 293 491 -64
2019-06-15 16:38:58 GMT 55.941422 1.861600 32,000 293 492 0
2019-06-15 16:38:55 GMT 55.939316 1.870506 32,000 293 492 0
2019-06-15 16:38:49 GMT 55.936237 1.883554 32,000 293 492 0
2019-06-15 16:38:42 GMT 55.930710 1.907043 32,000 293 492 0
2019-06-15 16:38:39 GMT 55.927113 1.922350 31,975 293 492 0
2019-06-15 16:38:34 GMT 55.922504 1.942177 32,000 293 492 0
2019-06-15 16:38:28 GMT 55.917892 1.961892 32,000 293 491 -64
2019-06-15 16:38:22 GMT 55.909332 1.998482 32,000 293 491 -64
2019-06-15 16:38:18 GMT 55.904526 2.018987 32,000 293 492 0
2019-06-15 16:38:12 GMT 55.899601 2.039852 32,000 293 491 0
2019-06-15 16:38:07 GMT 55.899601 2.039852 31,975 293 492 -64
2019-06-15 16:38:03 GMT 55.895271 2.058134 32,000 293 492 -64
2019-06-15 16:37:55 GMT 55.889175 2.083797 32,000 293 492 0
2019-06-15 16:37:51 GMT 55.886124 2.096891 32,000 293 492 0
2019-06-15 16:37:46 GMT 55.881214 2.117701 32,000 293 491 0
2019-06-15 16:37:42 GMT 55.877518 2.133345 32,000 293 491 0
2019-06-15 16:37:35 GMT 55.871437 2.159500 32,000 293 491 0
2019-06-15 16:37:31 GMT 55.868366 2.172546 32,000 293 491 -64
2019-06-15 16:37:25 GMT 55.863522 2.193403 32,000 293 491 0
2019-06-15 16:37:22 GMT 55.859390 2.210915 32,000 293 492 -64
2019-06-15 16:37:16 GMT 55.854904 2.229892 32,000 293 491 0
2019-06-15 16:37:11 GMT 55.850327 2.249201 32,000 293 491 0
2019-06-15 16:37:05 GMT 55.841457 2.286701 32,000 293 491 64
2019-06-15 16:37:00 GMT 55.841457 2.286701 32,000 293 491 0
2019-06-15 16:36:55 GMT 55.836731 2.306713 31,975 293 491 0
2019-06-15 16:36:51 GMT 55.832428 2.324940 31,975 293 491 -64
2019-06-15 16:36:45 GMT 55.827759 2.344666 31,975 293 491 -128
2019-06-15 16:36:40 GMT 55.823456 2.362810 32,000 294 491 -64
2019-06-15 16:36:34 GMT 55.818283 2.384283 32,000 294 490 -64
2019-06-15 16:36:29 GMT 55.813805 2.402744 32,000 294 490 0
2019-06-15 16:36:24 GMT 55.809311 2.421154 32,000 294 490 0
2019-06-15 16:36:18 GMT 55.804077 2.442999 32,000 294 490 0
2019-06-15 16:36:14 GMT 55.800167 2.459221 32,000 294 490 0
2019-06-15 16:36:09 GMT 55.791042 2.497244 32,000 294 490 0
2019-06-15 16:36:03 GMT 55.791042 2.497244 32,000 294 489 -64
2019-06-15 16:35:59 GMT 55.782009 2.534924 32,000 294 489 0
2019-06-15 16:35:53 GMT 55.782009 2.534924 31,975 294 489 0
2019-06-15 16:35:47 GMT 55.772186 2.575779 32,000 294 489 0
2019-06-15 16:35:42 GMT 55.772186 2.575779 32,000 294 489 0
2019-06-15 16:35:37 GMT 55.767746 2.594188 31,975 294 489 0
2019-06-15 16:35:32 GMT 55.763481 2.611914 31,975 294 489 0
2019-06-15 16:35:26 GMT 55.758175 2.633972 32,000 294 489 -64
2019-06-15 16:35:22 GMT 55.754639 2.648735 32,000 294 489 0
2019-06-15 16:35:17 GMT 55.750168 2.667098 32,000 294 489 0
2019-06-15 16:35:12 GMT 55.745560 2.686243 32,000 294 488 0
2019-06-15 16:35:07 GMT 55.739685 2.710460 32,000 294 488 0
2019-06-15 16:35:03 GMT 55.736893 2.721863 32,000 294 489 0
2019-06-15 16:34:57 GMT 55.731457 2.744265 32,000 294 488 0
2019-06-15 16:34:52 GMT 55.727173 2.761860 32,000 294 488 0
2019-06-15 16:34:46 GMT 55.722378 2.781687 31,975 294 488 0
2019-06-15 16:34:42 GMT 55.718536 2.797435 32,000 294 488 0
2019-06-15 16:34:36 GMT 55.713161 2.819796 31,975 294 488 0
2019-06-15 16:34:32 GMT 55.709621 2.834473 32,000 294 488 -64
2019-06-15 16:34:26 GMT 55.704391 2.856112 32,000 294 487 0
2019-06-15 16:34:22 GMT 55.695099 2.894125 32,000 294 487 -64
2019-06-15 16:34:16 GMT 55.695099 2.894125 32,000 294 488 0
2019-06-15 16:34:12 GMT 55.691372 2.909489 32,000 294 487 0
2019-06-15 16:34:04 GMT 55.685181 2.934723 32,000 294 487 0
2019-06-15 16:33:59 GMT 55.680542 2.953658 32,000 294 487 0
2019-06-15 16:33:55 GMT 55.676476 2.970085 32,000 294 487 0
2019-06-15 16:33:48 GMT 55.670471 2.994547 32,000 294 487 0
2019-06-15 16:33:40 GMT 55.661819 3.029896 32,000 294 486 0
2019-06-15 16:33:31 GMT 55.655411 3.055781 32,000 294 487 0
2019-06-15 16:33:27 GMT 55.649288 3.080549 32,000 294 486 0
2019-06-15 16:33:24 GMT 55.643330 3.104496 32,000 294 487 0
2019-06-15 16:33:19 GMT 55.643330 3.104496 32,000 294 486 0
2019-06-15 16:33:14 GMT 55.639526 3.119784 32,000 294 486 0
2019-06-15 16:33:08 GMT 55.634216 3.141174 32,000 294 485 0
2019-06-15 16:33:05 GMT 55.631607 3.151744 32,000 294 485 0
2019-06-15 16:32:58 GMT 55.624603 3.180043 32,000 294 486 0
2019-06-15 16:32:54 GMT 55.621872 3.190928 32,000 294 486 0
2019-06-15 16:32:47 GMT 55.614716 3.219577 32,000 294 485 0
2019-06-15 16:32:41 GMT 55.609909 3.238720 32,000 294 485 0
2019-06-15 16:32:36 GMT 55.605331 3.257197 32,000 294 485 0
2019-06-15 16:32:32 GMT 55.601715 3.271694 32,000 294 485 0
2019-06-15 16:32:28 GMT 55.597988 3.286543 32,000 294 485 0
2019-06-15 16:32:23 GMT 55.593430 3.304554 32,000 294 485 0
2019-06-15 16:32:18 GMT 55.588726 3.323364 31,975 294 484 0
2019-06-15 16:32:15 GMT 55.586105 3.333851 32,000 294 484 0
2019-06-15 16:32:07 GMT 55.579193 3.361733 32,000 294 484 0
2019-06-15 16:32:02 GMT 55.574154 3.381901 32,000 294 484 -64
2019-06-15 16:31:55 GMT 55.564938 3.418722 32,000 294 484 0
2019-06-15 16:31:51 GMT 55.564938 3.418722 32,000 294 484 0
2019-06-15 16:31:44 GMT 55.558514 3.444300 32,000 294 484 0
2019-06-15 16:31:41 GMT 55.555710 3.455533 32,000 294 484 0
2019-06-15 16:31:37 GMT 55.551994 3.470306 32,000 294 484 0
2019-06-15 16:31:34 GMT 55.548569 3.483998 32,000 294 484 0
2019-06-15 16:31:31 GMT 55.546234 3.493319 32,000 294 484 0
2019-06-15 16:31:22 GMT 55.538727 3.523282 32,000 294 484 0
2019-06-15 16:31:19 GMT 55.535423 3.536224 32,000 295 483 0
2019-06-15 16:31:14 GMT 55.530991 3.553827 32,000 295 483 0
2019-06-15 16:31:11 GMT 55.528244 3.564647 32,000 295 483 0
2019-06-15 16:31:05 GMT 55.523273 3.584461 32,000 294 483 0
2019-06-15 16:31:00 GMT 55.518356 3.603849 32,000 294 484 64
2019-06-15 16:30:54 GMT 55.512939 3.625402 31,975 294 484 64
2019-06-15 16:30:51 GMT 55.510239 3.636217 31,975 295 483 0
2019-06-15 16:30:43 GMT 55.503208 3.663940 31,975 295 484 -64
2019-06-15 16:30:38 GMT 55.498901 3.680753 31,975 295 484 -64
2019-06-15 16:30:31 GMT 55.491898 3.708057 32,000 295 484 0
2019-06-15 16:30:28 GMT 55.489197 3.718443 32,000 295 484 -64
2019-06-15 16:30:19 GMT 55.481190 3.749599 32,000 295 484 0
2019-06-15 16:30:14 GMT 55.476303 3.768654 32,000 295 484 0
2019-06-15 16:30:08 GMT 55.470612 3.790866 32,000 295 484 0
2019-06-15 16:30:04 GMT 55.466171 3.808511 32,000 295 483 0
2019-06-15 16:29:58 GMT 55.461685 3.826075 32,000 295 483 0
2019-06-15 16:29:53 GMT 55.457245 3.843717 32,000 295 483 0
2019-06-15 16:29:49 GMT 55.452980 3.860493 32,000 295 484 0
2019-06-15 16:29:40 GMT 55.445389 3.890242 32,000 295 483 0
2019-06-15 16:29:35 GMT 55.425514 3.969144 32,000 294 483 0
2019-06-15 16:29:18 GMT 55.425514 3.969144 32,000 294 482 0
2019-06-15 16:29:10 GMT 55.418243 3.998135 32,000 294 482 0
2019-06-15 16:29:01 GMT 55.409081 4.034646 32,000 294 482 0
2019-06-15 16:28:51 GMT 55.400841 4.067605 32,000 294 482 0
2019-06-15 16:28:44 GMT 55.395302 4.089827 32,000 294 481 0
2019-06-15 16:28:40 GMT 55.391342 4.105558 32,000 298 483 -64
2019-06-15 16:28:34 GMT 55.385990 4.127031 32,000 294 482 0
2019-06-15 16:28:30 GMT 55.382950 4.139180 32,000 298 483 -64
2019-06-15 16:28:25 GMT 55.376961 4.163153 32,000 294 481 0
2019-06-15 16:28:20 GMT 55.373657 4.176420 32,000 294 482 -64
2019-06-15 16:28:13 GMT 55.366928 4.202755 32,000 295 481 -64
2019-06-15 16:28:07 GMT 55.360481 4.226823 32,000 297 483 -128
2019-06-15 16:28:00 GMT 55.347446 4.271434 32,000 298 483 0
2019-06-15 16:27:53 GMT 55.347446 4.271434 32,000 298 483 0
2019-06-15 16:27:48 GMT 55.342743 4.287415 32,000 298 483 0
2019-06-15 16:27:39 GMT 55.332550 4.321828 32,000 298 483 0
2019-06-15 16:27:33 GMT 55.325565 4.345426 32,000 298 483 0
2019-06-15 16:27:24 GMT 55.317856 4.371508 32,000 298 483 0
2019-06-15 16:27:21 GMT 55.314560 4.382576 32,000 298 483 0
2019-06-15 16:27:10 GMT 55.303036 4.421082 32,000 298 483 0
2019-06-15 16:27:06 GMT 55.297989 4.438073 32,000 298 483 0
2019-06-15 16:27:02 GMT 55.294922 4.448494 32,000 298 483 -64
2019-06-15 16:26:58 GMT 55.290894 4.461984 32,000 298 483 0
2019-06-15 16:26:50 GMT 55.279202 4.501149 32,000 298 484 0
2019-06-15 16:26:43 GMT 55.269699 4.532991 32,000 298 483 0
2019-06-15 16:26:39 GMT 55.269699 4.532991 31,975 298 483 0
2019-06-15 16:26:35 GMT 55.267227 4.541312 31,975 298 484 0
2019-06-15 16:26:30 GMT 55.260681 4.563123 31,975 298 484 -64
2019-06-15 16:26:27 GMT 55.257477 4.573867 31,975 298 484 -64
2019-06-15 16:26:18 GMT 55.249172 4.601607 31,975 298 483 0
2019-06-15 16:26:15 GMT 55.246193 4.611678 32,000 298 483 0
2019-06-15 16:26:09 GMT 55.240002 4.632402 32,000 298 483 -64
2019-06-15 16:26:04 GMT 55.234791 4.650130 32,000 298 483 -64
2019-06-15 16:25:55 GMT 55.226223 4.678844 32,000 298 483 0
2019-06-15 16:25:50 GMT 55.219334 4.701649 31,975 298 483 0
2019-06-15 16:25:47 GMT 55.216644 4.710631 32,000 298 484 0
2019-06-15 16:25:33 GMT 55.201996 4.759342 32,000 298 484 0
2019-06-15 16:25:25 GMT 55.194168 4.785273 32,000 298 484 0
2019-06-15 16:25:17 GMT 55.186157 4.811850 32,000 298 484 0
2019-06-15 16:25:14 GMT 55.183441 4.820751 32,000 298 484 -64
2019-06-15 16:25:05 GMT 55.172882 4.855634 32,000 299 484 0
2019-06-15 16:24:54 GMT 55.162121 4.891080 31,975 299 485 0
2019-06-15 16:24:51 GMT 55.151180 4.926036 31,975 299 484 0
2019-06-15 16:24:44 GMT 55.151180 4.926036 31,975 299 485 -64
2019-06-15 16:24:38 GMT 55.144432 4.947260 31,975 300 485 -64
2019-06-15 16:24:35 GMT 55.140846 4.958579 32,000 300 485 -64
2019-06-15 16:24:28 GMT 55.126648 5.002108 32,000 301 486 -64
2019-06-15 16:24:22 GMT 55.126648 5.002108 32,000 302 487 -64
2019-06-15 16:24:16 GMT 55.110443 5.049187 32,000 304 490 0
2019-06-15 16:24:08 GMT 55.110443 5.049187 31,975 303 488 -64
2019-06-15 16:24:02 GMT 55.103886 5.067111 31,975 304 488 0
2019-06-15 16:23:56 GMT 55.096619 5.086589 31,975 304 490 0
2019-06-15 16:23:51 GMT 55.089455 5.105730 31,975 304 491 0
2019-06-15 16:23:47 GMT 55.084610 5.118630 31,975 304 490 0
2019-06-15 16:23:43 GMT 55.075470 5.143056 32,000 304 491 0
2019-06-15 16:23:39 GMT 55.075470 5.143056 31,975 304 491 0
2019-06-15 16:23:36 GMT 55.071995 5.152338 32,000 304 491 -64
2019-06-15 16:23:32 GMT 55.065434 5.169816 32,000 304 490 -64
2019-06-15 16:23:24 GMT 55.055748 5.195534 32,000 304 491 -64
2019-06-15 16:23:17 GMT 55.046494 5.219960 32,000 304 491 0
2019-06-15 16:23:04 GMT 55.025303 5.276018 31,975 304 491 0
2019-06-15 16:22:55 GMT 55.020325 5.289251 31,975 304 492 0
2019-06-15 16:22:44 GMT 55.006729 5.325206 31,975 304 492 -64
2019-06-15 16:22:40 GMT 55.002213 5.337108 31,975 304 492 -64
2019-06-15 16:22:34 GMT 54.990143 5.369164 32,000 304 492 0
2019-06-15 16:22:24 GMT 54.982224 5.390329 32,000 304 492 -64
2019-06-15 16:22:21 GMT 54.978008 5.401528 32,000 304 492 0
2019-06-15 16:22:17 GMT 54.969543 5.424015 31,975 304 492 -64
2019-06-15 16:22:11 GMT 54.965652 5.434274 31,975 304 492 -64
2019-06-15 16:22:03 GMT 54.954964 5.462619 32,000 304 491 0
2019-06-15 16:22:00 GMT 54.943836 5.491999 32,000 304 492 -64
2019-06-15 16:21:55 GMT 54.943836 5.491999 32,000 304 492 0
2019-06-15 16:21:51 GMT 54.941208 5.498900 32,000 304 492 0
2019-06-15 16:21:47 GMT 54.934711 5.515969 32,000 304 492 0
2019-06-15 16:21:42 GMT 54.928009 5.533364 32,000 304 492 0
2019-06-15 16:21:34 GMT 54.918980 5.557001 32,000 304 492 0
2019-06-15 16:21:28 GMT 54.912369 5.574480 32,000 304 491 -64
2019-06-15 16:21:21 GMT 54.902435 5.600442 32,000 304 492 0
2019-06-15 16:21:13 GMT 54.892776 5.625646 32,000 304 491 -64
2019-06-15 16:21:08 GMT 54.886230 5.642691 32,000 304 491 -64
2019-06-15 16:21:03 GMT 54.880692 5.657070 32,000 304 491 -64
2019-06-15 16:20:59 GMT 54.875267 5.671193 32,000 304 491 -64
2019-06-15 16:20:53 GMT 54.867508 5.691483 32,000 304 490 0
2019-06-15 16:20:50 GMT 54.864372 5.699657 32,000 304 491 0
2019-06-15 16:20:46 GMT 54.852364 5.731118 32,000 304 491 0
2019-06-15 16:20:40 GMT 54.847939 5.742604 32,000 304 491 -64
2019-06-15 16:20:33 GMT 54.842541 5.756586 32,000 304 490 0
2019-06-15 16:20:27 GMT 54.835369 5.775230 32,000 304 490 0
2019-06-15 16:20:21 GMT 54.827549 5.795455 32,000 304 490 -64
2019-06-15 16:20:18 GMT 54.824383 5.803611 32,000 304 490 -64
2019-06-15 16:20:15 GMT 54.820862 5.812737 32,000 304 490 -64
2019-06-15 16:20:07 GMT 54.810417 5.839733 32,000 304 490 0
2019-06-15 16:20:04 GMT 54.806789 5.849221 32,000 304 490 0
2019-06-15 16:20:00 GMT 54.800995 5.864195 32,000 304 490 0
2019-06-15 16:19:57 GMT 54.796452 5.875938 32,000 304 490 0
2019-06-15 16:19:53 GMT 54.790913 5.890253 32,000 304 490 0
2019-06-15 16:19:49 GMT 54.787170 5.899981 32,000 304 490 0
2019-06-15 16:19:45 GMT 54.781494 5.914603 32,000 304 490 0
2019-06-15 16:19:40 GMT 54.775864 5.929224 31,975 304 490 0
2019-06-15 16:19:36 GMT 54.770432 5.943187 31,975 304 490 0
2019-06-15 16:19:30 GMT 54.763538 5.961082 32,000 304 490 -64
2019-06-15 16:19:25 GMT 54.757233 5.977370 32,000 304 490 0
2019-06-15 16:19:16 GMT 54.745895 6.006608 32,000 304 490 -64
2019-06-15 16:19:12 GMT 54.740639 6.020175 32,000 304 490 -64
2019-06-15 16:19:09 GMT 54.737595 6.028021 32,000 304 490 0
2019-06-15 16:19:05 GMT 54.732162 6.041981 32,000 304 490 0
2019-06-15 16:19:01 GMT 54.726379 6.056860 32,000 304 490 0
2019-06-15 16:18:57 GMT 54.722488 6.066957 32,000 304 490 0
2019-06-15 16:18:54 GMT 54.718430 6.077354 32,000 305 490 -64
2019-06-15 16:18:50 GMT 54.713589 6.089589 32,000 304 490 0
2019-06-15 16:18:46 GMT 54.702602 6.117803 32,000 304 490 0
2019-06-15 16:18:39 GMT 54.697529 6.130787 32,000 304 490 0
2019-06-15 16:18:36 GMT 54.690735 6.148265 32,000 304 490 0
2019-06-15 16:18:30 GMT 54.688202 6.154767 32,000 305 491 0
2019-06-15 16:18:27 GMT 54.684265 6.164784 32,000 305 491 0
2019-06-15 16:18:18 GMT 54.672729 6.194270 32,000 305 491 0
2019-06-15 16:18:15 GMT 54.668839 6.204286 32,000 305 491 0
2019-06-15 16:18:10 GMT 54.662102 6.221424 32,000 304 490 0
2019-06-15 16:18:04 GMT 54.654514 6.240900 31,975 305 491 0
2019-06-15 16:18:00 GMT 54.649815 6.252885 31,975 304 490 0
2019-06-15 16:17:57 GMT 54.646416 6.261624 31,975 304 490 -64
2019-06-15 16:17:53 GMT 54.641464 6.274244 31,975 305 491 -64
2019-06-15 16:17:48 GMT 54.634369 6.292339 31,975 305 491 0
2019-06-15 16:17:45 GMT 54.630798 6.301386 32,000 305 491 0
2019-06-15 16:17:42 GMT 54.627514 6.309814 31,975 305 491 0
2019-06-15 16:17:39 GMT 54.623199 6.320855 32,000 304 490 -64
2019-06-15 16:17:36 GMT 54.619263 6.330872 31,975 304 490 -64
2019-06-15 16:17:32 GMT 54.614342 6.343439 32,000 305 491 -64
2019-06-15 16:17:29 GMT 54.610565 6.353167 32,000 305 491 -64
2019-06-15 16:17:26 GMT 54.606754 6.362915 32,000 305 490 0
2019-06-15 16:17:22 GMT 54.593765 6.395791 32,000 305 490 0
2019-06-15 16:17:17 GMT 54.593765 6.395791 32,000 305 490 0
2019-06-15 16:17:12 GMT 54.587906 6.410684 32,000 305 491 -64
2019-06-15 16:17:07 GMT 54.582504 6.424175 32,000 305 491 0
2019-06-15 16:17:03 GMT 54.576187 6.439927 32,000 305 491 0
2019-06-15 16:16:59 GMT 54.570442 6.454385 32,000 305 489 0
2019-06-15 16:16:56 GMT 54.564716 6.468950 31,975 305 490 0
2019-06-15 16:16:53 GMT 54.564716 6.468950 32,000 305 490 0
2019-06-15 16:16:48 GMT 54.557693 6.486619 31,975 305 491 0
2019-06-15 16:16:41 GMT 54.548996 6.508592 31,975 305 491 0
2019-06-15 16:16:38 GMT 54.541065 6.528542 31,975 305 491 0
2019-06-15 16:16:35 GMT 54.532875 6.549100 31,975 305 491 0
2019-06-15 16:16:29 GMT 54.530083 6.556258 31,975 305 491 0
2019-06-15 16:16:26 GMT 54.530083 6.556258 31,975 305 491 0
2019-06-15 16:16:23 GMT 54.525879 6.566835 31,975 305 490 -64
2019-06-15 16:16:18 GMT 54.516163 6.591381 31,975 305 491 0
2019-06-15 16:16:15 GMT 54.516163 6.591381 31,975 305 491 0
2019-06-15 16:16:09 GMT 54.507248 6.613850 31,975 305 491 0
2019-06-15 16:16:04 GMT 54.501637 6.628085 31,975 305 491 0
2019-06-15 16:15:58 GMT 54.494476 6.646082 31,975 305 491 -64
2019-06-15 16:15:55 GMT 54.490768 6.655372 31,975 305 491 -64
2019-06-15 16:15:52 GMT 54.486786 6.665308 31,975 305 491 -64
2019-06-15 16:15:49 GMT 54.482437 6.676295 32,000 305 491 0
2019-06-15 16:15:46 GMT 54.478821 6.685261 32,000 305 491 -64
2019-06-15 16:15:38 GMT 54.464348 6.721469 32,000 305 491 0
2019-06-15 16:15:35 GMT 54.464348 6.721469 32,000 305 489 -64
2019-06-15 16:15:30 GMT 54.452946 6.750017 32,000 305 490 -64
2019-06-15 16:15:26 GMT 54.452946 6.750017 32,000 305 490 0
2019-06-15 16:15:23 GMT 54.449219 6.759255 32,000 305 490 0
2019-06-15 16:15:18 GMT 54.443356 6.774070 32,000 305 489 0
2019-06-15 16:15:14 GMT 54.433731 6.798033 32,000 305 490 -64
2019-06-15 16:15:11 GMT 54.433731 6.798033 32,000 305 490 -64
2019-06-15 16:15:08 GMT 54.430664 6.805707 32,000 305 490 -64
2019-06-15 16:15:03 GMT 54.423477 6.823560 32,000 305 490 -64
2019-06-15 16:15:00 GMT 54.420364 6.831234 32,000 305 490 0
2019-06-15 16:14:56 GMT 54.414585 6.845648 32,000 305 490 0
2019-06-15 16:14:53 GMT 54.411026 6.854580 32,000 305 490 0
2019-06-15 16:14:48 GMT 54.398483 6.885843 32,000 305 490 0
2019-06-15 16:14:43 GMT 54.398483 6.885843 32,000 305 490 0
2019-06-15 16:14:37 GMT 54.390888 6.904741 31,975 305 490 0
2019-06-15 16:14:33 GMT 54.385536 6.918141 31,975 305 490 -64
2019-06-15 16:14:30 GMT 54.381042 6.929223 31,975 305 490 0
2019-06-15 16:14:26 GMT 54.376511 6.940451 32,000 305 490 0
2019-06-15 16:14:22 GMT 54.367104 6.963667 32,000 305 490 0
2019-06-15 16:14:19 GMT 54.367104 6.963667 32,000 305 490 0
2019-06-15 16:14:16 GMT 54.363876 6.971633 31,975 305 490 0
2019-06-15 16:14:13 GMT 54.354347 6.995128 31,975 305 490 0
2019-06-15 16:14:05 GMT 54.348404 7.009843 31,975 305 489 0
2019-06-15 16:14:01 GMT 54.337509 7.036905 32,000 305 489 0
2019-06-15 16:13:56 GMT 54.337509 7.036905 31,975 305 490 0
2019-06-15 16:13:52 GMT 54.331722 7.051225 32,000 305 489 0
2019-06-15 16:13:43 GMT 54.320663 7.078507 31,975 305 489 0
2019-06-15 16:13:40 GMT 54.316406 7.089009 31,975 305 489 0
2019-06-15 16:13:34 GMT 54.309311 7.106458 31,975 305 489 0
2019-06-15 16:13:31 GMT 54.305191 7.116636 31,975 305 490 0
2019-06-15 16:13:25 GMT 54.297409 7.135701 31,975 305 490 0
2019-06-15 16:13:22 GMT 54.292805 7.147106 31,975 305 490 0
2019-06-15 16:13:19 GMT 54.290085 7.153796 31,975 305 490 0
2019-06-15 16:13:14 GMT 54.281982 7.173830 31,975 305 490 -64
2019-06-15 16:13:10 GMT 54.275253 7.190309 32,000 305 490 -64
2019-06-15 16:13:03 GMT 54.269211 7.205226 32,000 305 489 -64
2019-06-15 16:13:00 GMT 54.265732 7.213780 32,000 305 489 0
2019-06-15 16:12:57 GMT 54.261978 7.222961 32,000 305 490 0
2019-06-15 16:12:51 GMT 54.254196 7.241952 32,000 305 490 0
2019-06-15 16:12:47 GMT 54.248749 7.255293 32,000 306 489 0
2019-06-15 16:12:42 GMT 54.241875 7.272061 32,000 306 489 0
2019-06-15 16:12:39 GMT 54.237991 7.281503 32,000 305 489 0
2019-06-15 16:12:36 GMT 54.234650 7.289743 32,000 305 489 0
2019-06-15 16:12:31 GMT 54.228058 7.305908 31,975 305 489 0
2019-06-15 16:12:27 GMT 54.223114 7.317915 31,975 305 489 0
2019-06-15 16:12:23 GMT 54.216156 7.334943 31,975 305 489 0
2019-06-15 16:12:19 GMT 54.212410 7.344118 32,000 305 489 0
2019-06-15 16:12:16 GMT 54.208263 7.354216 32,000 305 489 0
2019-06-15 16:12:10 GMT 54.195465 7.385481 32,000 306 489 -64
2019-06-15 16:12:07 GMT 54.195465 7.385481 32,000 306 489 -64
2019-06-15 16:12:00 GMT 54.188095 7.403451 32,000 306 489 -64
2019-06-15 16:11:57 GMT 54.179497 7.424254 32,000 306 489 0
2019-06-15 16:11:51 GMT 54.177017 7.430211 32,000 306 489 0
2019-06-15 16:11:48 GMT 54.172989 7.440020 32,000 306 488 0
2019-06-15 16:11:44 GMT 54.166229 7.456405 32,000 306 488 0
2019-06-15 16:11:39 GMT 54.160130 7.471188 32,000 306 489 0
2019-06-15 16:11:36 GMT 54.152481 7.489772 32,000 306 489 -64
2019-06-15 16:11:30 GMT 54.143967 7.510568 32,000 306 489 0
2019-06-15 16:11:27 GMT 54.143967 7.510568 32,000 306 489 -64
2019-06-15 16:11:20 GMT 54.135269 7.531677 31,975 306 489 -64
2019-06-15 16:11:17 GMT 54.132156 7.539211 32,000 306 489 -64
2019-06-15 16:11:14 GMT 54.127762 7.549962 32,000 306 489 -64
2019-06-15 16:11:11 GMT 54.124008 7.559065 32,000 306 489 0
2019-06-15 16:11:08 GMT 54.115128 7.580409 32,000 306 489 0
2019-06-15 16:11:05 GMT 54.115128 7.580409 32,000 306 489 0
2019-06-15 16:11:02 GMT 54.112518 7.586687 32,000 306 489 0
2019-06-15 16:10:59 GMT 54.105106 7.604639 32,000 306 489 -64
2019-06-15 16:10:53 GMT 54.100681 7.615303 32,000 306 489 0
2019-06-15 16:10:50 GMT 54.096680 7.625077 32,000 306 489 0
2019-06-15 16:10:47 GMT 54.086517 7.649623 32,000 306 489 0
2019-06-15 16:10:43 GMT 54.086517 7.649623 32,000 306 489 0
2019-06-15 16:10:39 GMT 54.081345 7.662179 32,000 306 489 0
2019-06-15 16:10:36 GMT 54.078480 7.669023 32,000 306 489 -64
2019-06-15 16:10:32 GMT 54.073685 7.680655 32,000 306 489 -64
2019-06-15 16:10:29 GMT 54.069633 7.690349 32,000 306 489 0
2019-06-15 16:10:26 GMT 54.065163 7.701012 32,000 306 489 0
2019-06-15 16:10:22 GMT 54.056717 7.721348 32,000 306 489 0
2019-06-15 16:10:19 GMT 54.056717 7.721348 32,000 306 489 0
2019-06-15 16:10:15 GMT 54.047565 7.743261 32,000 306 488 -64
2019-06-15 16:10:09 GMT 54.043377 7.753278 32,000 306 489 0
2019-06-15 16:10:05 GMT 54.038303 7.765476 32,000 306 488 0
2019-06-15 16:10:01 GMT 54.033043 7.777997 32,000 306 489 0
2019-06-15 16:09:58 GMT 54.024948 7.797389 32,000 306 489 0
2019-06-15 16:09:52 GMT 54.021835 7.804844 32,000 306 489 0
2019-06-15 16:09:49 GMT 54.018036 7.813947 32,000 306 489 -64
2019-06-15 16:09:46 GMT 54.009579 7.834221 32,000 306 488 0
2019-06-15 16:09:43 GMT 54.009579 7.834221 32,000 306 487 0
2019-06-15 16:09:40 GMT 54.004761 7.845808 32,000 306 488 0
2019-06-15 16:09:37 GMT 54.002151 7.852007 32,000 306 488 0
2019-06-15 16:09:34 GMT 53.994171 7.871058 32,000 306 488 0
2019-06-15 16:09:28 GMT 53.989105 7.883240 32,000 306 488 0
2019-06-15 16:09:24 GMT 53.983841 7.895717 32,000 306 488 0
2019-06-15 16:09:21 GMT 53.980858 7.902886 32,000 306 488 0
2019-06-15 16:09:18 GMT 53.975739 7.914943 32,000 306 488 0
2019-06-15 16:09:15 GMT 53.971939 7.923968 32,000 306 488 0
2019-06-15 16:09:12 GMT 53.967911 7.933620 32,000 306 487 0
2019-06-15 16:09:09 GMT 53.963882 7.943272 32,000 306 488 0
2019-06-15 16:09:06 GMT 53.961273 7.949550 32,000 306 487 0
2019-06-15 16:09:02 GMT 53.952648 7.970016 32,000 306 487 0
2019-06-15 16:08:56 GMT 53.948364 7.980275 32,000 306 487 0
2019-06-15 16:08:53 GMT 53.944427 7.989572 32,000 306 487 0
2019-06-15 16:08:50 GMT 53.938541 8.003540 32,000 306 486 0
2019-06-15 16:08:46 GMT 53.934631 8.012830 32,000 306 485 0
2019-06-15 16:08:43 GMT 53.930580 8.022443 32,000 306 486 0
2019-06-15 16:08:40 GMT 53.924206 8.037630 32,000 306 486 0
2019-06-15 16:08:37 GMT 53.924206 8.037630 32,000 306 486 -64
2019-06-15 16:08:34 GMT 53.920074 8.047564 32,000 306 485 0
2019-06-15 16:08:31 GMT 53.910828 8.069615 32,000 306 486 0
2019-06-15 16:08:27 GMT 53.910828 8.069615 32,000 306 486 0
2019-06-15 16:08:24 GMT 53.906933 8.078909 32,000 306 486 0
2019-06-15 16:08:21 GMT 53.902882 8.088442 32,000 306 486 0
2019-06-15 16:08:18 GMT 53.892563 8.112854 32,000 306 485 0
2019-06-15 16:08:14 GMT 53.892563 8.112854 32,000 306 485 0
2019-06-15 16:08:11 GMT 53.886032 8.128348 32,000 306 485 0
2019-06-15 16:08:08 GMT 53.886032 8.128348 32,000 306 485 0
2019-06-15 16:08:05 GMT 53.880936 8.140398 32,000 306 485 0
2019-06-15 16:08:02 GMT 53.877560 8.148382 32,000 306 485 0
2019-06-15 16:07:59 GMT 53.872997 8.159207 31,975 306 486 0
2019-06-15 16:07:56 GMT 53.869690 8.166881 32,000 306 486 0
2019-06-15 16:07:53 GMT 53.859356 8.191196 32,000 306 485 0
2019-06-15 16:07:49 GMT 53.859356 8.191196 32,000 306 485 0
2019-06-15 16:07:46 GMT 53.856098 8.198951 32,000 306 485 0
2019-06-15 16:07:43 GMT 53.851814 8.209130 32,000 306 485 -64
2019-06-15 16:07:40 GMT 53.849579 8.214321 32,000 306 485 0
2019-06-15 16:07:37 GMT 53.841339 8.233687 32,000 306 484 0
2019-06-15 16:07:34 GMT 53.837036 8.243827 32,000 306 485 0
2019-06-15 16:07:31 GMT 53.837036 8.243827 32,000 306 485 0
2019-06-15 16:07:28 GMT 53.832458 8.254578 32,000 306 485 0
2019-06-15 16:07:25 GMT 53.828430 8.264151 32,000 306 485 0
2019-06-15 16:07:22 GMT 53.825001 8.272140 32,000 306 485 0
2019-06-15 16:07:19 GMT 53.821335 8.280709 32,000 306 484 0
2019-06-15 16:07:16 GMT 53.817551 8.289588 32,000 306 484 0
2019-06-15 16:07:13 GMT 53.812317 8.301897 32,000 306 485 0
2019-06-15 16:07:09 GMT 53.808014 8.312020 31,975 306 485 0
2019-06-15 16:07:06 GMT 53.801102 8.328265 31,975 306 485 -64
2019-06-15 16:07:00 GMT 53.795719 8.340885 32,000 306 485 0
2019-06-15 16:06:56 GMT 53.786457 8.362615 32,000 306 484 0
2019-06-15 16:06:53 GMT 53.786457 8.362615 32,000 306 484 0
2019-06-15 16:06:50 GMT 53.782917 8.370936 32,000 306 484 0
2019-06-15 16:06:47 GMT 53.780079 8.377641 32,000 306 484 0
2019-06-15 16:06:44 GMT 53.775238 8.389003 32,000 306 484 0
2019-06-15 16:06:41 GMT 53.770393 8.400340 32,000 306 484 0
2019-06-15 16:06:38 GMT 53.768280 8.405247 32,000 306 484 0
2019-06-15 16:06:35 GMT 53.763565 8.416234 32,000 306 484 0
2019-06-15 16:06:32 GMT 53.759537 8.425729 32,000 306 484 0
2019-06-15 16:06:29 GMT 53.755314 8.435480 32,000 306 484 0
2019-06-15 16:06:26 GMT 53.752983 8.440974 32,000 306 484 0
2019-06-15 16:06:23 GMT 53.744186 8.461492 32,000 306 484 0
2019-06-15 16:06:20 GMT 53.740952 8.469125 32,000 306 484 0
2019-06-15 16:06:17 GMT 53.737152 8.477992 32,000 306 484 0
2019-06-15 16:06:14 GMT 53.731525 8.491139 32,000 306 484 0
2019-06-15 16:06:10 GMT 53.731525 8.491139 32,000 306 484 0
2019-06-15 16:06:07 GMT 53.727859 8.499730 32,000 306 484 0
2019-06-15 16:06:04 GMT 53.723373 8.510088 32,000 306 484 0
2019-06-15 16:06:01 GMT 53.718678 8.521109 32,000 306 485 0
2019-06-15 16:05:58 GMT 53.716187 8.526882 32,000 307 484 0
2019-06-15 16:05:55 GMT 53.711197 8.538496 32,000 307 484 0
2019-06-15 16:05:51 GMT 53.701859 8.560233 32,000 306 485 0
2019-06-15 16:05:48 GMT 53.697914 8.569336 32,000 306 485 0
2019-06-15 16:05:45 GMT 53.693306 8.580080 32,000 306 485 -64
2019-06-15 16:05:42 GMT 53.693306 8.580080 32,000 306 485 0
2019-06-15 16:05:38 GMT 53.689487 8.588885 32,000 307 484 0
2019-06-15 16:05:35 GMT 53.681202 8.608111 32,000 307 484 0
2019-06-15 16:05:32 GMT 53.675308 8.621835 32,000 306 484 0
2019-06-15 16:05:27 GMT 53.675308 8.621835 32,000 307 484 0
2019-06-15 16:05:24 GMT 53.666908 8.641313 31,975 306 484 0
2019-06-15 16:05:17 GMT 53.661369 8.654157 32,000 306 484 0
2019-06-15 16:05:14 GMT 53.657318 8.663608 32,000 306 484 0
2019-06-15 16:05:11 GMT 53.654022 8.671273 32,000 307 484 0
2019-06-15 16:05:07 GMT 53.647079 8.687358 32,000 306 484 -64
2019-06-15 16:05:04 GMT 53.643814 8.695051 32,000 307 484 -64
2019-06-15 16:05:00 GMT 53.634705 8.716003 32,000 307 483 -64
2019-06-15 16:04:57 GMT 53.634705 8.716003 32,000 307 485 0
2019-06-15 16:04:54 GMT 53.630505 8.725730 32,000 307 482 0
2019-06-15 16:04:50 GMT 53.620102 8.749747 32,000 307 483 0
2019-06-15 16:04:46 GMT 53.620102 8.749747 32,000 307 484 0
2019-06-15 16:04:43 GMT 53.616806 8.757281 32,000 307 483 0
2019-06-15 16:04:40 GMT 53.613373 8.765206 32,000 307 484 -64
2019-06-15 16:04:36 GMT 53.607147 8.779489 32,000 307 484 0
2019-06-15 16:04:33 GMT 53.603073 8.788906 32,000 307 483 0
2019-06-15 16:04:29 GMT 53.599129 8.797949 32,000 307 483 0
2019-06-15 16:04:25 GMT 53.593170 8.811601 32,000 307 483 0
2019-06-15 16:04:22 GMT 53.589249 8.820766 32,000 307 483 0
2019-06-15 16:04:19 GMT 53.584900 8.830732 32,000 307 484 0
2019-06-15 16:04:14 GMT 53.578674 8.845014 32,000 307 484 0
2019-06-15 16:04:11 GMT 53.574177 8.855304 32,000 307 484 0
2019-06-15 16:04:08 GMT 53.571671 8.861023 32,000 307 483 0
2019-06-15 16:04:05 GMT 53.562836 8.881348 32,000 307 484 0
2019-06-15 16:04:02 GMT 53.562836 8.881348 32,000 307 483 0
2019-06-15 16:03:59 GMT 53.558907 8.890363 32,000 307 483 0
2019-06-15 16:03:55 GMT 53.553223 8.903399 32,000 307 484 0
2019-06-15 16:03:52 GMT 53.549377 8.912188 32,000 307 484 0
2019-06-15 16:03:49 GMT 53.545780 8.920333 32,000 307 484 0
2019-06-15 16:03:46 GMT 53.541687 8.929688 32,000 307 484 0
2019-06-15 16:03:43 GMT 53.537727 8.938751 32,000 307 483 -64
2019-06-15 16:03:40 GMT 53.532558 8.950545 32,000 307 483 -64
2019-06-15 16:03:37 GMT 53.523018 8.972195 32,000 307 483 0
2019-06-15 16:03:33 GMT 53.523018 8.972195 32,000 307 483 0
2019-06-15 16:03:30 GMT 53.516640 8.986655 32,000 307 482 0
2019-06-15 16:03:24 GMT 53.511475 8.998431 32,000 307 483 0
2019-06-15 16:03:21 GMT 53.507263 9.008083 32,000 307 483 0
2019-06-15 16:03:17 GMT 53.503326 9.017186 32,000 307 483 0
2019-06-15 16:03:13 GMT 53.496780 9.032253 32,000 307 482 0
2019-06-15 16:03:10 GMT 53.493622 9.039551 32,000 307 483 0
2019-06-15 16:03:07 GMT 53.490849 9.045868 32,000 307 483 0
2019-06-15 16:03:03 GMT 53.484741 9.059719 32,000 307 483 0
2019-06-15 16:03:00 GMT 53.481308 9.067566 32,000 307 483 0
2019-06-15 16:02:57 GMT 53.475861 9.079877 32,000 307 483 0
2019-06-15 16:02:54 GMT 53.472321 9.088036 32,000 307 483 0
2019-06-15 16:02:51 GMT 53.467525 9.098861 32,000 307 483 0
2019-06-15 16:02:48 GMT 53.464233 9.106332 32,000 307 482 0
2019-06-15 16:02:45 GMT 53.460663 9.114493 32,000 307 482 0
2019-06-15 16:02:42 GMT 53.457230 9.122341 32,000 307 482 0
2019-06-15 16:02:39 GMT 53.452072 9.134001 32,000 307 482 0
2019-06-15 16:02:36 GMT 53.449978 9.138848 32,000 307 482 0
2019-06-15 16:02:33 GMT 53.446159 9.147572 32,000 307 482 0
2019-06-15 16:02:30 GMT 53.435825 9.170999 32,000 307 482 0
2019-06-15 16:02:27 GMT 53.435825 9.170999 32,000 307 482 0
2019-06-15 16:02:24 GMT 53.433170 9.176977 32,000 307 482 0
2019-06-15 16:02:21 GMT 53.429581 9.185041 32,000 307 482 0
2019-06-15 16:02:18 GMT 53.425259 9.194991 32,000 307 482 0
2019-06-15 16:02:15 GMT 53.420322 9.206058 32,000 307 482 0
2019-06-15 16:02:12 GMT 53.413433 9.221649 32,000 307 482 0
2019-06-15 16:02:09 GMT 53.413433 9.221649 32,000 307 482 0
2019-06-15 16:02:06 GMT 53.408936 9.231812 31,975 307 482 0
2019-06-15 16:02:03 GMT 53.405613 9.239340 32,000 307 482 0
2019-06-15 16:02:00 GMT 53.401657 9.248291 32,000 307 482 0
2019-06-15 16:01:57 GMT 53.396622 9.259670 32,000 307 483 0
2019-06-15 16:01:53 GMT 53.392300 9.269634 32,000 307 482 0
2019-06-15 16:01:50 GMT 53.387009 9.281642 31,975 307 482 0
2019-06-15 16:01:47 GMT 53.385036 9.286113 32,000 307 482 -64
2019-06-15 16:01:44 GMT 53.379215 9.299281 32,000 307 482 0
2019-06-15 16:01:41 GMT 53.376663 9.305028 32,000 307 482 -64
2019-06-15 16:01:38 GMT 53.372452 9.314601 32,000 307 482 -64
2019-06-15 16:01:35 GMT 53.364899 9.331630 32,000 307 482 0
2019-06-15 16:01:29 GMT 53.359863 9.343009 32,000 307 483 -64
2019-06-15 16:01:26 GMT 53.355469 9.352897 32,000 307 483 -64
2019-06-15 16:01:20 GMT 53.347504 9.370867 32,000 307 483 0
2019-06-15 16:01:17 GMT 53.344303 9.378043 32,000 307 483 -64
2019-06-15 16:01:14 GMT 53.341232 9.384914 32,000 307 483 0
2019-06-15 16:01:11 GMT 53.336426 9.395586 31,975 307 483 0
2019-06-15 16:01:08 GMT 53.331921 9.405751 31,975 307 483 -64
2019-06-15 16:01:05 GMT 53.329376 9.411438 32,000 307 483 -64
2019-06-15 16:01:02 GMT 53.323631 9.424250 32,000 307 483 0
2019-06-15 16:00:59 GMT 53.319118 9.434428 32,000 307 482 0
2019-06-15 16:00:56 GMT 53.315907 9.441618 32,000 307 482 0
2019-06-15 16:00:53 GMT 53.311249 9.452009 32,000 307 482 0
2019-06-15 16:00:50 GMT 53.308456 9.458340 31,975 307 482 0
2019-06-15 16:00:47 GMT 53.303696 9.469038 31,975 307 482 0
2019-06-15 16:00:43 GMT 53.298615 9.480416 31,975 307 482 -64
2019-06-15 16:00:40 GMT 53.295189 9.488148 31,975 307 482 0
2019-06-15 16:00:37 GMT 53.289734 9.500349 32,000 307 482 0
2019-06-15 16:00:34 GMT 53.287994 9.504272 32,000 307 481 -64
2019-06-15 16:00:31 GMT 53.282574 9.516503 32,000 307 481 -64
2019-06-15 16:00:28 GMT 53.278477 9.525712 32,000 307 481 -64
2019-06-15 16:00:25 GMT 53.273960 9.535810 32,000 307 481 0
2019-06-15 16:00:22 GMT 53.266113 9.553319 32,000 307 481 0
2019-06-15 16:00:19 GMT 53.266113 9.553319 32,000 307 481 0
2019-06-15 16:00:16 GMT 53.263412 9.559283 32,000 307 481 0
2019-06-15 16:00:13 GMT 53.259293 9.568464 32,000 307 481 0
2019-06-15 16:00:10 GMT 53.254898 9.578273 32,000 307 481 0
2019-06-15 16:00:07 GMT 53.252243 9.584237 32,000 307 481 0
2019-06-15 16:00:04 GMT 53.248123 9.593419 32,000 307 481 0
2019-06-15 16:00:01 GMT 53.243500 9.603856 32,000 307 481 0
2019-06-15 15:59:58 GMT 53.240307 9.610937 32,000 307 481 0
2019-06-15 15:59:55 GMT 53.235123 9.622532 32,000 307 481 0
2019-06-15 15:59:52 GMT 53.231365 9.630809 32,000 307 481 0
2019-06-15 15:59:49 GMT 53.226990 9.640584 32,000 307 481 0
2019-06-15 15:59:46 GMT 53.223499 9.648339 32,000 307 482 0
2019-06-15 15:59:43 GMT 53.218872 9.658630 32,000 307 482 0
2019-06-15 15:59:40 GMT 53.213676 9.670231 32,000 307 482 0
2019-06-15 15:59:37 GMT 53.211536 9.674997 32,000 307 482 0
2019-06-15 15:59:34 GMT 53.207394 9.684125 32,000 307 482 0
2019-06-15 15:59:31 GMT 53.203899 9.691880 32,000 307 482 0
2019-06-15 15:59:28 GMT 53.198456 9.703988 32,000 307 482 0
2019-06-15 15:59:25 GMT 53.195801 9.709952 32,000 307 481 0
2019-06-15 15:59:22 GMT 53.190865 9.720881 32,000 307 481 0
2019-06-15 15:59:19 GMT 53.187378 9.728551 32,000 307 482 0
2019-06-15 15:59:16 GMT 53.182301 9.739865 32,000 307 482 0
2019-06-15 15:59:13 GMT 53.179367 9.746364 32,000 307 482 0
2019-06-15 15:59:10 GMT 53.170010 9.767007 32,000 308 482 0
2019-06-15 15:59:07 GMT 53.170010 9.767007 32,000 307 482 0
2019-06-15 15:59:04 GMT 53.166916 9.773830 32,000 307 482 0
2019-06-15 15:59:01 GMT 53.162003 9.784779 32,000 307 482 0
2019-06-15 15:58:58 GMT 53.159721 9.789869 32,000 307 482 0
2019-06-15 15:58:55 GMT 53.155441 9.799320 32,000 307 482 0
2019-06-15 15:58:52 GMT 53.151443 9.808201 32,000 307 482 0
2019-06-15 15:58:49 GMT 53.142929 9.827114 32,000 307 482 0
2019-06-15 15:58:43 GMT 53.139565 9.834541 32,000 307 482 0
2019-06-15 15:58:40 GMT 53.135700 9.843104 32,000 307 482 0
2019-06-15 15:58:37 GMT 53.131302 9.852853 32,000 307 482 -64
2019-06-15 15:58:34 GMT 53.127277 9.861684 32,000 308 482 0
2019-06-15 15:58:31 GMT 53.123783 9.869358 32,000 308 482 0
2019-06-15 15:58:28 GMT 53.119354 9.879142 32,000 308 482 0
2019-06-15 15:58:25 GMT 53.114799 9.889149 32,000 308 482 0
2019-06-15 15:58:22 GMT 53.111435 9.896484 31,975 308 484 0
2019-06-15 15:58:19 GMT 53.105816 9.908941 32,000 307 482 0
2019-06-15 15:58:16 GMT 53.103115 9.914838 32,000 307 482 0
2019-06-15 15:58:13 GMT 53.095108 9.932582 32,000 307 482 0
2019-06-15 15:58:10 GMT 53.095108 9.932582 32,000 307 482 0
2019-06-15 15:58:04 GMT 53.086823 9.950867 32,000 307 482 0
2019-06-15 15:58:01 GMT 53.083054 9.959183 32,000 308 483 0
2019-06-15 15:57:57 GMT 53.072578 9.982256 32,000 308 483 0
2019-06-15 15:57:54 GMT 53.072578 9.982256 32,000 308 483 -64
2019-06-15 15:57:51 GMT 53.068714 9.990810 32,000 308 483 0
2019-06-15 15:57:48 GMT 53.064651 9.999695 32,000 308 483 0
2019-06-15 15:57:44 GMT 53.059937 10.009995 32,000 308 484 0
2019-06-15 15:57:38 GMT 53.052139 10.027143 32,000 308 484 -64
2019-06-15 15:57:34 GMT 53.045425 10.041885 31,975 308 484 0
2019-06-15 15:57:31 GMT 53.041260 10.051041 31,975 308 484 64
2019-06-15 15:57:27 GMT 53.037872 10.058441 32,000 308 484 0
2019-06-15 15:57:24 GMT 53.032333 10.070572 32,000 308 484 0
2019-06-15 15:57:21 GMT 53.028305 10.079407 31,975 308 484 -64
2019-06-15 15:57:18 GMT 53.025330 10.085907 31,975 308 484 0
2019-06-15 15:57:15 GMT 53.021835 10.093610 31,975 308 484 -64
2019-06-15 15:57:12 GMT 53.017365 10.103378 31,975 308 484 0
2019-06-15 15:57:09 GMT 53.013153 10.112534 31,975 308 484 -64
2019-06-15 15:57:06 GMT 53.005188 10.129929 32,000 308 485 0
2019-06-15 15:57:00 GMT 53.000565 10.139999 31,975 308 486 0
2019-06-15 15:56:57 GMT 52.992966 10.156555 32,000 308 485 0
2019-06-15 15:56:54 GMT 52.992966 10.156555 32,000 308 485 -64
2019-06-15 15:56:51 GMT 52.989166 10.164871 31,975 308 486 -64
2019-06-15 15:56:48 GMT 52.983353 10.177536 31,975 308 485 -64
2019-06-15 15:56:44 GMT 52.979965 10.184937 32,000 308 485 0
2019-06-15 15:56:41 GMT 52.975204 10.195236 32,000 308 485 0
2019-06-15 15:56:37 GMT 52.968155 10.210648 32,000 308 485 0
2019-06-15 15:56:34 GMT 52.964622 10.218305 32,000 308 485 0
2019-06-15 15:56:28 GMT 52.956615 10.235726 32,000 308 485 0
2019-06-15 15:56:25 GMT 52.953358 10.242789 32,000 308 484 0
2019-06-15 15:56:22 GMT 52.949570 10.251083 32,000 308 485 -64
2019-06-15 15:56:19 GMT 52.944839 10.261387 32,000 308 485 -64
2019-06-15 15:56:16 GMT 52.942017 10.267639 32,000 308 485 0
2019-06-15 15:56:13 GMT 52.937256 10.277939 32,000 308 485 0
2019-06-15 15:56:09 GMT 52.931534 10.290298 32,000 308 484 0
2019-06-15 15:56:06 GMT 52.927963 10.297928 32,000 308 484 -64
2019-06-15 15:56:03 GMT 52.923477 10.307617 32,000 308 484 0
2019-06-15 15:56:00 GMT 52.918945 10.317307 32,000 308 484 0
2019-06-15 15:55:57 GMT 52.915009 10.325775 32,000 308 484 0
2019-06-15 15:55:54 GMT 52.906292 10.344570 32,000 308 484 -64
2019-06-15 15:55:51 GMT 52.902740 10.352249 32,000 308 484 -64
2019-06-15 15:55:48 GMT 52.902740 10.352249 32,000 308 484 -64
2019-06-15 15:55:45 GMT 52.895142 10.368652 32,000 308 484 0
2019-06-15 15:55:42 GMT 52.895142 10.368652 32,000 308 485 0
2019-06-15 15:55:39 GMT 52.889580 10.380746 32,000 308 485 0
2019-06-15 15:55:36 GMT 52.886974 10.386318 32,000 308 485 0
2019-06-15 15:55:33 GMT 52.882370 10.396271 31,975 308 484 0
2019-06-15 15:55:30 GMT 52.878548 10.404524 32,000 308 484 0
2019-06-15 15:55:27 GMT 52.874870 10.412449 31,975 308 484 0
2019-06-15 15:55:24 GMT 52.870926 10.420914 31,975 308 484 -64
2019-06-15 15:55:21 GMT 52.862320 10.439377 31,975 308 484 0
2019-06-15 15:55:18 GMT 52.862320 10.439377 31,975 308 485 0
2019-06-15 15:55:14 GMT 52.855877 10.453099 31,975 308 484 -64
2019-06-15 15:55:11 GMT 52.852711 10.459848 31,975 308 484 0
2019-06-15 15:55:08 GMT 52.847496 10.470912 32,000 308 484 -64
2019-06-15 15:55:05 GMT 52.844517 10.477347 32,000 308 484 0
2019-06-15 15:55:02 GMT 52.840282 10.486450 32,000 308 484 0
2019-06-15 15:54:59 GMT 52.834789 10.498143 32,000 308 484 0
2019-06-15 15:54:56 GMT 52.830872 10.506668 32,000 308 484 0
2019-06-15 15:54:53 GMT 52.827435 10.513994 32,000 308 484 0
2019-06-15 15:54:49 GMT 52.821056 10.527727 32,000 308 484 -64
2019-06-15 15:54:46 GMT 52.818420 10.533218 32,000 308 484 -64
2019-06-15 15:54:43 GMT 52.815002 10.540519 32,000 308 484 -64
2019-06-15 15:54:40 GMT 52.808990 10.553360 32,000 308 483 0
2019-06-15 15:54:37 GMT 52.805553 10.560686 32,000 308 483 0
2019-06-15 15:54:34 GMT 52.795670 10.581589 32,000 308 483 0
2019-06-15 15:54:30 GMT 52.795670 10.581589 32,000 308 483 0
2019-06-15 15:54:27 GMT 52.793076 10.587132 32,000 308 484 0
2019-06-15 15:54:24 GMT 52.788002 10.597883 32,000 308 484 0
2019-06-15 15:54:21 GMT 52.783997 10.606308 32,000 308 484 -64
2019-06-15 15:54:18 GMT 52.780045 10.614755 32,000 308 484 -64
2019-06-15 15:54:15 GMT 52.776031 10.623169 32,000 308 484 -64
2019-06-15 15:54:12 GMT 52.772038 10.631627 32,000 308 484 0
2019-06-15 15:54:09 GMT 52.767792 10.640640 32,000 308 483 0
2019-06-15 15:54:05 GMT 52.761200 10.654602 32,000 308 484 0
2019-06-15 15:54:02 GMT 52.758072 10.661290 32,000 309 484 0
2019-06-15 15:53:59 GMT 52.753414 10.671177 32,000 308 483 0
2019-06-15 15:53:56 GMT 52.744942 10.689540 32,000 308 483 0
2019-06-15 15:53:53 GMT 52.744942 10.689540 32,000 308 483 0
2019-06-15 15:53:50 GMT 52.741638 10.696211 32,000 309 483 -64
2019-06-15 15:53:47 GMT 52.737076 10.705795 32,000 309 483 -64
2019-06-15 15:53:44 GMT 52.732002 10.716457 32,000 309 483 -64
2019-06-15 15:53:41 GMT 52.729385 10.721970 32,000 309 484 0
2019-06-15 15:53:37 GMT 52.719620 10.742589 32,000 309 483 0
2019-06-15 15:53:34 GMT 52.719620 10.742589 32,000 309 483 0
2019-06-15 15:53:31 GMT 52.715607 10.750961 32,000 308 484 0
2019-06-15 15:53:28 GMT 52.711613 10.759382 32,000 308 484 0
2019-06-15 15:53:25 GMT 52.706268 10.770721 32,000 308 483 0
2019-06-15 15:53:22 GMT 52.703369 10.776803 32,000 308 484 -64
2019-06-15 15:53:19 GMT 52.699276 10.785514 32,000 308 484 0
2019-06-15 15:53:16 GMT 52.690842 10.803528 32,000 308 482 0
2019-06-15 15:53:13 GMT 52.690842 10.803528 32,000 308 482 0
2019-06-15 15:53:10 GMT 52.686798 10.812273 32,000 308 482 0
2019-06-15 15:53:06 GMT 52.681503 10.823669 32,000 308 482 0
2019-06-15 15:53:03 GMT 52.677292 10.832672 32,000 308 482 0
2019-06-15 15:53:00 GMT 52.672554 10.842800 32,000 308 482 0
2019-06-15 15:52:57 GMT 52.668503 10.851593 32,000 308 483 0
2019-06-15 15:52:54 GMT 52.664314 10.860613 32,000 307 482 0
2019-06-15 15:52:51 GMT 52.660126 10.869638 32,000 308 482 0
2019-06-15 15:52:48 GMT 52.653122 10.884781 32,000 307 482 0
2019-06-15 15:52:42 GMT 52.648407 10.895004 32,000 307 482 0
2019-06-15 15:52:38 GMT 52.639503 10.914603 32,000 307 481 0
2019-06-15 15:52:34 GMT 52.633263 10.928414 32,000 307 481 0
2019-06-15 15:52:30 GMT 52.633263 10.928414 32,000 307 482 0
2019-06-15 15:52:27 GMT 52.629211 10.937517 31,975 306 479 0
2019-06-15 15:52:24 GMT 52.625015 10.946960 32,000 306 480 0
2019-06-15 15:52:20 GMT 52.619808 10.958705 32,000 306 480 0
2019-06-15 15:52:17 GMT 52.616180 10.967026 31,975 304 477 0
2019-06-15 15:52:14 GMT 52.610916 10.979156 31,975 306 479 0
2019-06-15 15:52:10 GMT 52.607071 10.988083 32,000 305 479 0
2019-06-15 15:52:07 GMT 52.602173 10.999680 31,975 305 479 0
2019-06-15 15:52:04 GMT 52.599884 11.005096 31,975 305 479 0
2019-06-15 15:52:01 GMT 52.591042 11.026350 31,975 304 478 0
2019-06-15 15:51:55 GMT 52.587250 11.035690 31,975 304 477 0
2019-06-15 15:51:52 GMT 52.585648 11.039581 31,975 304 477 -64
2019-06-15 15:51:49 GMT 52.581684 11.049578 31,975 303 476 -64
2019-06-15 15:51:46 GMT 52.578194 11.058367 31,975 302 476 -64
2019-06-15 15:51:43 GMT 52.573654 11.070251 32,000 302 475 -64
2019-06-15 15:51:40 GMT 52.570084 11.079788 32,000 302 474 -64
2019-06-15 15:51:37 GMT 52.562271 11.100978 32,000 302 473 0
2019-06-15 15:51:33 GMT 52.562271 11.100978 32,000 302 473 0
2019-06-15 15:51:30 GMT 52.559338 11.108983 32,000 302 474 64
2019-06-15 15:51:27 GMT 52.555939 11.118243 32,000 302 474 64
2019-06-15 15:51:24 GMT 52.552124 11.128680 32,000 302 473 0
2019-06-15 15:51:20 GMT 52.544312 11.149826 31,975 302 473 0
2019-06-15 15:51:17 GMT 52.544312 11.149826 31,975 302 473 0
2019-06-15 15:51:13 GMT 52.539646 11.162345 31,975 302 473 -64
2019-06-15 15:51:09 GMT 52.531967 11.183219 31,975 302 473 -64
2019-06-15 15:51:06 GMT 52.531967 11.183219 32,000 302 471 0
2019-06-15 15:51:00 GMT 52.525169 11.201660 32,000 302 473 -64
2019-06-15 15:50:56 GMT 52.521446 11.211705 32,000 302 473 0
2019-06-15 15:50:53 GMT 52.517906 11.221200 32,000 302 471 0
2019-06-15 15:50:50 GMT 52.510319 11.241682 32,000 302 473 0
2019-06-15 15:50:47 GMT 52.510319 11.241682 32,000 302 473 0
2019-06-15 15:50:44 GMT 52.507736 11.248703 32,000 302 473 0
2019-06-15 15:50:40 GMT 52.501705 11.264910 32,000 302 472 0
2019-06-15 15:50:37 GMT 52.499680 11.270447 32,000 302 473 0
2019-06-15 15:50:34 GMT 52.495564 11.281390 32,000 302 472 0
2019-06-15 15:50:28 GMT 52.488670 11.300066 32,000 302 472 0
2019-06-15 15:50:25 GMT 52.485600 11.308620 32,000 302 472 0
2019-06-15 15:50:22 GMT 52.477936 11.329117 31,975 302 472 0
2019-06-15 15:50:19 GMT 52.477936 11.329117 32,000 302 472 0
2019-06-15 15:50:16 GMT 52.475452 11.335772 31,975 302 472 0
2019-06-15 15:50:13 GMT 52.471958 11.345267 31,975 302 471 0
2019-06-15 15:50:10 GMT 52.468781 11.353760 31,975 302 471 0
2019-06-15 15:50:07 GMT 52.464466 11.365356 31,975 302 471 0
2019-06-15 15:50:04 GMT 52.458694 11.380894 32,000 302 470 0
2019-06-15 15:49:58 GMT 52.454636 11.391830 31,975 302 470 0
2019-06-15 15:49:54 GMT 52.450546 11.402788 32,000 302 470 0
2019-06-15 15:49:50 GMT 52.441406 11.427002 32,000 302 468 64
2019-06-15 15:49:46 GMT 52.441406 11.427002 32,000 302 468 0
2019-06-15 15:49:43 GMT 52.437885 11.436375 32,000 302 470 0
2019-06-15 15:49:40 GMT 52.429276 11.459427 32,000 302 469 0
2019-06-15 15:49:36 GMT 52.429276 11.459427 32,000 302 469 -64
2019-06-15 15:49:33 GMT 52.425873 11.468471 32,000 302 469 0
2019-06-15 15:49:29 GMT 52.422226 11.478195 32,000 302 470 -64
2019-06-15 15:49:25 GMT 52.418144 11.489031 32,000 302 469 -64
2019-06-15 15:49:21 GMT 52.413399 11.501744 32,000 302 467 0
2019-06-15 15:49:18 GMT 52.410004 11.510849 32,000 302 469 64
2019-06-15 15:49:15 GMT 52.405342 11.523246 32,000 302 469 64
2019-06-15 15:49:12 GMT 52.400036 11.537371 32,000 302 469 0
2019-06-15 15:49:06 GMT 52.395355 11.549759 31,975 302 469 0
2019-06-15 15:49:03 GMT 52.393066 11.555786 32,000 302 468 0
2019-06-15 15:49:00 GMT 52.388680 11.567583 31,975 302 469 0
2019-06-15 15:48:57 GMT 52.382538 11.583862 31,975 302 469 0
2019-06-15 15:48:54 GMT 52.382538 11.583862 31,975 302 469 0
2019-06-15 15:48:51 GMT 52.375271 11.603132 32,000 302 469 0
2019-06-15 15:48:44 GMT 52.371361 11.613726 32,000 302 468 0
2019-06-15 15:48:39 GMT 52.365448 11.629421 32,000 302 467 0
2019-06-15 15:48:35 GMT 52.360840 11.641769 32,000 302 468 0
2019-06-15 15:48:32 GMT 52.357765 11.649902 32,000 302 467 0
2019-06-15 15:48:29 GMT 52.354385 11.658859 32,000 302 467 0
2019-06-15 15:48:26 GMT 52.351089 11.667557 32,000 302 468 0
2019-06-15 15:48:23 GMT 52.347565 11.676865 31,975 302 467 0
2019-06-15 15:48:20 GMT 52.343719 11.687088 32,000 302 468 0
2019-06-15 15:48:17 GMT 52.340916 11.694632 32,000 302 466 0
2019-06-15 15:48:13 GMT 52.335709 11.708450 31,975 302 467 0
2019-06-15 15:48:10 GMT 52.328522 11.727676 31,975 302 467 0
2019-06-15 15:48:03 GMT 52.322296 11.744149 31,975 302 467 0
2019-06-15 15:47:57 GMT 52.313774 11.766671 31,975 302 468 -64
2019-06-15 15:47:53 GMT 52.313774 11.766671 32,000 302 468 0
2019-06-15 15:47:50 GMT 52.307053 11.784286 32,000 302 468 0
2019-06-15 15:47:47 GMT 52.303627 11.793274 32,000 302 468 0
2019-06-15 15:47:41 GMT 52.299904 11.803162 32,000 302 468 0
2019-06-15 15:47:38 GMT 52.296597 11.811872 32,000 302 466 64
2019-06-15 15:47:35 GMT 52.292587 11.822357 32,000 302 468 0
2019-06-15 15:47:31 GMT 52.287827 11.834869 32,000 302 467 0
2019-06-15 15:47:28 GMT 52.284401 11.843890 32,000 302 467 0
2019-06-15 15:47:25 GMT 52.282013 11.850128 32,000 302 467 -64
2019-06-15 15:47:22 GMT 52.277435 11.862106 32,000 302 467 -64
2019-06-15 15:47:19 GMT 52.274254 11.870492 32,000 302 467 -64
2019-06-15 15:47:16 GMT 52.270065 11.881561 32,000 302 467 0
2019-06-15 15:47:13 GMT 52.268478 11.885716 32,000 302 467 0
2019-06-15 15:47:10 GMT 52.263966 11.897644 32,000 302 466 64
2019-06-15 15:47:07 GMT 52.262009 11.902771 32,000 302 466 64
2019-06-15 15:47:04 GMT 52.257957 11.913496 32,000 302 467 0
2019-06-15 15:47:01 GMT 52.253952 11.923981 32,000 302 467 0
2019-06-15 15:46:58 GMT 52.247360 11.941223 31,975 302 466 0
2019-06-15 15:46:55 GMT 52.247360 11.941223 32,000 302 466 -64
2019-06-15 15:46:49 GMT 52.239853 11.960907 32,000 302 466 64
2019-06-15 15:46:46 GMT 52.237476 11.967172 32,000 302 466 64
2019-06-15 15:46:43 GMT 52.233192 11.978551 32,000 302 466 0
2019-06-15 15:46:40 GMT 52.229553 11.988068 32,000 302 466 64
2019-06-15 15:46:37 GMT 52.226582 11.995815 32,000 302 466 64
2019-06-15 15:46:33 GMT 52.223324 12.004447 32,000 302 466 64
2019-06-15 15:46:30 GMT 52.219116 12.015457 32,000 302 466 0
2019-06-15 15:46:27 GMT 52.216248 12.022888 32,000 302 466 0
2019-06-15 15:46:23 GMT 52.211380 12.035599 32,000 302 466 0
2019-06-15 15:46:19 GMT 52.206024 12.049637 32,000 302 466 0
2019-06-15 15:46:16 GMT 52.203030 12.057338 32,000 302 466 0
2019-06-15 15:46:12 GMT 52.195404 12.077255 32,000 302 466 0
2019-06-15 15:46:09 GMT 52.195404 12.077255 32,000 302 466 -64
2019-06-15 15:46:06 GMT 52.191437 12.087629 32,000 302 466 -64
2019-06-15 15:46:03 GMT 52.187897 12.096889 32,000 302 466 0
2019-06-15 15:46:00 GMT 52.183334 12.108738 32,000 302 466 -64
2019-06-15 15:45:57 GMT 52.178238 12.122116 32,000 302 466 -64
2019-06-15 15:45:50 GMT 52.173889 12.133408 32,000 302 466 0
2019-06-15 15:45:47 GMT 52.170593 12.142029 32,000 302 466 0
2019-06-15 15:45:44 GMT 52.166157 12.153625 32,000 302 466 0
2019-06-15 15:45:40 GMT 52.157036 12.177482 32,000 303 467 0
2019-06-15 15:45:36 GMT 52.157036 12.177482 32,000 303 467 0
2019-06-15 15:45:33 GMT 52.154289 12.184544 31,975 303 467 0
2019-06-15 15:45:30 GMT 52.150314 12.194977 31,975 303 467 0
2019-06-15 15:45:26 GMT 52.146885 12.203849 31,975 303 467 0
2019-06-15 15:45:23 GMT 52.143173 12.213364 31,975 303 467 0
2019-06-15 15:45:19 GMT 52.134968 12.234767 31,975 303 467 -64
2019-06-15 15:45:13 GMT 52.131386 12.243949 31,975 303 467 -64
2019-06-15 15:45:10 GMT 52.122494 12.267177 32,000 302 468 0
2019-06-15 15:45:06 GMT 52.122494 12.267177 32,000 303 467 0
2019-06-15 15:45:01 GMT 52.117447 12.280273 32,000 303 467 0
2019-06-15 15:44:58 GMT 52.113091 12.291504 31,975 303 467 0
2019-06-15 15:44:55 GMT 52.110992 12.296919 31,975 303 467 0
2019-06-15 15:44:52 GMT 52.106434 12.308768 31,975 303 467 0
2019-06-15 15:44:48 GMT 52.103439 12.316513 31,975 303 468 0
2019-06-15 15:44:45 GMT 52.099171 12.327523 31,975 303 468 0
2019-06-15 15:44:42 GMT 52.095749 12.336426 31,975 303 469 0
2019-06-15 15:44:36 GMT 52.088608 12.354813 31,975 303 469 -64
2019-06-15 15:44:33 GMT 52.084457 12.365505 32,000 303 469 -64
2019-06-15 15:44:30 GMT 52.082829 12.369664 31,975 303 469 -64
2019-06-15 15:44:27 GMT 52.077755 12.382769 32,000 303 469 -64
2019-06-15 15:44:24 GMT 52.075333 12.388992 32,000 303 469 -64
2019-06-15 15:44:21 GMT 52.068192 12.407455 32,000 303 468 0
2019-06-15 15:44:14 GMT 52.063797 12.418747 32,000 303 469 0
2019-06-15 15:44:11 GMT 52.059631 12.429428 32,000 303 468 0
2019-06-15 15:44:08 GMT 52.056885 12.436523 32,000 303 468 0
2019-06-15 15:44:04 GMT 52.051781 12.449629 32,000 303 468 0
2019-06-15 15:44:01 GMT 52.048325 12.458496 32,000 303 468 0
2019-06-15 15:43:55 GMT 52.041367 12.476273 32,000 303 468 0
2019-06-15 15:43:52 GMT 52.034821 12.493210 32,000 303 467 0
2019-06-15 15:43:46 GMT 52.031479 12.501831 32,000 303 468 0
2019-06-15 15:43:43 GMT 52.023560 12.522278 32,000 303 468 0
2019-06-15 15:43:40 GMT 52.023560 12.522278 32,000 303 468 0
2019-06-15 15:43:37 GMT 52.020172 12.530899 32,000 303 468 0
2019-06-15 15:43:33 GMT 52.016167 12.541207 32,000 303 468 0
2019-06-15 15:43:29 GMT 52.011795 12.552490 32,000 303 468 0
2019-06-15 15:43:25 GMT 52.007740 12.562866 32,000 303 467 0
2019-06-15 15:43:22 GMT 52.002777 12.575531 32,000 303 467 0
2019-06-15 15:43:18 GMT 51.998711 12.585859 32,000 303 467 0
2019-06-15 15:43:15 GMT 51.992249 12.602463 32,000 303 467 0
2019-06-15 15:43:12 GMT 51.988678 12.611618 31,975 303 467 0
2019-06-15 15:43:09 GMT 51.985794 12.619019 32,000 303 468 0
2019-06-15 15:43:03 GMT 51.981720 12.629318 32,000 303 467 0
2019-06-15 15:42:57 GMT 51.974083 12.648717 32,000 303 467 0
2019-06-15 15:42:54 GMT 51.970825 12.657013 32,000 303 467 0
2019-06-15 15:42:51 GMT 51.967804 12.664642 32,000 303 467 0
2019-06-15 15:42:48 GMT 51.961468 12.680891 32,000 303 466 0
2019-06-15 15:42:41 GMT 51.955902 12.695007 32,000 303 466 0
2019-06-15 15:42:38 GMT 51.952927 12.702637 32,000 303 467 0
2019-06-15 15:42:35 GMT 51.949692 12.710946 32,000 303 467 0
2019-06-15 15:42:32 GMT 51.944916 12.723007 32,000 303 466 -64
2019-06-15 15:42:29 GMT 51.943085 12.727737 32,000 303 468 -64
2019-06-15 15:42:26 GMT 51.938461 12.739487 31,975 303 467 -64
2019-06-15 15:42:23 GMT 51.931396 12.757481 32,000 303 466 0
2019-06-15 15:42:20 GMT 51.931396 12.757481 32,000 303 466 -64
2019-06-15 15:42:17 GMT 51.927345 12.767761 32,000 303 466 0
2019-06-15 15:42:14 GMT 51.925415 12.772827 32,000 303 466 0
2019-06-15 15:42:11 GMT 51.920876 12.784241 32,000 303 467 0
2019-06-15 15:42:08 GMT 51.912449 12.805743 32,000 303 467 0
2019-06-15 15:42:03 GMT 51.912449 12.805743 32,000 303 467 0
2019-06-15 15:41:59 GMT 51.906445 12.820966 32,000 303 466 0
2019-06-15 15:41:55 GMT 51.902710 12.830353 32,000 303 466 0
2019-06-15 15:41:52 GMT 51.898762 12.840349 32,000 303 466 0
2019-06-15 15:41:48 GMT 51.894943 12.850002 32,000 303 466 0
2019-06-15 15:41:44 GMT 51.890289 12.861710 32,000 303 466 0
2019-06-15 15:41:41 GMT 51.887009 12.869964 32,000 303 466 0
2019-06-15 15:41:38 GMT 51.883072 12.879911 32,000 303 466 64
2019-06-15 15:41:34 GMT 51.878326 12.891846 32,000 303 466 64
2019-06-15 15:41:31 GMT 51.875301 12.899475 31,975 303 466 64
2019-06-15 15:41:28 GMT 51.867947 12.917862 31,975 303 466 0
2019-06-15 15:41:25 GMT 51.864487 12.926677 31,975 303 465 0
2019-06-15 15:41:19 GMT 51.861008 12.935410 31,975 303 465 0
2019-06-15 15:41:16 GMT 51.858124 12.942785 31,975 303 465 0
2019-06-15 15:41:13 GMT 51.852768 12.956238 31,975 303 465 0
2019-06-15 15:41:09 GMT 51.850441 12.962036 31,975 303 465 -64
2019-06-15 15:41:06 GMT 51.846039 12.973146 31,975 303 466 0
2019-06-15 15:41:02 GMT 51.840820 12.986285 31,975 303 465 -64
2019-06-15 15:40:59 GMT 51.837360 12.995071 32,000 303 464 0
2019-06-15 15:40:56 GMT 51.833961 13.003540 32,000 303 465 0
2019-06-15 15:40:51 GMT 51.827728 13.019318 32,000 303 465 0
2019-06-15 15:40:48 GMT 51.824341 13.027781 32,000 303 465 0
2019-06-15 15:40:45 GMT 51.822006 13.033571 32,000 303 465 0
2019-06-15 15:40:41 GMT 51.817841 13.044038 32,000 303 464 0
2019-06-15 15:40:38 GMT 51.812988 13.056286 31,975 303 464 0
2019-06-15 15:40:35 GMT 51.810196 13.063264 32,000 303 464 0
2019-06-15 15:40:32 GMT 51.805756 13.074324 32,000 303 464 0
2019-06-15 15:40:29 GMT 51.802414 13.082787 32,000 303 465 0
2019-06-15 15:40:26 GMT 51.798569 13.092363 32,000 303 465 -64
2019-06-15 15:40:20 GMT 51.792206 13.108368 32,000 303 463 0
2019-06-15 15:40:17 GMT 51.789040 13.116226 32,000 303 464 0
2019-06-15 15:40:14 GMT 51.784882 13.126658 32,000 303 463 0
2019-06-15 15:40:11 GMT 51.781769 13.134526 32,000 303 464 0
2019-06-15 15:40:07 GMT 51.776321 13.148185 32,000 303 463 0
2019-06-15 15:40:04 GMT 51.773865 13.154297 32,000 303 463 0
2019-06-15 15:40:01 GMT 51.770645 13.162438 32,000 303 463 0
2019-06-15 15:39:58 GMT 51.767166 13.171123 32,000 303 463 0
2019-06-15 15:39:53 GMT 51.760780 13.187103 32,000 303 463 0
2019-06-15 15:39:50 GMT 51.757198 13.196106 32,000 303 464 0
2019-06-15 15:39:47 GMT 51.755219 13.201038 31,975 303 464 0
2019-06-15 15:39:43 GMT 51.749657 13.214951 31,975 303 463 0
2019-06-15 15:39:40 GMT 51.744999 13.226471 31,975 303 464 0
2019-06-15 15:39:37 GMT 51.742672 13.232269 31,975 303 464 0
2019-06-15 15:39:33 GMT 51.736713 13.247070 31,975 303 463 -64
2019-06-15 15:39:30 GMT 51.734993 13.251419 31,975 303 463 -64
2019-06-15 15:39:27 GMT 51.730011 13.263931 32,000 303 465 0
2019-06-15 15:39:23 GMT 51.726192 13.273468 32,000 303 464 -64
2019-06-15 15:39:19 GMT 51.721207 13.285960 32,000 303 464 0
2019-06-15 15:39:16 GMT 51.718689 13.292344 32,000 303 464 0
2019-06-15 15:39:13 GMT 51.715302 13.300806 32,000 303 464 0
2019-06-15 15:39:10 GMT 51.711731 13.309788 32,000 303 464 0
2019-06-15 15:39:07 GMT 51.708847 13.317063 32,000 303 464 0
2019-06-15 15:39:04 GMT 51.705048 13.326713 32,000 303 465 0
2019-06-15 15:39:01 GMT 51.701935 13.334582 32,000 303 464 0
2019-06-15 15:38:58 GMT 51.698261 13.343887 32,000 303 465 0
2019-06-15 15:38:55 GMT 51.692963 13.357297 32,000 303 464 0
2019-06-15 15:38:50 GMT 51.687927 13.370139 32,000 303 464 0
2019-06-15 15:38:47 GMT 51.685043 13.377413 32,000 303 465 0
2019-06-15 15:38:44 GMT 51.681885 13.385653 32,000 300 465 0
2019-06-15 15:38:41 GMT 51.678772 13.393522 32,000 303 465 0
2019-06-15 15:38:38 GMT 51.671402 13.412552 32,000 302 465 0
2019-06-15 15:38:32 GMT 51.668427 13.420171 32,000 302 465 0
2019-06-15 15:38:29 GMT 51.660233 13.441698 32,000 302 465 0
2019-06-15 15:38:26 GMT 51.660233 13.441698 32,000 301 466 0
2019-06-15 15:38:20 GMT 51.654831 13.456173 31,975 301 466 0
2019-06-15 15:38:17 GMT 51.650780 13.467178 31,975 301 466 0
2019-06-15 15:38:14 GMT 51.647507 13.476142 31,975 300 466 0
2019-06-15 15:38:11 GMT 51.645355 13.482080 31,975 300 465 0
2019-06-15 15:38:08 GMT 51.641190 13.493805 31,975 300 466 0
2019-06-15 15:38:05 GMT 51.637573 13.503979 31,975 300 466 0
2019-06-15 15:38:02 GMT 51.635044 13.511276 31,975 299 466 0
2019-06-15 15:37:59 GMT 51.631832 13.520660 31,975 299 466 0
2019-06-15 15:37:56 GMT 51.624985 13.541392 31,975 298 466 0
2019-06-15 15:37:52 GMT 51.624985 13.541392 31,975 297 466 -64
2019-06-15 15:37:49 GMT 51.621681 13.551941 31,975 296 466 -64
2019-06-15 15:37:45 GMT 51.615120 13.574066 31,975 295 466 -128
2019-06-15 15:37:42 GMT 51.615120 13.574066 31,975 295 466 -64
2019-06-15 15:37:39 GMT 51.609951 13.592300 32,000 295 466 -64
2019-06-15 15:37:36 GMT 51.609951 13.592300 32,000 295 466 -64
2019-06-15 15:37:33 GMT 51.607811 13.599854 32,000 295 468 0
2019-06-15 15:37:30 GMT 51.602829 13.617554 32,000 295 466 -64
2019-06-15 15:37:27 GMT 51.602829 13.617554 32,000 295 467 0
2019-06-15 15:37:24 GMT 51.599243 13.630142 32,000 295 467 0
2019-06-15 15:37:21 GMT 51.596268 13.640518 32,000 295 467 0
2019-06-15 15:37:18 GMT 51.594589 13.646504 32,000 295 469 0
2019-06-15 15:37:14 GMT 51.591339 13.657862 32,000 295 468 64
2019-06-15 15:37:11 GMT 51.587906 13.669813 32,000 295 468 0
2019-06-15 15:37:08 GMT 51.582733 13.687851 31,975 295 469 64
2019-06-15 15:37:05 GMT 51.579941 13.697650 31,975 295 469 64
2019-06-15 15:36:58 GMT 51.576050 13.711234 31,975 295 469 0
2019-06-15 15:36:55 GMT 51.573360 13.720703 31,975 295 469 -64
2019-06-15 15:36:52 GMT 51.569962 13.732762 31,975 295 470 -64
2019-06-15 15:36:49 GMT 51.567902 13.740036 32,000 295 470 -64
2019-06-15 15:36:46 GMT 51.565495 13.748627 31,975 295 470 -64
2019-06-15 15:36:43 GMT 51.561863 13.761292 32,000 295 470 0
2019-06-15 15:36:37 GMT 51.557053 13.778043 32,000 295 470 0
2019-06-15 15:36:31 GMT 51.551743 13.796378 32,000 295 470 0
2019-06-15 15:36:28 GMT 51.548126 13.809072 32,000 295 470 0
2019-06-15 15:36:25 GMT 51.545334 13.818871 32,000 295 471 64
2019-06-15 15:36:22 GMT 51.543613 13.824844 32,000 295 471 0
2019-06-15 15:36:19 GMT 51.536957 13.847961 32,000 295 470 0
2019-06-15 15:36:16 GMT 51.536957 13.847961 32,000 295 471 0
2019-06-15 15:36:12 GMT 51.534584 13.856201 32,000 295 470 0
2019-06-15 15:36:09 GMT 51.531372 13.867270 32,000 295 471 0
2019-06-15 15:36:06 GMT 51.525833 13.886566 31,975 295 471 64
2019-06-15 15:36:00 GMT 51.523453 13.894810 31,975 295 471 64
2019-06-15 15:35:57 GMT 51.521072 13.903050 31,975 295 472 64
2019-06-15 15:35:54 GMT 51.518524 13.911896 31,975 296 472 0
2019-06-15 15:35:50 GMT 51.513702 13.928363 31,975 296 472 0
2019-06-15 15:35:45 GMT 51.508163 13.947366 32,000 296 473 0
2019-06-15 15:35:42 GMT 51.503403 13.963475 31,975 296 473 0
2019-06-15 15:35:36 GMT 51.501625 13.969498 31,975 296 473 0
2019-06-15 15:35:33 GMT 51.498924 13.978653 31,975 296 473 0
2019-06-15 15:35:30 GMT 51.493057 13.998586 32,000 296 474 -64
2019-06-15 15:35:27 GMT 51.493057 13.998586 32,000 296 474 -128
2019-06-15 15:35:21 GMT 51.486633 14.020157 32,000 296 474 -64
2019-06-15 15:35:18 GMT 51.484634 14.026794 32,000 296 473 0
2019-06-15 15:35:14 GMT 51.480770 14.039688 32,000 297 474 0
2019-06-15 15:35:11 GMT 51.477402 14.050771 32,000 297 474 0
2019-06-15 15:35:07 GMT 51.474426 14.060496 32,000 297 473 0
2019-06-15 15:35:04 GMT 51.471321 14.070587 32,000 297 473 64
2019-06-15 15:35:01 GMT 51.468529 14.079666 32,000 297 473 -64
2019-06-15 15:34:58 GMT 51.465546 14.089432 32,000 297 474 -64
2019-06-15 15:34:55 GMT 51.461868 14.101334 32,000 296 473 -64
2019-06-15 15:34:51 GMT 51.455727 14.121857 32,000 296 473 0
2019-06-15 15:34:45 GMT 51.452000 14.134445 32,000 296 472 64
2019-06-15 15:34:42 GMT 51.450027 14.141112 32,000 296 472 64
2019-06-15 15:34:38 GMT 51.445724 14.155587 32,000 296 472 64
2019-06-15 15:34:35 GMT 51.443802 14.161897 32,000 297 472 64
2019-06-15 15:34:32 GMT 51.440460 14.172512 32,000 298 473 64
2019-06-15 15:34:29 GMT 51.433594 14.192851 32,000 300 474 64
2019-06-15 15:34:26 GMT 51.433594 14.192851 32,000 301 474 64
2019-06-15 15:34:23 GMT 51.430893 14.200497 32,000 302 475 64
2019-06-15 15:34:19 GMT 51.425793 14.214020 32,000 303 477 64
2019-06-15 15:34:16 GMT 51.423416 14.219971 32,000 303 476 64
2019-06-15 15:34:13 GMT 51.418903 14.231262 32,000 304 478 0
2019-06-15 15:34:10 GMT 51.415970 14.238358 32,000 305 478 0
2019-06-15 15:34:07 GMT 51.412430 14.246826 31,975 305 478 128
2019-06-15 15:34:00 GMT 51.403492 14.267502 31,975 306 479 192
2019-06-15 15:33:57 GMT 51.398758 14.278144 31,975 306 479 64
2019-06-15 15:33:54 GMT 51.395920 14.284528 31,975 307 479 0
2019-06-15 15:33:51 GMT 51.391109 14.295197 32,000 314 483 0
2019-06-15 15:33:48 GMT 51.386314 14.305420 31,975 310 480 0
2019-06-15 15:33:44 GMT 51.382233 14.313404 32,000 312 482 64
2019-06-15 15:33:41 GMT 51.377289 14.322535 32,000 313 482 64
2019-06-15 15:33:38 GMT 51.373375 14.329376 32,000 314 484 0
2019-06-15 15:33:34 GMT 51.366951 14.340286 32,000 314 484 0
2019-06-15 15:33:31 GMT 51.358479 14.354553 32,000 314 483 0
2019-06-15 15:33:28 GMT 51.358479 14.354553 32,000 314 483 64
2019-06-15 15:33:25 GMT 51.352798 14.364179 32,000 314 483 -64
2019-06-15 15:33:22 GMT 51.347912 14.372482 31,975 314 484 64
2019-06-15 15:33:18 GMT 51.343277 14.380213 31,975 314 483 0
2019-06-15 15:33:15 GMT 51.337852 14.389191 32,000 314 483 -64
2019-06-15 15:33:12 GMT 51.328079 14.405377 32,000 315 480 0
2019-06-15 15:33:09 GMT 51.328079 14.405377 32,000 314 483 0
2019-06-15 15:33:06 GMT 51.324215 14.411774 32,000 314 483 0
2019-06-15 15:33:03 GMT 51.318302 14.421539 32,000 314 483 0
2019-06-15 15:33:00 GMT 51.313507 14.429474 32,000 314 483 -64
2019-06-15 15:32:56 GMT 51.308712 14.437408 32,000 314 483 -64
2019-06-15 15:32:52 GMT 51.302216 14.448209 32,000 314 482 0
2019-06-15 15:32:48 GMT 51.295441 14.459492 32,000 314 482 -64
2019-06-15 15:32:45 GMT 51.285919 14.475452 32,000 314 482 0
2019-06-15 15:32:41 GMT 51.285919 14.475452 32,000 314 482 0
2019-06-15 15:32:38 GMT 51.279942 14.485474 32,000 314 482 0
2019-06-15 15:32:35 GMT 51.274567 14.494456 32,000 314 481 64
2019-06-15 15:32:32 GMT 51.272552 14.497796 32,000 315 482 128
2019-06-15 15:32:29 GMT 51.267426 14.506184 31,975 315 482 128
2019-06-15 15:32:26 GMT 51.261368 14.516068 32,000 314 479 0
2019-06-15 15:32:23 GMT 51.257629 14.522144 32,000 314 481 0
2019-06-15 15:32:19 GMT 51.249756 14.535209 32,000 314 480 -64
2019-06-15 15:32:16 GMT 51.241653 14.548793 32,000 314 481 0
2019-06-15 15:32:13 GMT 51.241653 14.548793 32,000 314 481 0
2019-06-15 15:32:08 GMT 51.229111 14.569801 32,000 314 480 0
2019-06-15 15:32:02 GMT 51.225616 14.575729 32,000 314 478 0
2019-06-15 15:31:59 GMT 51.219799 14.585419 32,000 314 479 64
2019-06-15 15:31:56 GMT 51.216446 14.590988 32,000 315 480 64
2019-06-15 15:31:53 GMT 51.209930 14.601647 32,000 315 479 0
2019-06-15 15:31:50 GMT 51.206997 14.606400 31,975 314 479 -64
2019-06-15 15:31:47 GMT 51.202103 14.614489 31,975 314 479 0
2019-06-15 15:31:43 GMT 51.190933 14.633121 31,975 314 478 -64
2019-06-15 15:31:39 GMT 51.184525 14.643810 32,000 314 478 -64
2019-06-15 15:31:36 GMT 51.184525 14.643810 32,000 314 478 0
2019-06-15 15:31:32 GMT 51.177250 14.656067 32,000 314 478 0
2019-06-15 15:31:29 GMT 51.173309 14.662740 32,000 314 477 64
2019-06-15 15:31:26 GMT 51.169373 14.669346 31,975 315 476 192
2019-06-15 15:31:23 GMT 51.165424 14.675980 32,000 315 476 192
2019-06-15 15:31:19 GMT 51.160351 14.684219 32,000 316 476 256
2019-06-15 15:31:16 GMT 51.155510 14.691849 31,975 319 476 128
2019-06-15 15:31:13 GMT 51.150650 14.699039 31,975 320 477 64
2019-06-15 15:31:10 GMT 51.143730 14.708405 31,975 322 477 0
2019-06-15 15:31:06 GMT 51.137817 14.715729 32,000 325 479 64
2019-06-15 15:31:03 GMT 51.130783 14.723758 32,000 327 480 0
2019-06-15 15:31:00 GMT 51.127258 14.727544 32,000 327 481 -64
2019-06-15 15:30:57 GMT 51.121719 14.733408 32,000 327 478 0
2019-06-15 15:30:54 GMT 51.114681 14.740829 32,000 327 481 -64
2019-06-15 15:30:51 GMT 51.111378 14.744339 32,000 327 481 -64
2019-06-15 15:30:47 GMT 51.101395 14.754861 32,000 327 479 0
2019-06-15 15:30:44 GMT 51.097870 14.758573 32,000 327 479 64
2019-06-15 15:30:41 GMT 51.091965 14.764808 32,000 327 479 64
2019-06-15 15:30:38 GMT 51.085190 14.772009 32,000 327 478 64
2019-06-15 15:30:33 GMT 51.076370 14.781342 32,000 327 478 0
2019-06-15 15:30:30 GMT 51.071548 14.786410 32,000 327 478 0
2019-06-15 15:30:27 GMT 51.065140 14.793165 32,000 327 478 0
2019-06-15 15:30:24 GMT 51.060883 14.797619 32,000 327 478 0
2019-06-15 15:30:21 GMT 51.049648 14.809494 32,000 327 478 0
2019-06-15 15:30:18 GMT 51.049648 14.809494 32,000 327 478 0
2019-06-15 15:30:14 GMT 51.041924 14.817581 32,000 327 478 0
2019-06-15 15:30:09 GMT 51.032684 14.827312 32,000 327 478 0
2019-06-15 15:30:03 GMT 51.023674 14.836807 32,000 327 479 64
2019-06-15 15:30:00 GMT 51.015381 14.845499 32,000 327 479 0
2019-06-15 15:29:57 GMT 51.010025 14.851066 31,975 326 479 -64
2019-06-15 15:29:53 GMT 51.004303 14.857079 32,000 326 479 -64
2019-06-15 15:29:50 GMT 50.996933 14.864873 31,975 326 479 -64
2019-06-15 15:29:47 GMT 50.991623 14.870589 31,975 326 479 -64
2019-06-15 15:29:43 GMT 50.984390 14.878606 32,000 325 479 -64
2019-06-15 15:29:39 GMT 50.977341 14.886475 32,000 324 478 -64
2019-06-15 15:29:36 GMT 50.974327 14.889984 31,975 323 478 -64
2019-06-15 15:29:33 GMT 50.962280 14.904216 32,000 323 478 0
2019-06-15 15:29:27 GMT 50.952915 14.915848 31,975 322 477 -64
2019-06-15 15:29:21 GMT 50.945652 14.924927 32,000 322 477 -64
2019-06-15 15:29:18 GMT 50.941498 14.930123 32,000 323 477 0
2019-06-15 15:29:15 GMT 50.935226 14.937843 32,000 323 477 64
2019-06-15 15:29:10 GMT 50.928055 14.946518 32,000 323 478 0
2019-06-15 15:29:07 GMT 50.921539 14.954323 32,000 323 478 -64
2019-06-15 15:29:04 GMT 50.918015 14.958554 31,975 322 477 -64
2019-06-15 15:29:01 GMT 50.911743 14.966200 31,975 322 477 0
2019-06-15 15:28:57 GMT 50.904190 14.975850 31,975 322 477 0
2019-06-15 15:28:54 GMT 50.899891 14.981308 32,000 322 476 -128
2019-06-15 15:28:51 GMT 50.893341 14.989583 31,975 322 477 0
2019-06-15 15:28:48 GMT 50.888206 14.996109 31,975 322 476 0
2019-06-15 15:28:45 GMT 50.882355 15.003464 32,000 322 477 0
2019-06-15 15:28:42 GMT 50.878693 15.007992 31,975 322 477 -64
2019-06-15 15:28:39 GMT 50.868141 15.021133 32,000 322 476 -128
2019-06-15 15:28:36 GMT 50.861435 15.029594 32,000 322 477 -256
2019-06-15 15:28:32 GMT 50.861435 15.029594 32,000 321 476 -320
2019-06-15 15:28:28 GMT 50.856133 15.036392 32,025 321 475 -256
2019-06-15 15:28:25 GMT 50.850266 15.044174 32,025 320 473 -128
2019-06-15 15:28:22 GMT 50.845963 15.050008 32,025 319 472 -64
2019-06-15 15:28:19 GMT 50.840538 15.057526 32,025 318 471 0
2019-06-15 15:28:16 GMT 50.829319 15.073700 32,000 317 469 0
2019-06-15 15:28:09 GMT 50.824570 15.081177 31,975 311 465 -128
2019-06-15 15:28:05 GMT 50.817444 15.093433 31,975 310 464 -128
2019-06-15 15:28:01 GMT 50.812683 15.102490 31,975 300 458 64
2019-06-15 15:27:57 GMT 50.806927 15.114594 31,975 301 458 64
2019-06-15 15:27:53 GMT 50.803341 15.122910 31,975 303 461 -256
2019-06-15 15:27:50 GMT 50.799107 15.133362 31,975 302 460 -256
2019-06-15 15:27:47 GMT 50.793457 15.148662 32,000 300 458 64
2019-06-15 15:27:41 GMT 50.788879 15.161430 32,000 300 458 0
2019-06-15 15:27:38 GMT 50.785995 15.169595 31,975 300 457 0
2019-06-15 15:27:34 GMT 50.782673 15.178909 31,975 300 458 0
2019-06-15 15:27:31 GMT 50.780392 15.185318 32,000 302 459 0
2019-06-15 15:27:28 GMT 50.777344 15.193721 32,000 301 458 64
2019-06-15 15:27:25 GMT 50.773315 15.204697 32,000 302 459 0
2019-06-15 15:27:22 GMT 50.769470 15.214728 32,000 302 459 0
2019-06-15 15:27:19 GMT 50.765820 15.224152 32,000 302 459 0
2019-06-15 15:27:13 GMT 50.759678 15.240097 32,000 302 459 0
2019-06-15 15:27:10 GMT 50.756371 15.248718 32,000 317 466 64
2019-06-15 15:27:06 GMT 50.753204 15.256653 32,000 303 459 64
2019-06-15 15:27:03 GMT 50.749016 15.267105 32,000 303 459 64
2019-06-15 15:27:00 GMT 50.745525 15.275574 32,000 303 460 0
2019-06-15 15:26:56 GMT 50.741611 15.285110 32,000 303 460 0
2019-06-15 15:26:53 GMT 50.734909 15.301819 31,975 303 460 0
2019-06-15 15:26:47 GMT 50.726765 15.321426 32,000 309 463 192
2019-06-15 15:26:44 GMT 50.723133 15.329361 32,000 315 465 64
2019-06-15 15:26:41 GMT 50.723133 15.329361 32,000 308 462 192
2019-06-15 15:26:38 GMT 50.712704 15.350342 32,000 311 463 192
2019-06-15 15:26:33 GMT 50.712704 15.350342 32,000 311 463 192
2019-06-15 15:26:30 GMT 50.708679 15.357847 31,975 312 464 192
2019-06-15 15:26:24 GMT 50.692245 15.384200 32,000 322 468 128
2019-06-15 15:26:20 GMT 50.692245 15.384200 32,000 326 470 0
2019-06-15 15:26:17 GMT 50.689011 15.388718 32,000 322 468 128
2019-06-15 15:26:13 GMT 50.681793 15.398026 31,975 323 468 64
2019-06-15 15:26:09 GMT 50.675091 15.406113 31,975 325 469 64
2019-06-15 15:26:06 GMT 50.662857 15.419745 31,975 326 470 0
2019-06-15 15:26:02 GMT 50.655350 15.427913 32,000 326 471 0
2019-06-15 15:25:58 GMT 50.655350 15.427913 32,000 326 470 64
2019-06-15 15:25:55 GMT 50.650497 15.433189 31,975 326 470 64
2019-06-15 15:25:52 GMT 50.644646 15.439651 31,975 326 470 64
2019-06-15 15:25:48 GMT 50.637680 15.447283 31,975 326 470 64
2019-06-15 15:25:44 GMT 50.631363 15.453933 31,975 328 471 64
2019-06-15 15:25:41 GMT 50.624908 15.460362 32,000 330 472 128
2019-06-15 15:25:36 GMT 50.607033 15.476247 32,000 332 473 -64
2019-06-15 15:25:32 GMT 50.607033 15.476247 32,000 332 473 0
2019-06-15 15:25:28 GMT 50.599915 15.482338 32,000 332 473 64
2019-06-15 15:25:25 GMT 50.594742 15.486820 32,000 332 473 0
2019-06-15 15:25:22 GMT 50.587830 15.492746 32,000 332 473 0
2019-06-15 15:25:19 GMT 50.577656 15.501486 31,975 332 473 0
2019-06-15 15:25:13 GMT 50.572491 15.506014 32,000 332 473 0
2019-06-15 15:25:10 GMT 50.563156 15.514141 31,975 332 473 0
2019-06-15 15:25:06 GMT 50.557800 15.518767 31,975 332 473 64
2019-06-15 15:25:01 GMT 50.546860 15.528163 31,975 332 473 64
2019-06-15 15:24:57 GMT 50.541824 15.532427 31,975 332 473 64
2019-06-15 15:24:54 GMT 50.536057 15.537198 31,975 334 474 0
2019-06-15 15:24:50 GMT 50.527863 15.543847 31,975 334 474 0
2019-06-15 15:24:47 GMT 50.521793 15.548698 32,000 335 474 0
2019-06-15 15:24:44 GMT 50.516739 15.552665 31,975 334 474 0
2019-06-15 15:24:41 GMT 50.509644 15.558125 32,000 335 474 0
2019-06-15 15:24:38 GMT 50.503124 15.563099 32,000 335 474 0
2019-06-15 15:24:34 GMT 50.496414 15.568133 32,000 335 474 0
2019-06-15 15:24:30 GMT 50.482178 15.578836 32,000 335 474 -64
2019-06-15 15:24:23 GMT 50.472107 15.586419 32,000 335 474 -64
2019-06-15 15:24:20 GMT 50.468353 15.589303 32,000 335 474 0
2019-06-15 15:24:17 GMT 50.460663 15.595093 32,000 335 474 -64
2019-06-15 15:24:13 GMT 50.440327 15.610385 32,000 335 474 0
2019-06-15 15:24:07 GMT 50.440327 15.610385 32,000 334 474 0
2019-06-15 15:24:03 GMT 50.428085 15.619664 31,975 335 474 0
2019-06-15 15:23:59 GMT 50.428085 15.619664 32,000 335 474 0
2019-06-15 15:23:52 GMT 50.412907 15.631169 32,000 335 474 -64
2019-06-15 15:23:46 GMT 50.401085 15.640152 32,000 334 474 0
2019-06-15 15:23:42 GMT 50.391083 15.647784 32,000 334 474 0
2019-06-15 15:23:36 GMT 50.380829 15.655590 32,000 334 474 0
2019-06-15 15:23:31 GMT 50.371990 15.662347 31,975 334 474 0
2019-06-15 15:23:28 GMT 50.364914 15.667766 32,000 334 474 0
2019-06-15 15:23:24 GMT 50.356255 15.674447 32,000 334 474 0
2019-06-15 15:23:20 GMT 50.350342 15.678975 32,000 334 474 -64
2019-06-15 15:23:17 GMT 50.342285 15.685152 32,000 334 474 0
2019-06-15 15:23:12 GMT 50.334656 15.691000 32,000 334 474 0
2019-06-15 15:23:09 GMT 50.328552 15.695632 32,000 334 474 0
2019-06-15 15:23:05 GMT 50.319290 15.702729 32,000 334 474 64
2019-06-15 15:23:01 GMT 50.310261 15.709633 32,000 334 474 0
2019-06-15 15:22:55 GMT 50.301601 15.716239 32,000 334 474 0
2019-06-15 15:22:51 GMT 50.293362 15.722549 32,000 334 474 64
2019-06-15 15:22:48 GMT 50.287491 15.727073 32,000 334 474 64
2019-06-15 15:22:44 GMT 50.279861 15.733016 32,000 334 474 0
2019-06-15 15:22:41 GMT 50.273758 15.737698 31,975 334 474 0
2019-06-15 15:22:38 GMT 50.267712 15.742369 31,975 334 473 0
2019-06-15 15:22:35 GMT 50.261799 15.746971 31,975 334 474 0
2019-06-15 15:22:31 GMT 50.254349 15.752732 31,975 334 474 64
2019-06-15 15:22:28 GMT 50.246300 15.758923 31,975 334 474 64
2019-06-15 15:22:22 GMT 50.236496 15.766393 31,975 334 474 0
2019-06-15 15:22:18 GMT 50.221527 15.777740 31,975 335 474 64
2019-06-15 15:22:15 GMT 50.221527 15.777740 31,975 335 474 64
2019-06-15 15:22:11 GMT 50.214409 15.783122 31,975 335 474 0
2019-06-15 15:22:08 GMT 50.201157 15.792991 31,975 335 475 64
2019-06-15 15:22:04 GMT 50.201157 15.792991 31,975 335 475 64
2019-06-15 15:21:57 GMT 50.185734 15.804501 31,975 335 474 -128
2019-06-15 15:21:54 GMT 50.180191 15.808748 31,975 334 475 -128
2019-06-15 15:21:49 GMT 50.171070 15.816081 32,000 331 472 -64
2019-06-15 15:21:46 GMT 50.164856 15.821252 31,975 331 474 -64
2019-06-15 15:21:43 GMT 50.154915 15.829888 32,000 331 474 0
2019-06-15 15:21:36 GMT 50.144440 15.839019 32,000 330 473 -64
2019-06-15 15:21:33 GMT 50.140484 15.842582 32,000 330 473 -64
2019-06-15 15:21:30 GMT 50.135193 15.847345 32,000 328 470 -128
2019-06-15 15:21:27 GMT 50.130337 15.851861 32,000 323 468 -64
2019-06-15 15:21:24 GMT 50.123474 15.858476 31,975 323 468 -64
2019-06-15 15:21:20 GMT 50.116463 15.865297 32,000 327 470 -128
2019-06-15 15:21:16 GMT 50.108688 15.873293 32,000 325 468 -128
2019-06-15 15:21:13 GMT 50.104733 15.877471 32,000 326 469 -128
2019-06-15 15:21:10 GMT 50.089603 15.894248 32,000 324 469 -64
2019-06-15 15:21:02 GMT 50.085251 15.899313 32,000 323 467 -192
2019-06-15 15:20:56 GMT 50.074402 15.912540 32,000 321 466 -64
2019-06-15 15:20:53 GMT 50.068085 15.920635 32,000 321 465 0
2019-06-15 15:20:49 GMT 50.060974 15.929805 32,000 321 465 64
2019-06-15 15:20:45 GMT 50.055668 15.936634 31,975 321 465 64
2019-06-15 15:20:42 GMT 50.050873 15.942752 32,000 321 465 64
2019-06-15 15:20:35 GMT 50.039566 15.957136 31,975 321 465 64
2019-06-15 15:20:32 GMT 50.033066 15.965375 31,975 321 465 0
2019-06-15 15:20:25 GMT 50.022289 15.979169 31,975 320 465 -64
2019-06-15 15:20:20 GMT 50.015350 15.988151 31,975 321 465 -64
2019-06-15 15:20:14 GMT 50.004551 16.002329 31,975 320 465 -64
2019-06-15 15:20:11 GMT 49.998825 16.009899 32,000 320 465 0
2019-06-15 15:20:04 GMT 49.987564 16.024860 32,000 320 465 0
2019-06-15 15:20:00 GMT 49.981647 16.032690 32,000 320 465 0
2019-06-15 15:19:56 GMT 49.974480 16.042267 31,975 320 465 0
2019-06-15 15:19:52 GMT 49.967636 16.051323 31,975 320 465 0
2019-06-15 15:19:49 GMT 49.963852 16.056301 31,975 320 465 0
2019-06-15 15:19:43 GMT 49.953529 16.069956 31,975 320 465 -64
2019-06-15 15:19:39 GMT 49.946686 16.079069 32,000 320 465 0
2019-06-15 15:19:34 GMT 49.933468 16.096678 31,975 320 465 64
2019-06-15 15:19:31 GMT 49.933468 16.096678 32,000 320 465 64
2019-06-15 15:19:28 GMT 49.928879 16.102777 31,975 320 466 0
2019-06-15 15:19:23 GMT 49.920757 16.113676 31,975 320 466 0
2019-06-15 15:19:20 GMT 49.916702 16.119112 32,000 320 465 -64
2019-06-15 15:19:16 GMT 49.910980 16.126741 32,000 319 466 0
2019-06-15 15:19:13 GMT 49.905952 16.133497 32,000 319 466 -64
2019-06-15 15:19:10 GMT 49.898941 16.142891 32,000 319 466 0
2019-06-15 15:19:06 GMT 49.893906 16.149687 32,000 319 466 0
2019-06-15 15:19:03 GMT 49.888092 16.157564 32,000 320 465 0
2019-06-15 15:19:00 GMT 49.879486 16.169128 32,000 320 466 0
2019-06-15 15:18:53 GMT 49.872940 16.177874 32,000 320 465 -64
2019-06-15 15:18:50 GMT 49.867401 16.185247 32,000 319 466 -64
2019-06-15 15:18:45 GMT 49.859619 16.195726 32,000 319 464 -64
2019-06-15 15:18:42 GMT 49.854282 16.202978 32,000 319 465 -64
2019-06-15 15:18:39 GMT 49.850418 16.208248 32,000 319 465 0
2019-06-15 15:18:35 GMT 49.841900 16.219904 32,000 319 465 0
2019-06-15 15:18:32 GMT 49.839157 16.223700 32,000 319 465 0
2019-06-15 15:18:29 GMT 49.832748 16.232517 32,000 319 465 0
2019-06-15 15:18:21 GMT 49.821030 16.248707 32,000 319 465 64
2019-06-15 15:18:18 GMT 49.815582 16.256224 32,000 319 465 64
2019-06-15 15:18:12 GMT 49.805328 16.270391 32,000 319 466 64
2019-06-15 15:18:09 GMT 49.801491 16.275724 32,000 319 466 64
2019-06-15 15:18:05 GMT 49.795021 16.284485 32,000 319 467 64
2019-06-15 15:18:00 GMT 49.785049 16.297785 32,000 320 466 64
2019-06-15 15:17:57 GMT 49.780125 16.304232 32,000 320 467 64
2019-06-15 15:17:51 GMT 49.771091 16.316109 31,975 320 468 64
2019-06-15 15:17:48 GMT 49.767609 16.320623 31,975 320 468 64
2019-06-15 15:17:45 GMT 49.762993 16.326649 31,975 320 467 0
2019-06-15 15:17:41 GMT 49.755753 16.336092 31,975 321 468 0
2019-06-15 15:17:38 GMT 49.751450 16.341658 31,975 321 468 0
2019-06-15 15:17:33 GMT 49.743160 16.352407 31,975 321 469 0
2019-06-15 15:17:30 GMT 49.737995 16.359089 31,975 320 469 0
2019-06-15 15:17:27 GMT 49.733368 16.365074 31,975 321 469 0
2019-06-15 15:17:24 GMT 49.728077 16.371929 31,975 321 469 0
2019-06-15 15:17:19 GMT 49.718262 16.384590 31,975 321 468 0
2019-06-15 15:17:15 GMT 49.713776 16.390373 32,000 321 468 0
2019-06-15 15:17:12 GMT 49.708649 16.397022 32,000 321 468 -64
2019-06-15 15:17:09 GMT 49.702835 16.404467 32,000 321 468 0
2019-06-15 15:17:06 GMT 49.697029 16.411942 31,975 321 464 1280
2019-06-15 15:16:59 GMT 49.685760 16.426512 31,975 321 467 -64
2019-06-15 15:16:53 GMT 49.674824 16.440519 32,000 321 464 1280
2019-06-15 15:16:49 GMT 49.669796 16.446903 32,000 321 467 -64
2019-06-15 15:16:46 GMT 49.664162 16.454105 32,000 321 467 0
2019-06-15 15:16:43 GMT 49.657829 16.462196 31,925 321 465 1216
2019-06-15 15:16:39 GMT 49.653500 16.467690 32,000 321 466 128
2019-06-15 15:16:36 GMT 49.648380 16.474297 32,000 321 466 256
2019-06-15 15:16:32 GMT 49.641071 16.483576 32,000 321 465 448
2019-06-15 15:16:29 GMT 49.636276 16.489683 31,950 321 465 896
2019-06-15 15:16:26 GMT 49.630142 16.497490 31,825 321 464 1280
2019-06-15 15:16:22 GMT 49.618866 16.511856 31,775 321 465 1344
2019-06-15 15:16:18 GMT 49.618866 16.511856 31,750 321 465 1344
2019-06-15 15:16:15 GMT 49.612747 16.519608 31,500 321 464 1344
2019-06-15 15:16:11 GMT 49.605598 16.528633 31,450 321 465 1408
2019-06-15 15:16:08 GMT 49.601303 16.534061 31,550 321 465 1344
2019-06-15 15:16:05 GMT 49.595638 16.541180 31,200 321 465 1408
2019-06-15 15:16:02 GMT 49.590145 16.548082 31,400 321 465 1472
2019-06-15 15:15:58 GMT 49.584511 16.555208 31,300 321 465 1472
2019-06-15 15:15:54 GMT 49.578365 16.562929 31,150 321 465 1472
2019-06-15 15:15:50 GMT 49.572556 16.570274 31,100 321 465 1472
2019-06-15 15:15:47 GMT 49.567383 16.576778 31,050 321 466 1408
2019-06-15 15:15:43 GMT 49.559933 16.586239 30,950 321 465 1344
2019-06-15 15:15:40 GMT 49.555092 16.592325 30,850 322 466 1408
2019-06-15 15:15:37 GMT 49.542114 16.608219 30,650 323 466 1472
2019-06-15 15:15:33 GMT 49.542114 16.608219 30,725 323 466 1536
2019-06-15 15:15:28 GMT 49.532745 16.619270 30,575 323 466 1536
2019-06-15 15:15:25 GMT 49.523621 16.629887 30,525 323 466 1536
2019-06-15 15:15:22 GMT 49.518684 16.635750 30,050 323 467 1344
2019-06-15 15:15:19 GMT 49.518684 16.635750 30,275 323 467 1536
2019-06-15 15:15:15 GMT 49.512306 16.643173 30,300 323 467 1472
2019-06-15 15:15:10 GMT 49.503571 16.653465 30,000 323 466 0
2019-06-15 15:15:07 GMT 49.497738 16.660248 30,100 323 467 1280
2019-06-15 15:14:59 GMT 49.476608 16.684980 30,000 324 467 0
2019-06-15 15:14:54 GMT 49.476608 16.684980 30,000 323 466 0
2019-06-15 15:14:51 GMT 49.472321 16.689939 30,000 323 466 0
2019-06-15 15:14:47 GMT 49.464592 16.698996 30,000 323 466 0
2019-06-15 15:14:44 GMT 49.457565 16.707169 30,000 323 466 0
2019-06-15 15:14:40 GMT 49.451065 16.714760 30,000 323 466 0
2019-06-15 15:14:36 GMT 49.439732 16.727947 30,000 323 466 0
2019-06-15 15:14:32 GMT 49.439732 16.727947 30,000 323 466 0
2019-06-15 15:14:28 GMT 49.421906 16.748730 30,000 323 466 0
2019-06-15 15:14:23 GMT 49.421906 16.748730 30,000 323 465 0
2019-06-15 15:14:18 GMT 49.414551 16.757332 30,000 323 466 0
2019-06-15 15:14:15 GMT 49.407333 16.765642 30,000 324 465 0
2019-06-15 15:14:11 GMT 49.402496 16.771193 30,000 324 465 0
2019-06-15 15:14:08 GMT 49.395630 16.779152 30,000 324 465 0
2019-06-15 15:14:05 GMT 49.392204 16.783134 30,000 324 465 0
2019-06-15 15:14:02 GMT 49.386337 16.789856 30,000 323 466 64
2019-06-15 15:13:56 GMT 49.369720 16.809153 29,975 324 467 -64
2019-06-15 15:13:48 GMT 49.361664 16.818550 29,975 324 466 64
2019-06-15 15:13:42 GMT 49.353889 16.827440 29,975 324 466 0
2019-06-15 15:13:38 GMT 49.347107 16.834997 30,000 324 467 64
2019-06-15 15:13:35 GMT 49.339924 16.842981 30,000 324 467 -64
2019-06-15 15:13:32 GMT 49.330009 16.854113 30,000 324 467 0
2019-06-15 15:13:29 GMT 49.323727 16.861122 30,000 324 467 0
2019-06-15 15:13:26 GMT 49.323727 16.861122 30,000 324 467 0
2019-06-15 15:13:19 GMT 49.312462 16.873844 30,000 324 467 64
2019-06-15 15:13:15 GMT 49.306034 16.881071 29,975 324 467 64
2019-06-15 15:13:11 GMT 49.297840 16.890251 29,975 324 467 64
2019-06-15 15:13:08 GMT 49.294556 16.893944 29,975 324 467 0
2019-06-15 15:13:04 GMT 49.285831 16.903694 29,975 324 467 0
2019-06-15 15:13:00 GMT 49.280434 16.909765 29,975 324 467 0
2019-06-15 15:12:54 GMT 49.269260 16.922342 29,975 324 468 -64
2019-06-15 15:12:50 GMT 49.262650 16.929787 29,975 324 469 0
2019-06-15 15:12:45 GMT 49.252762 16.940989 30,000 324 468 0
2019-06-15 15:12:42 GMT 49.247890 16.946484 29,975 324 468 0
2019-06-15 15:12:35 GMT 49.236439 16.959566 30,000 324 469 0
2019-06-15 15:12:32 GMT 49.231087 16.965710 29,975 324 468 0
2019-06-15 15:12:29 GMT 49.226578 16.970919 30,000 324 468 0
2019-06-15 15:12:26 GMT 49.220657 16.977634 30,000 324 469 0
2019-06-15 15:12:23 GMT 49.214539 16.984442 30,000 325 469 0
2019-06-15 15:12:17 GMT 49.204178 16.995922 30,000 324 469 -64
2019-06-15 15:12:14 GMT 49.199295 17.001343 30,000 324 469 -64
2019-06-15 15:12:11 GMT 49.185471 17.016766 30,000 324 469 -64
2019-06-15 15:12:06 GMT 49.185471 17.016766 30,000 324 468 0
2019-06-15 15:12:03 GMT 49.180576 17.022230 30,000 324 468 0
2019-06-15 15:12:00 GMT 49.174942 17.028526 30,000 325 469 0
2019-06-15 15:11:53 GMT 49.162811 17.041838 30,000 325 469 64
2019-06-15 15:11:50 GMT 49.156651 17.048540 30,000 325 469 128
2019-06-15 15:11:45 GMT 49.148117 17.057684 29,975 324 468 -128
2019-06-15 15:11:41 GMT 49.141068 17.065359 29,975 323 469 -256
2019-06-15 15:11:38 GMT 49.135887 17.071308 29,975 317 466 -192
2019-06-15 15:11:34 GMT 49.127880 17.081427 29,975 318 467 -192
2019-06-15 15:11:30 GMT 49.122894 17.088177 29,975 317 467 -128
2019-06-15 15:11:27 GMT 49.118198 17.095016 29,975 316 467 -64
2019-06-15 15:11:24 GMT 49.114059 17.101206 29,975 316 466 0
2019-06-15 15:11:20 GMT 49.107147 17.111629 30,000 316 467 0
2019-06-15 15:11:13 GMT 49.095760 17.128626 30,000 316 466 -64
2019-06-15 15:11:09 GMT 49.090714 17.136208 30,000 316 466 -64
2019-06-15 15:11:06 GMT 49.086540 17.142429 30,000 316 466 0
2019-06-15 15:11:03 GMT 49.082565 17.148460 30,000 316 466 0
2019-06-15 15:10:58 GMT 49.073505 17.162018 30,000 316 465 0
2019-06-15 15:10:55 GMT 49.069199 17.168390 30,000 316 466 0
2019-06-15 15:10:52 GMT 49.063034 17.177559 30,000 316 466 0
2019-06-15 15:10:48 GMT 49.056747 17.186954 30,000 316 466 0
2019-06-15 15:10:43 GMT 49.051067 17.195482 30,000 316 466 0
2019-06-15 15:10:40 GMT 49.045074 17.204378 30,000 316 465 0
2019-06-15 15:10:37 GMT 49.041573 17.209648 30,000 316 465 0
2019-06-15 15:10:34 GMT 49.035873 17.218111 30,000 316 465 0
2019-06-15 15:10:29 GMT 49.029564 17.227503 30,000 316 465 0
2019-06-15 15:10:26 GMT 49.024021 17.235670 30,000 316 465 64
2019-06-15 15:10:23 GMT 49.018478 17.243887 30,000 316 465 0
2019-06-15 15:10:19 GMT 49.013130 17.251932 30,000 316 465 64
2019-06-15 15:10:14 GMT 49.007446 17.260366 29,975 316 465 0
2019-06-15 15:10:10 GMT 48.999298 17.272480 29,975 316 465 0
2019-06-15 15:10:05 GMT 48.992226 17.282940 30,000 316 465 0
2019-06-15 15:10:01 GMT 48.985149 17.293491 30,000 316 466 0
2019-06-15 15:09:58 GMT 48.981445 17.298960 30,000 316 465 0
2019-06-15 15:09:55 GMT 48.976818 17.305780 30,000 316 465 0
2019-06-15 15:09:50 GMT 48.968811 17.317553 30,000 317 465 0
2019-06-15 15:09:47 GMT 48.965553 17.322330 30,000 317 465 0
2019-06-15 15:09:42 GMT 48.955963 17.336426 30,000 316 465 0
2019-06-15 15:09:36 GMT 48.947479 17.348890 29,975 316 465 0
2019-06-15 15:09:32 GMT 48.938042 17.362736 29,975 316 465 0
2019-06-15 15:09:26 GMT 48.932510 17.370934 29,975 316 466 0
2019-06-15 15:09:23 GMT 48.926971 17.379103 29,975 316 465 0
2019-06-15 15:09:19 GMT 48.915554 17.395983 29,975 316 466 0
2019-06-15 15:09:15 GMT 48.915554 17.395983 29,975 316 465 0
2019-06-15 15:09:12 GMT 48.910629 17.403259 29,975 315 465 -64
2019-06-15 15:09:05 GMT 48.900650 17.418119 29,975 316 465 -64
2019-06-15 15:09:02 GMT 48.893509 17.428894 30,000 315 465 -64
2019-06-15 15:08:56 GMT 48.885452 17.441078 30,000 315 465 -64
2019-06-15 15:08:53 GMT 48.880875 17.448025 30,000 315 465 -64
2019-06-15 15:08:46 GMT 48.871399 17.462627 30,000 315 465 -64
2019-06-15 15:08:43 GMT 48.865837 17.471226 30,000 314 464 0
2019-06-15 15:08:40 GMT 48.862812 17.475851 30,000 314 464 0
2019-06-15 15:08:34 GMT 48.852291 17.492546 30,000 313 463 -64
2019-06-15 15:08:30 GMT 48.846519 17.502159 30,000 312 462 -128
2019-06-15 15:08:26 GMT 48.840729 17.512066 29,975 310 461 -128
2019-06-15 15:08:21 GMT 48.834824 17.522772 30,000 306 460 -128
2019-06-15 15:08:18 GMT 48.831528 17.529119 29,975 307 460 -64
2019-06-15 15:08:14 GMT 48.825119 17.541998 29,975 307 460 -64
2019-06-15 15:08:10 GMT 48.821091 17.550659 29,975 305 459 -128
2019-06-15 15:08:07 GMT 48.818214 17.557020 29,975 303 458 -256
2019-06-15 15:08:04 GMT 48.814774 17.565096 29,975 296 458 -64
2019-06-15 15:08:01 GMT 48.809555 17.578342 29,975 299 458 -256
2019-06-15 15:07:57 GMT 48.806625 17.586506 29,975 298 457 -256
2019-06-15 15:07:52 GMT 48.800991 17.603350 30,000 296 457 -64
2019-06-15 15:07:47 GMT 48.796383 17.618095 30,000 296 458 0
2019-06-15 15:07:44 GMT 48.794567 17.623877 29,975 296 458 0
2019-06-15 15:07:39 GMT 48.789047 17.641508 30,000 296 458 0
2019-06-15 15:07:33 GMT 48.784790 17.655100 30,000 296 458 0
2019-06-15 15:07:28 GMT 48.779938 17.670452 29,975 296 458 0
2019-06-15 15:07:24 GMT 48.775864 17.683481 30,000 296 458 0
2019-06-15 15:07:20 GMT 48.772362 17.694782 29,975 296 458 0
2019-06-15 15:07:17 GMT 48.769638 17.703482 29,975 296 458 0
2019-06-15 15:07:13 GMT 48.766388 17.713905 29,975 296 458 0
2019-06-15 15:07:10 GMT 48.763596 17.722849 29,975 296 458 0
2019-06-15 15:07:06 GMT 48.759514 17.735909 29,975 296 458 0
2019-06-15 15:07:02 GMT 48.756905 17.744293 30,000 296 462 0
2019-06-15 15:06:59 GMT 48.754436 17.752098 30,000 296 458 0
2019-06-15 15:06:56 GMT 48.750622 17.764242 30,000 296 459 0
2019-06-15 15:06:52 GMT 48.747829 17.773277 30,000 296 458 0
2019-06-15 15:06:48 GMT 48.744011 17.785419 30,000 296 459 0
2019-06-15 15:06:45 GMT 48.740379 17.796984 30,000 296 458 0
2019-06-15 15:06:42 GMT 48.738647 17.802500 30,000 296 458 0
2019-06-15 15:06:38 GMT 48.735214 17.813486 29,975 296 459 0
2019-06-15 15:06:35 GMT 48.731815 17.824162 30,000 296 459 0
2019-06-15 15:06:32 GMT 48.729160 17.832544 30,000 296 459 0
2019-06-15 15:06:28 GMT 48.725372 17.844402 29,975 296 459 0
2019-06-15 15:06:22 GMT 48.719330 17.863487 29,975 296 460 0
2019-06-15 15:06:17 GMT 48.716034 17.873911 30,000 296 460 0
2019-06-15 15:06:13 GMT 48.711426 17.888344 30,000 296 460 0
2019-06-15 15:06:09 GMT 48.706814 17.902872 30,000 296 460 0
2019-06-15 15:06:04 GMT 48.703354 17.913841 29,975 296 460 64
2019-06-15 15:06:01 GMT 48.700790 17.921942 29,975 296 461 0
2019-06-15 15:05:57 GMT 48.696758 17.934748 29,975 296 461 0
2019-06-15 15:05:49 GMT 48.689545 17.957371 29,975 296 462 0
2019-06-15 15:05:46 GMT 48.686985 17.965538 29,975 296 462 0
2019-06-15 15:05:41 GMT 48.681862 17.981800 29,975 296 462 0
2019-06-15 15:05:38 GMT 48.678978 17.990835 29,975 296 463 0
2019-06-15 15:05:31 GMT 48.673435 18.008326 29,975 296 463 0
2019-06-15 15:05:28 GMT 48.669846 18.019691 29,975 296 463 0
2019-06-15 15:05:24 GMT 48.667061 18.028419 29,975 296 463 -64
2019-06-15 15:05:19 GMT 48.661652 18.045607 30,000 296 462 -64
2019-06-15 15:05:16 GMT 48.659134 18.053495 30,000 296 462 0
2019-06-15 15:05:13 GMT 48.656773 18.061016 30,000 296 462 0
2019-06-15 15:05:08 GMT 48.651978 18.076197 29,975 296 461 448
2019-06-15 15:05:05 GMT 48.648483 18.087255 29,975 296 461 512
2019-06-15 15:04:59 GMT 48.643707 18.102301 29,925 296 460 1088
2019-06-15 15:04:54 GMT 48.639313 18.116165 29,825 296 459 1408
2019-06-15 15:04:48 GMT 48.633453 18.134695 29,575 296 459 1728
2019-06-15 15:04:44 GMT 48.630066 18.145399 29,600 296 459 1472
2019-06-15 15:04:41 GMT 48.620228 18.176662 29,450 296 459 1728
2019-06-15 15:04:34 GMT 48.620228 18.176662 29,225 296 459 1920
2019-06-15 15:04:26 GMT 48.614044 18.196318 29,050 296 459 1984
2019-06-15 15:04:22 GMT 48.610382 18.207867 28,950 296 461 2240
2019-06-15 15:04:14 GMT 48.600128 18.240122 28,475 296 471 3136
2019-06-15 15:04:11 GMT 48.600128 18.240122 28,500 296 464 3072
2019-06-15 15:04:06 GMT 48.595413 18.255053 28,225 296 467 3328
2019-06-15 15:04:02 GMT 48.590759 18.269758 27,975 296 471 3136
2019-06-15 15:03:55 GMT 48.585453 18.286598 27,600 296 475 3072
2019-06-15 15:03:51 GMT 48.580566 18.302137 27,425 296 475 3072
2019-06-15 15:03:44 GMT 48.570698 18.333363 27,050 296 479 2368
2019-06-15 15:03:40 GMT 48.570698 18.333363 26,950 296 479 2112
2019-06-15 15:03:30 GMT 48.560211 18.366465 26,625 296 479 1600
2019-06-15 15:03:24 GMT 48.554543 18.384247 26,475 296 478 1728
2019-06-15 15:03:21 GMT 48.552635 18.390245 26,275 296 477 1792
2019-06-15 15:03:18 GMT 48.549271 18.400690 26,325 296 477 1792
2019-06-15 15:03:12 GMT 48.543419 18.418940 26,100 297 472 1664
2019-06-15 15:03:08 GMT 48.540016 18.429350 26,050 297 475 1600
2019-06-15 15:03:02 GMT 48.534302 18.446890 25,850 297 474 1536
2019-06-15 15:02:59 GMT 48.531006 18.456961 25,800 297 474 1472
2019-06-15 15:02:52 GMT 48.524284 18.477053 25,400 297 472 1600
2019-06-15 15:02:49 GMT 48.521862 18.484352 25,550 297 472 1664
2019-06-15 15:02:45 GMT 48.518097 18.495554 25,475 297 471 1728
2019-06-15 15:02:39 GMT 48.507851 18.526997 25,250 296 470 1920
2019-06-15 15:02:36 GMT 48.507851 18.526997 25,150 296 470 1728
2019-06-15 15:02:31 GMT 48.504181 18.538513 25,025 297 470 1728
2019-06-15 15:02:27 GMT 48.500336 18.550556 24,925 299 470 1856
2019-06-15 15:02:23 GMT 48.494980 18.565205 24,800 301 469 1984
2019-06-15 15:02:20 GMT 48.492626 18.571014 24,725 304 470 1984
2019-06-15 15:02:16 GMT 48.487137 18.583157 24,625 316 467 1664
2019-06-15 15:02:13 GMT 48.483505 18.590458 24,550 309 470 1728
2019-06-15 15:02:10 GMT 48.480606 18.595770 24,500 312 469 1536
2019-06-15 15:02:03 GMT 48.468018 18.615980 24,300 318 467 1856
2019-06-15 15:01:59 GMT 48.462555 18.623417 24,250 320 466 1984
2019-06-15 15:01:56 GMT 48.457260 18.630066 24,125 322 466 2048
2019-06-15 15:01:50 GMT 48.446411 18.642389 23,950 328 466 2048
2019-06-15 15:01:44 GMT 48.427643 18.658905 23,725 334 465 1920
2019-06-15 15:01:39 GMT 48.427643 18.658905 23,650 339 464 1920
2019-06-15 15:01:35 GMT 48.404831 18.671625 22,475 343 464 2176
2019-06-15 15:01:27 GMT 48.404831 18.671625 23,350 346 466 2240
2019-06-15 15:01:23 GMT 48.396286 18.674927 23,200 346 466 2240
2019-06-15 15:01:18 GMT 48.374954 18.682884 22,900 347 465 2240
2019-06-15 15:01:13 GMT 48.374954 18.682884 22,825 347 465 2176
2019-06-15 15:01:09 GMT 48.364471 18.686731 22,650 347 465 1984
2019-06-15 15:01:03 GMT 48.353622 18.690702 22,500 347 464 2048
2019-06-15 15:00:59 GMT 48.343613 18.694321 22,325 347 464 2176
2019-06-15 15:00:56 GMT 48.340729 18.695406 22,275 347 463 2240
2019-06-15 15:00:51 GMT 48.329041 18.699646 22,075 347 463 2240
2019-06-15 15:00:46 GMT 48.318466 18.703520 21,900 346 462 2368
2019-06-15 15:00:42 GMT 48.310181 18.706617 21,825 346 462 2368
2019-06-15 15:00:35 GMT 48.296265 18.711830 21,250 346 461 2368
2019-06-15 15:00:30 GMT 48.286148 18.715702 21,300 346 461 2368
2019-06-15 15:00:23 GMT 48.271912 18.721127 20,675 346 460 2304
2019-06-15 15:00:20 GMT 48.265312 18.723667 20,925 346 460 2304
2019-06-15 15:00:14 GMT 48.250278 18.729521 20,550 346 459 2304
2019-06-15 15:00:11 GMT 48.245773 18.731268 20,575 346 459 2304
2019-06-15 15:00:06 GMT 48.236755 18.734859 20,425 346 458 2240
2019-06-15 15:00:01 GMT 48.223045 18.740292 20,175 346 457 2048
2019-06-15 14:59:55 GMT 48.214233 18.743803 20,025 346 456 1792
2019-06-15 14:59:52 GMT 48.204285 18.747808 19,900 346 454 1536
2019-06-15 14:59:49 GMT 48.202049 18.748674 19,650 346 435 2176
2019-06-15 14:59:39 GMT 48.181595 18.756620 19,625 346 449 1600
2019-06-15 14:59:35 GMT 48.172760 18.760071 19,525 346 446 1728
2019-06-15 14:59:29 GMT 48.161636 18.764507 19,350 345 444 1984
2019-06-15 14:59:22 GMT 48.147350 18.770353 19,125 345 442 2048
2019-06-15 14:59:18 GMT 48.140076 18.773369 19,025 345 441 1984
2019-06-15 14:59:08 GMT 48.119839 18.781549 18,650 346 437 2240
2019-06-15 14:58:56 GMT 48.096004 18.790775 18,225 346 434 2176
2019-06-15 14:58:46 GMT 48.077011 18.797960 17,500 346 430 2176
2019-06-15 14:58:37 GMT 48.059834 18.804440 17,575 346 427 1984
2019-06-15 14:58:33 GMT 48.052525 18.807184 17,450 347 425 1984
2019-06-15 14:58:27 GMT 48.039909 18.811764 17,250 347 423 2048
2019-06-15 14:58:21 GMT 48.026268 18.816763 17,000 347 422 2176
2019-06-15 14:58:16 GMT 48.019283 18.819368 16,850 347 418 2368
2019-06-15 14:58:11 GMT 48.010254 18.822748 16,675 346 417 2432
2019-06-15 14:58:03 GMT 47.994919 18.828438 16,350 347 416 2496
2019-06-15 14:57:58 GMT 47.986187 18.831694 16,150 347 415 2496
2019-06-15 14:57:54 GMT 47.979668 18.834087 16,025 346 413 2560
2019-06-15 14:57:49 GMT 47.968403 18.838385 15,750 346 412 2560
2019-06-15 14:57:44 GMT 47.960861 18.841278 15,600 346 410 2560
2019-06-15 14:57:37 GMT 47.947639 18.846413 15,275 346 409 2624
2019-06-15 14:57:34 GMT 47.942139 18.848488 15,150 346 408 2624
2019-06-15 14:57:28 GMT 47.930092 18.853172 14,875 346 406 2624
2019-06-15 14:57:23 GMT 47.922134 18.856247 14,000 345 400 2688
2019-06-15 14:57:16 GMT 47.902588 18.863800 14,225 346 402 2624
2019-06-15 14:57:12 GMT 47.902588 18.863800 14,000 345 400 2688
2019-06-15 14:57:05 GMT 47.889172 18.869160 13,925 345 399 2816
2019-06-15 14:57:02 GMT 47.884003 18.871284 13,525 345 397 2944
2019-06-15 14:56:54 GMT 47.869812 18.877052 13,425 345 397 2944
2019-06-15 14:56:51 GMT 47.864822 18.879044 13,275 345 396 2944
2019-06-15 14:56:44 GMT 47.850163 18.884865 12,900 346 395 2752
2019-06-15 14:56:41 GMT 47.846420 18.886322 12,800 345 394 2688
2019-06-15 14:56:30 GMT 47.811058 18.900499 11,800 345 385 1536
2019-06-15 14:56:21 GMT 47.811058 18.900499 11,800 345 385 1536
2019-06-15 14:56:10 GMT 47.792679 18.907745 11,725 346 377 1216
2019-06-15 14:55:59 GMT 47.774513 18.914936 11,450 346 361 1152
2019-06-15 14:55:48 GMT 47.745560 18.926273 11,250 346 352 1152
2019-06-15 14:55:38 GMT 47.740631 18.928207 11,125 346 343 1088
2019-06-15 14:55:34 GMT 47.730007 18.932402 10,975 346 333 1088
2019-06-15 14:55:27 GMT 47.724609 18.934513 10,925 346 328 1088
2019-06-15 14:55:24 GMT 47.719627 18.936485 10,850 346 326 1088
2019-06-15 14:55:19 GMT 47.712067 18.939468 10,775 345 318 1024
2019-06-15 14:55:14 GMT 47.705662 18.942049 10,675 345 314 1088
2019-06-15 14:55:08 GMT 47.697887 18.945219 10,425 345 296 2048
2019-06-15 14:55:05 GMT 47.693745 18.946909 10,525 345 303 1152
2019-06-15 14:54:58 GMT 47.683960 18.950935 10,375 345 295 2368
2019-06-15 14:54:54 GMT 47.679222 18.952894 10,250 346 293 2624
2019-06-15 14:54:48 GMT 47.670181 18.956497 9,950 344 293 2560
2019-06-15 14:54:42 GMT 47.653992 18.964725 9,575 339 291 2496
2019-06-15 14:54:33 GMT 47.652035 18.966064 9,350 335 288 2560
2019-06-15 14:54:29 GMT 47.643471 18.972544 9,050 329 288 2560
2019-06-15 14:54:25 GMT 47.641888 18.973951 8,975 329 288 2560
2019-06-15 14:54:20 GMT 47.636490 18.979294 8,750 323 286 2688
2019-06-15 14:54:16 GMT 47.628803 18.988249 8,425 321 285 2816
2019-06-15 14:54:06 GMT 47.622009 18.996630 8,125 320 284 2880
2019-06-15 14:54:03 GMT 47.616188 19.003883 7,850 321 283 3008
2019-06-15 14:53:57 GMT 47.613556 19.007103 7,725 321 283 3008
2019-06-15 14:53:54 GMT 47.610043 19.011490 7,550 321 283 3008
2019-06-15 14:53:49 GMT 47.605621 19.016911 7,350 321 283 3136
2019-06-15 14:53:46 GMT 47.601200 19.022545 7,125 321 283 3328
2019-06-15 14:53:40 GMT 47.590958 19.035152 6,500 320 285 3136
2019-06-15 14:53:35 GMT 47.590958 19.035152 6,575 320 285 3264
2019-06-15 14:53:29 GMT 47.584579 19.043083 6,250 320 285 2880
2019-06-15 14:53:23 GMT 47.576385 19.053461 6,075 320 284 2816
2019-06-15 14:53:18 GMT 47.574097 19.056335 5,775 320 283 2688
2019-06-15 14:53:15 GMT 47.570103 19.061350 5,625 320 281 2304
2019-06-15 14:53:07 GMT 47.563339 19.069794 5,375 320 277 1728
2019-06-15 14:53:04 GMT 47.559677 19.074326 5,275 320 273 1536
2019-06-15 14:52:56 GMT 47.549435 19.086985 5,075 321 260 2176
2019-06-15 14:52:51 GMT 47.548038 19.088675 4,975 321 260 2368
2019-06-15 14:52:47 GMT 47.544113 19.093483 4,825 321 257 2752
2019-06-15 14:52:43 GMT 47.539799 19.098745 4,600 321 257 2624
2019-06-15 14:52:37 GMT 47.534363 19.105293 4,350 321 255 1984
2019-06-15 14:52:33 GMT 47.531067 19.109207 4,275 321 253 1728
2019-06-15 14:52:28 GMT 47.525986 19.115318 4,125 322 247 832
2019-06-15 14:52:22 GMT 47.521454 19.120674 4,075 322 234 1024
2019-06-15 14:52:18 GMT 47.516613 19.126423 4,000 322 231 960
2019-06-15 14:52:12 GMT 47.512516 19.131212 3,925 322 225 896
2019-06-15 14:52:07 GMT 47.508682 19.135643 3,850 323 219 960
2019-06-15 14:51:56 GMT 47.500351 19.145119 3,675 324 206 2048
2019-06-15 14:51:52 GMT 47.496269 19.149523 3,500 325 205 2240
2019-06-15 14:51:44 GMT 47.490639 19.155437 3,250 323 203 1664
2019-06-15 14:51:41 GMT 47.488495 19.157822 3,175 321 203 1728
2019-06-15 14:51:36 GMT 47.484879 19.162422 3,025 315 200 2048
2019-06-15 14:51:30 GMT 47.481190 19.168184 2,825 313 200 1984
2019-06-15 14:51:26 GMT 47.478287 19.172859 2,675 313 199 1920
2019-06-15 14:51:21 GMT 47.475037 19.178009 2,525 313 198 2048
2019-06-15 14:51:15 GMT 47.471878 19.183044 2,350 313 197 2048
2019-06-15 14:51:11 GMT 47.469364 19.187128 2,225 313 196 2368
2019-06-15 14:51:05 GMT 47.465286 19.193665 1,950 313 196 2880
2019-06-15 14:51:01 GMT 47.463181 19.197098 1,725 313 192 2752
2019-06-15 14:50:54 GMT 47.459152 19.203690 1,500 312 191 2816
2019-06-15 14:50:44 GMT 47.452976 19.213890 1,025 313 189 3200
2019-06-15 14:50:35 GMT 47.447754 19.222366 575 313 193 1920
2019-06-15 14:50:23 GMT 47.440769 19.233576 0 312 165
2019-06-15 14:50:10 GMT 47.435207 19.242607 0 312 115
2019-06-15 14:50:03 GMT 47.433014 19.246141 0 312 74
2019-06-15 14:49:52 GMT 47.431240 19.248991 0 312 19
2019-06-15 14:49:39 GMT 47.430794 19.249763 0 292 7
2019-06-15 14:49:31 GMT 47.430702 19.250036 0 250 6
2019-06-15 14:49:20 GMT 47.430855 19.250423 0 222 10
2019-06-15 14:49:09 GMT 47.431236 19.250917 0 222 10
2019-06-15 14:48:57 GMT 47.431576 19.251373 0 222 7
2019-06-15 14:48:46 GMT 47.431744 19.251600 0 222 5
2019-06-15 14:48:36 GMT 47.431881 19.251789 0 222 5
2019-06-15 14:48:27 GMT 47.432018 19.251955 0 222 6
2019-06-15 14:48:16 GMT 47.432178 19.252167 0 222 6
2019-06-15 14:48:05 GMT 47.432419 19.252493 0 222 9
2019-06-15 14:47:55 GMT 47.432739 19.252941 0 222 12
2019-06-15 14:47:43 GMT 47.433208 19.253557 0 222 15
2019-06-15 14:47:31 GMT 47.433846 19.254438 0 222 18
2019-06-15 14:47:22 GMT 47.434330 19.255085 0 222 17
2019-06-15 14:47:10 GMT 47.434914 19.255875 0 222 14
2019-06-15 14:47:01 GMT 47.435326 19.256424 0 222 13
2019-06-15 14:46:46 GMT 47.435875 19.257145 0 222 8
2019-06-15 14:46:39 GMT 47.436020 19.257343 0 222 7
2019-06-15 14:46:29 GMT 47.436207 19.257607 0 222 5
2019-06-15 14:46:17 GMT 47.436344 19.257784 0 222 2
2019-06-15 14:45:19 GMT 47.436382 19.257835 0 222 0
2019-06-15 14:45:11 GMT 47.436394 19.257854 0 222 5
2019-06-15 14:45:01 GMT 47.436607 19.258141 0 222 11
2019-06-15 14:44:52 GMT 47.436962 19.258612 0 225 14
2019-06-15 14:44:36 GMT 47.437672 19.259562 0 222 13
2019-06-15 14:44:28 GMT 47.437969 19.259977 0 222 12
2019-06-15 14:44:16 GMT 47.438427 19.260595 0 222 11
2019-06-15 14:43:45 GMT 47.439640 19.261305 0 132 9
2019-06-15 14:43:23 GMT 47.439804 19.260336 0 47 7
2019-06-15 14:43:14 GMT 47.439629 19.260054 0 42 7
2019-06-15 14:42:56 GMT 47.439400 19.259737 0 42 0
2019-06-15 14:42:51 GMT 47.439396 19.259737 0 42 0
2019-06-15 14:42:42 GMT 47.439400 19.259737 0 42 0
2019-06-15 14:42:27 GMT 47.439396 19.259737 0 42 0
2019-06-15 14:42:16 GMT 47.439400 19.259737 0 42 0
2019-06-15 14:41:41 GMT 47.439396 19.259737 0 42 0
2019-06-15 14:40:56 GMT 47.439400 19.259737 0 42 0
2019-06-15 14:40:36 GMT 47.439396 19.259737 0 42 0
2019-06-15 14:39:57 GMT 47.439400 19.259737 0 42 0
2019-06-15 14:39:47 GMT 47.439396 19.259737 0 42 0
2019-06-15 14:38:47 GMT 47.439400 19.259737 0 42 0
2019-06-15 14:38:27 GMT 47.439396 19.259737 0 42 0
We lost coverage of the aircraft here for a total of 21 minutes
2019-06-15 14:17:28 GMT 47.439396 19.259737 0 42 0
2019-06-15 14:17:16 GMT 47.439400 19.259754 0 42 0
2019-06-15 14:17:05 GMT 47.439377 19.259737 0 42 2
2019-06-15 14:16:54 GMT 47.439240 19.259531 0 42 9
2019-06-15 14:16:43 GMT 47.438931 19.259121 0 42 10
2019-06-15 14:16:32 GMT 47.438530 19.258587 0 42 12
2019-06-15 14:16:22 GMT 47.438129 19.258038 0 42 13
2019-06-15 14:16:10 GMT 47.437672 19.257431 0 42 12
2019-06-15 14:16:01 GMT 47.437305 19.256939 0 42 12
2019-06-15 14:15:50 GMT 47.436905 19.256407 0 42 12
2019-06-15 14:15:38 GMT 47.436470 19.255806 0 42 11
2019-06-15 14:15:29 GMT 47.436184 19.255424 0 42 10
2019-06-15 14:15:18 GMT 47.435856 19.255001 0 42 9
2019-06-15 14:15:06 GMT 47.435566 19.254587 0 42 8
2019-06-15 14:14:51 GMT 47.435223 19.254141 0 42 7
2019-06-15 14:14:35 GMT 47.434891 19.253681 0 39 8
2019-06-15 14:14:25 GMT 47.434624 19.253365 0 30 9
2019-06-15 14:14:14 GMT 47.434193 19.253206 0 337 10
2019-06-15 14:14:03 GMT 47.433830 19.253662 0 312 10
2019-06-15 14:13:53 GMT 47.433563 19.254107 0 312 10
2019-06-15 14:13:39 GMT 47.433151 19.254759 0 312 12
2019-06-15 14:13:32 GMT 47.432888 19.255188 0 312 12
2019-06-15 14:13:19 GMT 47.432449 19.255917 0 312 12
2019-06-15 14:13:09 GMT 47.432087 19.256493 0 312 12
2019-06-15 14:12:59 GMT 47.431786 19.256973 0 312 10
2019-06-15 14:12:47 GMT 47.431458 19.257505 0 312 8
2019-06-15 14:12:39 GMT 47.431297 19.257780 0 312 7
2019-06-15 14:12:27 GMT 47.431068 19.258123 0 312 6
2019-06-15 14:12:12 GMT 47.430878 19.258451 0 312 3
2019-06-15 14:12:02 GMT 47.430840 19.258501 0 312 0
2019-06-15 14:11:52 GMT 47.430840 19.258518 0 312 0
2019-06-15 14:11:31 GMT 47.430828 19.258524 0 312 0
2019-06-15 14:11:11 GMT 47.430840 19.258518 0 312 0
2019-06-15 14:10:32 GMT 47.430828 19.258505 0 312 0
2019-06-15 14:10:12 GMT 47.430840 19.258518 0 312 0
2019-06-15 14:09:42 GMT 47.430828 19.258505 0 312 0
2019-06-15 14:09:27 GMT 47.430840 19.258518 0 312 0
2019-06-15 14:09:17 GMT 47.430828 19.258505 0 312 0
2019-06-15 14:09:02 GMT 47.430840 19.258518 0 312 0
2019-06-15 14:08:58 GMT 47.430840 19.258505 0 312 0
2019-06-15 14:08:43 GMT 47.430840 19.258518 0 312 0
2019-06-15 14:08:18 GMT 47.430840 19.258505 0 312 0
2019-06-15 14:08:13 GMT 47.430828 19.258505 0 312 0
2019-06-15 14:08:03 GMT 47.430840 19.258518 0 312 0
2019-06-15 14:07:52 GMT 47.430828 19.258505 0 312 0
2019-06-15 14:07:41 GMT 47.430840 19.258505 0 312 0
2019-06-15 14:07:32 GMT 47.430817 19.258535 0 312 2
2019-06-15 14:07:20 GMT 47.430771 19.258629 0 312 2
2019-06-15 14:06:25 GMT 47.430645 19.258821 0 312 0
2019-06-15 14:06:00 GMT 47.430645 19.258810 0 312 0
2019-06-15 14:05:43 GMT 47.430645 19.258804 0 312 0
2019-06-15 14:05:33 GMT 47.430656 19.258793 0 312 3
2019-06-15 14:05:22 GMT 47.430748 19.258673 0 315 4
2019-06-15 14:05:10 GMT 47.430889 19.258593 0 329 4
2019-06-15 14:05:00 GMT 47.431034 19.258501 0 337 4
2019-06-15 14:04:50 GMT 47.431202 19.258434 0 343 4
2019-06-15 14:04:39 GMT 47.431343 19.258484 0 5 4

Making use of Plane Finder data

You are free to use the raw flight data, aircraft information and images provided in this report for your own purposes provided the data is correctly attributed to Plane Finder. We ask that you please credit Plane Finder and link to planefinder.net in close proximity to the content.

Optionally one of the following logos (no smaller then 150x24px) can be used and must link to planefinder.net

Embedding the Plane Finder map

You are welcome to embed the Plane Finder playback map on your website to offer visitors a more interactive experience. We suggest using the following HTML code:

<iframe src="//planefinder.net/data/report/AC1911-C-GSCA-7700-squawk-2019-06-15/map" width="800" height="600" seamless="seamless"></iframe>

Where our data comes from

Plane Finder has a global network of data feeds and antenna radars that receive data broadcast directly from aircraft. The primary technologies used are ADS-B and MLAT. We also show feeds from the FAA and a FLARM glider feed.

Click here to find out more about the Plane Finder network.

How we collect our data